     2.10           OBSERVATION DATA    G (GPS)             RINEX VERSION / TYPE
teqc 2002Mar14 SOPAC 20050725 21:25:55UTC                   PGM / RUN BY / DATE
Linux 2.0.36|Pentium II|gcc -static|Linux|486/DX+           COMMENT
BIT 2 OF LLI FLAGS DATA COLLECTED UNDER A/S CONDITION       COMMENT
HPGN CA 02 02                                               MARKER NAME
0202                                                        MARKER NUMBER
Ralph Klopcic                                               OBSERVER / AGENCY
0220224042 TRIMBLE 4700                                     REC # / TYPE / VERS
0220078884 TRM22020.00+GP NONE                              ANT # / TYPE
 -2559007.0000 -4002748.0000  4242457.0000                  APPROX POSITION XYZ
        2.0000        0.0000        0.0000                  ANTENNA: DELTA H/E/N
     1     1                                                WAVELENGTH FACT L1/2
     6    L1    L2    C1    P2    P1    D1                  # / TYPES OF OBSERV
    15.0000                                                 INTERVAL
Northern California Height Modernization 2004               COMMENT
                                                            COMMENT
SOPAC - Scripps Orbit and Permanent Array Center            COMMENT
IGPP - Institute of Geophysics and Planetary Physics        COMMENT
SIO - Scripps Institution of Oceanography                   COMMENT
UCSD - University of California, San Diego                  COMMENT
                                                            COMMENT
email: archive@gpsmail.ucsd.edu                             COMMENT
ftp://garner.ucsd.edu                                       COMMENT
http://sopac.ucsd.edu                                       COMMENT
                                                            COMMENT
                                                            COMMENT
Approximate Lat, Lon : 41.956, -122.591                     COMMENT
                                                            COMMENT
SNR is mapped to RINEX snr flag value [1-9]                 COMMENT
L1: 3 -> 1; 8 -> 5; 40 -> 9                                 COMMENT
L2: 1 -> 1; 5 -> 5; 60 -> 9                                 COMMENT
  2004     9     7    20    55   30.0000000     GPS         TIME OF FIRST OBS
                                                            END OF HEADER
 04  9  7 20 55 30.0000000  0  6G 3G 8G13G16G23G27
    -66067.27659    -35819.80957  23371770.3754   23371771.1684
      1972.8444
   -106307.94459    -56164.89257  23303468.2114   23303467.4384
      3117.6414
    -25102.63759    -16297.22258  20240323.7424   20240321.0474
       751.2344
     90997.69759     41244.65257  23514770.2194   23514769.0514
     -2720.5004
     59401.31959     28288.62458  21216996.1724   21216991.4224
     -1740.8594
    -62682.07459    -34501.30558  21670976.7194   21670974.8164
      1875.6564
 04  9  7 20 55 45.0000000  0  6G 3G 8G13G16G23G27
    -95733.55349    -58936.32447  23366125.6174   23366125.6684
      1982.0004
   -153178.97549    -92687.78647  23294549.5704   23294548.1334
      3131.2974
    -36445.71249    -25135.99848  20238165.0784   20238162.5634
       760.6254
    131712.80949     72970.67647  23522518.3284   23522517.0904
     -2708.7194
     85432.94649     48572.97448  21221949.5784   21221945.4534
     -1730.5944
    -90919.38649    -56504.41148  21665603.1644   21665601.9574
      1888.7504
 04  9  7 20 56  0.0000000  0  6G 3G 8G13G16G23G27
   -125533.24149    -82156.90247  23360455.5554   23360453.2704
      1990.7034
   -200252.67849   -129368.59747  23285590.8284   23285590.1094
      3144.7194
    -47926.18449    -34081.82848  20235980.2894   20235977.7114
       769.5634
    172255.03249    104561.98847  23530233.6174   23530232.6134
     -2697.4224
    111314.86849     68740.67548  21226875.0084   21226870.3244
     -1720.8124
   -119349.72749    -78657.93048  21660192.8524   21660191.2194
      1901.4384
 04  9  7 20 56 15.0000000  0  6G 3G 8G13G16G23G27
   -155459.79249   -105476.27347  23354759.0314   23354760.1564
      1998.9844
   -247522.51849   -166202.22447  23276595.5474   23276594.9614
      3157.5634
    -59537.51549    -43129.62948  20233770.8594   20233768.1564
       778.1884
    212630.45749    136023.29847  23537917.2424   23537916.4534
     -2686.5004
    137053.34349     88796.59648  21231772.6644   21231768.3134
     -1711.4224
   -147966.63149   -100956.82248  21654747.1024   21654745.3524
      1913.6884
 04  9  7 20 56 30.0000000  0  6G 3G 8G13G16G23G27
   -185506.36449   -128889.15247  23349041.9144   23349042.1254
      2006.7664
   -294982.02349   -203183.61747  23267563.6024   23267564.4064
      3169.9064
    -71272.90249    -52274.10048  20231537.7344   20231535.0784
       786.0784
    252845.26849    167359.51147  23545569.7734   23545568.2664
     -2676.0474
    162654.83749    108745.78448  21236644.5944   21236640.1684
     -1702.6094
   -176763.60549   -123396.01748  21649267.6334   21649265.8834
      1925.4064
 04  9  7 20 56 45.0000000  0  6G 3G 8G13G16G23G27
   -215655.03649   -152381.60647  23343304.1724   23343304.5434
      2012.9844
   -342613.52049   -240299.05747  23258499.8444   23258500.4654
      3180.9064
    -83114.76749    -61501.54248  20229283.9614   20229281.2774
       792.7194
    292916.61149    198583.90847  23553194.8524   23553193.2504
     -2666.8754
    188136.82849    128601.85148  21241493.7894   21241489.3204
     -1695.1254
   -205723.05349   -145961.82048  21643756.5634   21643755.0394
      1935.7504
 04  9  7 20 57  0.0000000  0  6G 3G 8G13G16G23G27
   -245902.34549   -175950.89647  23337548.7504   23337549.6644
      2019.6094
   -390413.67649   -277545.91947  23249404.4614   23249404.4774
      3192.2034
    -95059.75249    -70809.32648  20227011.2734   20227008.2194
       799.6414
    332847.57149    229698.89147  23560793.7344   23560792.0704
     -2657.6254
    213502.49849    148367.27948  21246320.7584   21246316.3714
     -1687.3124
   -234841.92749   -168651.84048  21638215.7114   21638213.8164
      1946.3914
 04  9  7 20 57 15.0000000  0  6G 3G 8G13G16G23G27
   -276230.60449   -199583.30547  23331777.2584   23331777.0434
      2024.2664
   -438365.11149   -314910.66647  23240279.4774   23240278.9534
      3201.5164
   -107090.38049    -80183.85848  20224721.8444   20224719.1134
       804.5784
    372655.08549    260717.69747  23568368.5784   23568367.9104
     -2650.0624
    238769.26349    168055.63748  21251128.6094   21251124.1684
     -1681.5164
   -264102.73849   -191452.47748  21632647.5554   21632645.8874
      1955.1254
 04  9  7 20 57 30.0000000  0  6G 3G 8G13G16G23G27
   -306633.18249   -223273.60647  23325993.2974   23325992.6334
      2029.5784
   -486461.32749   -352388.21947  23231127.0164   23231126.7814
      3211.4844
   -119200.11849    -89620.01848  20222417.5394   20222414.9534
       810.2034
    412345.05949    291644.93747  23575921.9694   23575920.1564
     -2641.7814
    263943.26449    187671.71148  21255919.4614   21255914.5124
     -1674.8754
   -293499.22149   -214358.81748  21627053.2114   21627051.9454
      1964.4384
 04  9  7 20 57 45.0000000  0  6G 3G 8G13G16G23G27
   -337103.34149   -247016.55247  23320193.7194   23320195.1724
      2033.2664
   -534695.93549   -389973.61947  23221947.9304   23221947.5234
      3219.9844
   -131382.38349    -99112.71448  20220099.2194   20220096.6214
       814.2664
    451923.71849    322485.42947  23583453.2504   23583451.4494
     -2635.1254
    289030.83149    207220.43348  21260693.5554   21260688.9304
     -1669.9224
   -323024.96549   -237365.89048  21621434.7894   21621433.1994
      1972.3594
 04  9  7 20 58  0.0000000  0  6G 3G 8G13G16G23G27
   -367626.80249   -270801.04447  23314385.6724   23314384.2114
      2036.4064
   -583054.80549   -427655.81247  23212745.7974   23212745.2074
      3227.7974
   -143623.04449   -108650.90048  20217769.9064   20217767.1994
       817.6724
    491404.81949    353249.91447  23590966.4614   23590964.7154
     -2629.2504
    314045.90349    226712.67948  21265453.3754   21265449.0434
     -1665.5474
   -352665.93449   -260462.74348  21615794.0864   21615792.5554
      1979.6254
 04  9  7 20 58 15.0000000  0  6G 3G 8G13G16G23G27
   -398193.07049   -294618.89747  23308568.8914   23308568.8444
      2039.1884
   -631527.55049   -465426.80847  23203521.9144   23203521.5594
      3235.1564
   -155911.72949   -118226.49848  20215431.6174   20215428.7304
       820.7034
    530798.15549    383945.93447  23598462.7344   23598462.0434
     -2623.3914
    338998.57849    246156.29448  21270201.7504   21270197.3524
     -1661.5624
   -382411.96449   -283641.47048  21610133.9844   21610132.2934
      1986.4064
 04  9  7 20 58 30.0000000  0  6G 3G 8G13G16G23G27
   -428794.38049   -318464.04047  23302746.7194   23302745.6954
      2041.2974
   -680106.82349   -503280.74847  23194277.6564   23194277.3834
      3242.0474
   -168240.94149   -127833.67248  20213085.5164   20213082.7304
       823.1884
    570110.89049    414579.22847  23605944.0554   23605942.2344
     -2618.2974
    363896.38749    265557.17248  21274939.6564   21274935.6414
     -1658.1254
   -412255.52549   -306896.18548  21604454.7274   21604453.1254
      1992.6724
 04  9  7 20 58 45.0000000  0  6G 3G 8G13G16G23G27
   -459426.66149   -342333.35547  23296917.0084   23296916.5084
      2042.8444
   -728788.81249   -541214.76447  23185013.3754   23185013.6054
      3248.5164
   -180606.58349   -137469.25548  20210732.3524   20210729.6724
       825.2034
    609346.43849    445152.35547  23613410.2734   23613407.9534
     -2613.4064
    388742.98749    284918.13248  21279667.7344   21279663.5704
     -1655.0784
   -442192.91549   -330224.01848  21598758.0554   21598756.2774
      1998.5944
 04  9  7 20 59  0.0000000  0  6G 3G 8G13G16G23G27
   -490079.91349   -366218.98647  23291083.6724   23291084.2774
      2044.0164
   -777563.75849   -579221.17447  23175731.7194   23175731.7234
      3254.4694
   -192998.96149   -147125.67048  20208374.0864   20208371.3524
       826.7974
    648514.18349    475672.62947  23620863.8984   23620861.9264
     -2609.1564
    413547.80249    304246.54248  21284387.8674   21284383.8284
     -1652.5314
   -472214.50949   -353617.45348  21593044.9924   21593043.3714
      2003.9534
 04  9  7 20 59 15.0000000  0  6G 3G 8G13G16G23G27
   -520741.28749   -390110.95447  23285248.8364   23285248.4264
      2044.5164
   -826419.02449   -617290.19647  23166434.4534   23166434.8594
      3259.9534
   -205405.47449   -156793.08548  20206013.3914   20206010.4414
       827.7664
    687626.22849    506149.55247  23628306.5944   23628304.4774
     -2605.3284
    438323.50149    323552.24448  21289102.9774   21289098.4454
     -1650.5474
   -502307.67649   -377066.67848  21587318.4534   21587316.8204
      2008.8284
 04  9  7 20 59 30.0000000  0  6G 3G 8G13G16G23G27
   -551408.04249   -414007.10747  23279413.5084   23279412.8874
      2044.5634
   -875352.36149   -655420.06947  23157123.4454   23157123.2504
      3264.7974
   -217823.43749   -166469.41648  20203650.2584   20203647.3834
       828.1254
    726684.81849    536584.80647  23635738.5634   23635737.2894
     -2602.2034
    463072.37649    342837.06848  21293812.4614   21293807.7704
     -1649.0624
   -532470.09349   -400569.84348  21581578.7034   21581576.8634
      2013.0944
 04  9  7 20 59 45.0000000  0  6G 3G 8G13G16G23G27
   -582079.71449   -437907.07647  23273575.8284   23273577.3794
      2044.6884
   -924363.48849   -693610.53447  23147797.4064   23147796.7774
      3269.8284
   -230252.84749   -176154.68248  20201284.9774   20201281.9104
       828.7814
    765689.76549    566978.22647  23643161.0314   23643159.9574
     -2598.7194
    487794.49049    362101.01748  21298516.9614   21298512.5084
     -1647.3754
   -562701.57449   -424126.83948  21575825.8594   21575824.1334
      2017.5474
 04  9  7 21  0  0.0000000  0  6G 3G 8G13G16G23G27
   -612749.85849   -461805.88447  23267740.9454   23267739.8094
      2044.3444
   -973445.83649   -731856.51647  23138456.3284   23138456.6914
      3274.2974
   -242686.90149   -185843.56948  20198918.7504   20198916.1214
       828.8134
    804646.87949    597334.39247  23650574.0554   23650573.6334
     -2595.7814
    512495.96949    381348.90048  21303217.4144   21303213.1174
     -1646.3594
   -592995.99849   -447732.87848  21570060.9064   21570059.0434
      2021.4694
 04  9  7 21  0 15.0000000  0  6G 3G 8G13G16G23G27
   -643415.89949   -485701.47947  23261904.4224   23261905.3134
      2044.0474
  -1022597.16049   -770156.22447  23129103.7194   23129103.5704
      3278.8284
   -255123.30749   -195534.27248  20196552.1804   20196548.9104
       828.9694
    843558.25549    627654.87647  23657979.0004   23657978.4184
     -2592.8284
    537179.06449    400582.45848  21307914.3054   21307909.8444
     -1645.1254
   -623351.02849   -471386.14348  21564284.9304   21564282.9964
      2025.5004
 04  9  7 21  0 30.0000000  0  6G 3G 8G13G16G23G27
   -674069.58249   -509587.45147  23256071.3984   23256070.6454
      2043.1564
  -1071809.37149   -808503.36947  23119738.4844   23119738.4144
      3282.8754
   -267554.01849   -205220.54248  20194186.6414   20194183.7774
       828.5944
    882431.34749    657945.54947  23665376.6254   23665375.5164
     -2590.1254
    561851.56049    419807.75148  21312609.1884   21312605.1524
     -1644.4694
   -653758.66349   -495080.39948  21558498.1484   21558496.4144
      2028.9694
 04  9  7 21  0 45.0000000  0  6G 3G 8G13G16G23G27
   -704709.96849   -533463.08347  23250240.8914   23250240.6844
      2042.0004
  -1121081.92349   -846897.55847  23110361.8914   23110362.2234
      3286.5944
   -279978.23049   -214901.75048  20191822.4384   20191819.7934
       827.8284
    921266.65249    688206.81947  23672766.4614   23672765.4384
     -2587.8754
    586514.07249    439025.25948  21317302.7274   21317298.6564
     -1644.0314
   -684218.23149   -518815.12348  21552702.0164   21552700.0864
      2032.0944
 04  9  7 21  1  0.0000000  0  6G 3G 8G13G16G23G27
   -735329.56849   -557322.47347  23244414.1564   23244415.1214
      2040.8754
  -1170407.85749   -885333.31347  23100975.9924   23100975.7464
      3290.4224
   -292388.66249   -224572.23548  20189460.6954   20189457.7934
       827.1724
    960070.99649    718443.94647  23680151.2664   23680148.9184
     -2585.6724
    611173.81649    458240.63148  21321995.2814   21321991.1454
     -1643.5624
   -714722.68249   -542584.81048  21546897.1724   21546895.7304
      2035.3914
 04  9  7 21  1 15.0000000  0  6G 3G 8G13G16G23G27
   -765926.57249   -581164.29347  23238591.1484   23238591.1914
      2038.9384
  -1219785.31549   -923809.27247  23091580.4774   23091579.4844
      3293.4064
   -304783.57849   -234230.60748  20187102.2114   20187099.5864
       825.6724
    998845.53749    748657.84447  23687529.3594   23687528.4024
     -2584.0164
    635832.11549    477454.85348  21326687.5784   21326683.3554
     -1643.9374
   -745270.52849   -566388.32348  21541084.1884   21541082.5164
      2037.8754
 04  9  7 21  1 30.0000000  0  6G 3G 8G13G16G23G27
   -796497.24049   -604985.56547  23232773.9774   23232773.8634
      2037.2814
  -1269210.66949   -962322.52447  23082174.5234   23082174.0004
      3296.6724
   -317159.38549   -243874.10348  20184747.2274   20184744.5744
       824.5004
   1037593.56449    778851.10047  23694903.2194   23694901.2894
     -2582.2814
    660492.39749    496670.63248  21331380.3914   21331376.0124
     -1644.0314
   -775858.09649   -590222.78348  21535263.3524   21535261.5204
      2040.5474
 04  9  7 21  1 45.0000000  0  6G 3G 8G13G16G23G27
   -827034.76049   -628781.01747  23226962.5634   23226963.3094
      2034.5634
  -1318677.57149  -1000868.13047  23072760.6954   23072761.1334
      3299.0474
   -329509.45149   -253497.54048  20182396.6254   20182394.0634
       822.2504
   1076321.07049    809028.33447  23702272.4224   23702270.8484
     -2581.2504
    685161.06749    515892.95448  21336074.8444   21336070.4534
     -1645.0474
   -806479.06149   -614083.26948  21529436.5004   21529434.8594
      2042.2814
 04  9  7 21  2  0.0000000  0  6G 3G 8G13G16G23G27
   -857533.51749   -652546.27547  23221159.1174   23221158.6684
      2032.0944
  -1368180.66049  -1039441.94247  23063341.6884   23063341.4844
      3301.6564
   -341828.45949   -263096.77148  20180052.9454   20180050.1604
       820.4224
   1115033.08949    839193.48847  23709639.3524   23709638.3674
     -2580.0944
    709843.30049    535125.83948  21340771.6564   21340767.1454
     -1645.7344
   -837128.09849   -637965.63048  21523604.1174   21523602.2734
      2044.4694
 04  9  7 21  2 15.0000000  0  6G 3G 8G13G16G23G27
   -887999.89449   -676286.28447  23215360.9924   23215362.0704
      2030.1094
  -1417726.26549  -1078048.88947  23053912.7814   23053912.3284
      3304.5474
   -354122.62849   -272676.64448  20177713.2814   20177710.3324
       818.9064
   1153722.70849    869341.19947  23717002.3054   23717000.5124
     -2578.3914
    734532.50949    554364.15948  21345469.7034   21345465.2344
     -1646.0624
   -867811.68349   -661874.91148  21517765.3594   21517763.4064
      2046.8594
 04  9  7 21  2 30.0000000  0  6G 3G 8G13G16G23G27
   -918429.30449   -699997.47247  23209570.9224   23209571.7774
      2027.2814
  -1467309.89149  -1116685.47047  23044478.1334   23044477.3164
      3306.7814
   -366387.70649   -282233.85448  20175379.3914   20175376.5474
       816.5634
   1192393.93749    899474.59547  23724360.7734   23724359.6414
     -2577.5164
    759232.89049    573611.20048  21350170.1334   21350165.8834
     -1647.1564
   -898525.77149   -685807.96348  21511920.4224   21511919.1374
      2048.5004
 04  9  7 21  2 45.0000000  0  6G 3G 8G13G16G23G27
   -948817.16749   -723676.33947  23203788.7194   23203787.5944
      2024.4064
  -1516927.57749  -1155348.59647  23035035.7814   23035035.1604
      3308.8914
   -378619.35549   -291765.01448  20173051.7894   20173048.7894
       814.3444
   1231050.73249    929596.72647  23731716.5394   23731715.7154
     -2576.6874
    783948.58249    592870.15648  21354873.5474   21354869.2854
     -1648.2974
   -929266.04649   -709761.42448  21506070.9454   21506069.2974
      2050.1884
 04  9  7 21  3  0.0000000  0  6G 3G 8G13G16G23G27
   -979161.44649   -747321.18647  23198014.0164   23198014.9144
      2021.4534
  -1566577.46749  -1194036.81047  23025587.9534   23025586.8054
      3310.8914
   -390815.62749   -301268.60148  20170730.8444   20170727.7854
       811.8444
   1269694.44449    959708.69847  23739070.3834   23739069.4844
     -2575.9224
    808681.18349    612142.29048  21359579.9694   21359575.8404
     -1649.4534
   -960030.75249   -733733.91048  21500216.3364   21500214.7704
      2051.7034
 04  9  7 21  3 15.0000000  0  6G 3G 8G13G16G23G27
  -1009459.63549   -770930.15247  23192248.3364   23192248.5354
      2018.2504
  -1616257.47349  -1232748.48047  23016133.6254   23016133.6644
      3312.9694
   -402974.15449   -310742.78648  20168417.3054   20168413.9414
       809.2504
   1308326.99149    989811.94247  23746422.0784   23746421.5784
     -2575.1414
    833432.88849    631429.31148  21364290.1954   21364286.2154
     -1650.8124
   -990817.59449   -757723.66248  21494358.0554   21494356.4414
      2053.1724
 04  9  7 21  3 30.0000000  0  6G 3G 8G13G16G23G27
  -1039712.22749   -794503.60947  23186492.0704   23186491.4414
      2015.0314
  -1665968.04149  -1271483.97547  23006674.1954   23006673.8324
      3314.7974
   -415095.54749   -320188.04948  20166110.6414   20166107.1914
       806.5004
   1346947.39149   1019905.71247  23753771.4144   23753769.5044
     -2574.6254
    858202.90749    650730.59748  21369003.3054   21368999.3484
     -1652.2194
  -1021627.37849   -781731.28548  21488495.0004   21488493.1724
      2054.4064
 04  9  7 21  3 45.0000000  0  6G 3G 8G13G16G23G27
  -1069918.44349   -818040.90147  23180743.9384   23180743.7234
      2012.4384
  -1715708.68249  -1310242.87847  22997208.5474   22997208.9264
      3317.3284
   -427179.19749   -329603.88348  20163811.3914   20163808.1914
       804.5634
   1385555.69249   1049990.08347  23761118.1174   23761117.8284
     -2573.2194
    882991.57749    670046.42848  21373721.0004   21373716.4184
     -1652.9844
  -1052459.63849   -805756.40548  21482627.8834   21482626.2934
      2056.4064
 04  9  7 21  4  0.0000000  0  6G 3G 8G13G16G23G27
  -1100071.67249   -841536.91647  23175005.9144   23175004.5514
      2008.1724
  -1765472.81849  -1349020.12747  22987738.7584   22987738.5514
      3317.9844
   -439218.58449   -338985.22548  20161520.0234   20161516.8524
       800.8134
   1424158.01949   1080069.77747  23768464.0704   23768463.5434
     -2573.5314
    907805.15649    689381.65348  21378442.3524   21378438.1684
     -1655.3754
  -1083307.94449   -829794.05448  21476757.6484   21476756.2304
      2056.7194
 04  9  7 21  4 15.0000000  0  6G 3G 8G13G16G23G27
  -1130172.05349   -864991.73847  23169278.2114   23169278.5124
      2004.6094
  -1815260.79249  -1387815.93647  22978263.8134   22978264.4024
      3319.6724
   -451213.98449   -348332.29148  20159237.7814   20159234.0904
       797.9694
   1462753.61349   1110144.23847  23775808.8754   23775807.2774
     -2573.0004
    932643.22249    708735.96448  21383169.0394   21383164.8094
     -1656.9224
  -1114172.84949   -853844.61348  21470884.0004   21470882.8714
      2058.0004
 04  9  7 21  4 30.0000000  0  6G 3G 8G13G16G23G27
  -1160216.34249   -888402.83347  23163560.4144   23163560.0314
      2001.5004
  -1865069.71849  -1426628.07647  22968785.9304   22968785.8204
      3321.6564
   -463162.23749   -357642.62948  20156963.8674   20156960.6994
       795.3444
   1501345.19749   1140215.53247  23783152.1254   23783151.3204
     -2572.3284
    957508.63349    728111.57648  21387900.8444   21387896.2464
     -1658.2034
  -1145051.27549   -877905.71948  21465008.4534   21465006.7274
      2059.3754
 04  9  7 21  4 45.0000000  0  6G 3G 8G13G16G23G27
  -1190209.17849   -911773.87047  23157852.7734   23157852.9804
      1997.8284
  -1914904.51249  -1465460.35347  22959303.1174   22959302.6604
      3323.2034
   -475068.25749   -366920.05548  20154698.1254   20154695.1804
       792.3914
   1539927.36149   1170279.53947  23790494.3834   23790492.8524
     -2571.7814
    982396.37449    747504.59448  21392636.7664   21392632.3404
     -1659.9064
  -1175948.28049   -901981.29948  21459128.7974   21459126.8794
      2060.4844
 04  9  7 21  5  0.0000000  0  6G 3G 8G13G16G23G27
  -1220145.60049   -935100.93047  23152156.5864   23152156.4454
      1994.0474
  -1964760.51149  -1504309.18047  22949815.7504   22949816.0744
      3324.6414
   -486927.23149   -376160.81448  20152441.5394   20152438.5314
       789.2974
   1578504.58649   1200339.67047  23797835.0004   23797833.9734
     -2571.3914
   1007311.04049    766918.59948  21397377.8594   21397373.7154
     -1661.6874
  -1206859.06649   -926067.62148  21453246.7584   21453244.9104
      2061.4224
 04  9  7 21  5 15.0000000  0  6G 3G 8G13G16G23G27
  -1250027.71649   -958385.68047  23146469.8674   23146469.7194
      1990.2344
  -2014639.68649  -1543176.05047  22940323.8984   22940323.8014
      3326.0004
   -498741.39649   -385366.66048  20150193.2424   20150190.2114
       786.0164
   1617074.23049   1230393.91447  23805174.0314   23805173.5784
     -2571.1254
   1032250.09949    786351.59448  21402123.8984   21402119.4924
     -1663.4844
  -1237786.04649   -950166.56848  21447361.4224   21447359.5864
      2062.2664
 04  9  7 21  5 30.0000000  0  6G 3G 8G13G16G23G27
  -1279849.93349   -981623.75747  23140795.2274   23140796.0204
      1986.6564
  -2064536.96549  -1582057.02647  22930828.7114   22930828.7424
      3327.5164
   -510505.28949   -394533.33648  20147954.6334   20147951.9264
       783.0784
   1655641.32649   1260446.20047  23812513.7814   23812512.5514
     -2570.5624
   1057218.92749    805807.81748  21406875.0704   21406871.1134
     -1665.0784
  -1268723.91049   -974273.98648  21441474.1954   21441472.6054
      2063.3914
 04  9  7 21  5 45.0000000  0  6G 3G 8G13G16G23G27
  -1309616.23349  -1004818.26147  23135130.5394   23135130.4694
      1982.0164
  -2114456.52949  -1620955.37647  22921328.9384   22921329.0904
      3328.2194
   -522222.93949   -403663.98148  20145725.3984   20145722.3554
       779.0944
   1694201.13849   1290492.77947  23819851.9844   23819850.5044
     -2570.9064
   1082213.15349    825283.80148  21411631.3594   21411627.1884
     -1667.6254
  -1299676.86649   -998393.16748  21435584.1484   21435581.8594
      2063.5474
 04  9  7 21  6  0.0000000  0  6G 3G 8G13G16G23G27
  -1339318.81949  -1027963.11347  23129478.4384   23129478.1454
      1977.8284
  -2164390.82049  -1659865.19647  22911826.6094   22911826.4224
      3329.2344
   -533886.83349   -412752.72848  20143505.3674   20143502.4614
       775.5944
   1732760.97849   1320539.36147  23827190.1024   23827188.6134
     -2570.8444
   1107240.07749    844785.28348  21416393.9384   21416389.8754
     -1669.8444
  -1330637.55449  -1022518.36648  21429692.5234   21429690.9654
      2064.0474
 04  9  7 21  6 15.0000000  0  6G 3G 8G13G16G23G27
  -1368957.19249  -1051057.93347  23123838.1724   23123838.4024
      1973.5944
  -2214339.63849  -1698786.34947  22902321.6644   22902321.7464
      3330.2034
   -545496.71749   -421799.40348  20141296.1884   20141293.0594
       772.0314
   1771320.59049   1350585.77247  23834527.4384   23834525.7074
     -2570.8124
   1132299.85149    864312.35648  21421162.8754   21421158.3834
     -1671.8914
  -1361605.78349  -1046649.44848  21423799.1724   21423797.8364
      2064.6254
 04  9  7 21  6 30.0000000  0  6G 3G 8G13G16G23G27
  -1398520.55149  -1074094.30047  23118213.4924   23118212.4734
      1968.7504
  -2264292.28849  -1737710.46947  22892816.2734   22892815.8134
      3330.6724
   -557041.80749   -430795.57548  20139099.0234   20139096.5704
       767.9064
   1809890.32449   1380640.05747  23841867.3754   23841864.9224
     -2571.1874
   1157402.98549    883873.20848  21425939.4144   21425935.0434
     -1674.6094
  -1392570.90849  -1070778.11548  21417906.7034   21417905.2584
      2064.6884
 04  9  7 21  6 45.0000000  0  6G 3G 8G13G16G23G27
  -1428016.64449  -1097078.23747  23112599.4064   23112600.8324
      1964.3914
  -2314256.74249  -1776643.80247  22883308.5084   22883308.4924
      3331.6094
   -568530.02349   -439747.43948  20136912.9924   20136910.1094
       764.1414
   1848461.78449   1410695.68647  23849206.9924   23849205.2304
     -2571.2034
   1182541.40949    903461.56848  21430723.2504   21430718.8714
     -1676.8444
  -1423540.92449  -1094910.59248  21412013.2344   21412011.5124
      2065.0314
 04  9  7 21  7  0.0000000  0  6G 3G 8G13G16G23G27
  -1457446.37949  -1120010.50047  23106999.8054   23106997.9654
      1959.6254
  -2364234.15449  -1815587.20847  22873798.3134   22873797.9574
      3332.1564
   -579962.38649   -448655.78648  20134737.4454   20134734.5554
       760.1724
   1887033.54149   1440751.58947  23856547.0234   23856546.0204
     -2571.6414
   1207713.69349    923076.31248  21435513.5634   21435509.2384
     -1679.3914
  -1454517.12549  -1119047.87748  21406119.1484   21406117.4024
      2065.1094
 04  9  7 21  7 15.0000000  0  6G 3G 8G13G16G23G27
  -1486802.88649  -1142885.67547  23101413.6024   23101413.0234
      1954.9064
  -2414217.62649  -1854535.36147  22864286.1884   22864286.3444
      3332.7344
   -591332.06549   -457515.28248  20132574.0554   20132570.8754
       756.1724
   1925611.93949   1470812.69847  23863888.2584   23863887.0984
     -2571.8914
   1232926.49349    942722.62348  21440311.1644   21440307.1724
     -1681.9374
  -1485492.79349  -1143184.75748  21400224.5784   21400222.9804
      2065.2974
 04  9  7 21  7 30.0000000  0  6G 3G 8G13G16G23G27
  -1516092.55649  -1165708.76247  23095838.4384   23095838.7664
      1950.3594
  -2464213.74349  -1893493.35547  22854772.2194   22854772.0904
      3333.4844
   -602645.60649   -466331.02948  20130420.9384   20130418.2344
       752.3594
   1964190.04649   1500873.50247  23871229.7194   23871227.9534
     -2571.8444
   1258173.12249    962395.28748  21445115.5944   21445110.9344
     -1684.2664
  -1516474.59549  -1167326.41948  21394328.7504   21394327.0274
      2065.6564
 04  9  7 21  7 45.0000000  0  6G 3G 8G13G16G23G27
  -1545311.43449  -1188476.73247  23090279.5234   23090278.3554
      1945.5634
  -2514218.89749  -1932458.39147  22845256.8914   22845256.5984
      3333.9694
   -613899.15549   -475100.03048  20128279.5634   20128276.8284
       748.1884
   2002771.12149   1530936.67947  23878570.4774   23878569.6054
     -2572.2344
   1283457.09449    982097.06048  21449927.1414   21449922.8954
     -1686.8914
  -1547458.84749  -1191469.98648  21388432.6024   21388430.5204
      2065.6414
 04  9  7 21  8  0.0000000  0  6G 3G 8G13G16G23G27
  -1574460.99149  -1211190.64547  23084732.2894   23084732.8554
      1941.2974
  -2564234.69449  -1971431.70647  22835739.4924   22835739.1054
      3335.0004
   -625094.41649   -483823.61448  20126149.2734   20126145.9064
       744.6884
   2041353.21349   1561000.58747  23885912.7194   23885911.5354
     -2571.9534
   1308776.53249   1001826.47548  21454744.9304   21454740.9024
     -1688.8754
  -1578447.22949  -1215616.77148  21382535.6484   21382533.8594
      2066.2974
 04  9  7 21  8 15.0000000  0  6G 3G 8G13G16G23G27
  -1603550.10349  -1233857.43747  23079197.2194   23079195.6684
      1937.0634
  -2614270.32349  -2010420.48147  22826218.0314   22826217.2934
      3336.3134
   -636240.48449   -492508.85748  20124028.1644   20124024.9924
       741.2504
   2079926.79749   1591057.88547  23893252.6174   23893251.7274
     -2571.4064
   1334122.19249   1021576.31048  21459568.2814   21459564.2974
     -1690.7814
  -1609449.05049  -1239774.02748  21376636.4224   21376634.6884
      2067.0634
 04  9  7 21  8 30.0000000  0  6G 3G 8G13G16G23G27
  -1632567.53449  -1256468.42347  23073674.7114   23073674.6094
      1932.1564
  -2664314.75049  -2049416.13147  22816694.3054   22816694.3054
      3336.5634
   -647326.13949   -501147.05048  20121918.6804   20121916.0514
       737.0314
   2118502.62949   1621116.92347  23900594.2664   23900593.1954
     -2571.7664
   1359505.10349   1041355.16848  21464398.4694   21464394.4654
     -1693.4534
  -1640453.11649  -1263933.04048  21370736.1564   21370734.6454
      2067.0314
 04  9  7 21  8 45.0000000  0  6G 3G 8G13G16G23G27
  -1661517.81249  -1279027.05047  23068166.5704   23068165.6094
      1927.5004
  -2714372.59149  -2088422.21347  22807168.8834   22807168.8484
      3337.4384
   -658356.01749   -509741.75848  20119819.6884   20119816.6254
       733.2664
   2157075.48149   1651173.68847  23907933.5944   23907932.9384
     -2571.6724
   1384920.31749   1061159.21848  21469234.9224   21469230.8554
     -1695.6564
  -1671464.35249  -1288097.62848  21364835.0394   21364833.9774
      2067.3914
 04  9  7 21  9  0.0000000  0  6G 3G 8G13G16G23G27
  -1690395.77149  -1301529.35447  23062669.9454   23062668.7624
      1922.8594
  -2764439.04249  -2127435.01847  22797641.2344   22797641.1024
      3338.1254
   -669325.03849   -518289.04348  20117732.3524   20117729.6454
       729.3284
   2195650.05849   1681231.77147  23915274.6414   23915273.2154
     -2571.6254
   1410372.72049   1080992.22748  21474078.1174   21474074.3954
     -1697.9224
  -1702477.79049  -1312263.94248  21358933.4694   21358931.9574
      2067.7194
 04  9  7 21  9 15.0000000  0  6G 3G 8G13G16G23G27
  -1719203.85549  -1323977.17447  23057188.5554   23057187.2774
      1918.3594
  -2814516.43649  -2166456.32247  22788111.7344   22788111.8954
      3339.0474
   -680235.91849   -526791.03848  20115656.1254   20115653.2734
       725.6414
   2234223.29649   1711288.79347  23922615.5084   23922613.7344
     -2571.2974
   1435859.36049   1100851.92248  21478928.1724   21478924.2734
     -1700.1564
  -1733496.11549  -1336434.06148  21353030.9144   21353028.6914
      2068.2034
 04  9  7 21  9 30.0000000  0  6G 3G 8G13G16G23G27
  -1747943.53549  -1346371.73847  23051718.7424   23051718.3054
      1913.7194
  -2864606.80549  -2205487.77047  22778580.2974   22778580.1024
      3339.7034
   -691090.22149   -535248.94148  20113590.3674   20113587.5704
       721.7504
   2272793.30749   1741343.33847  23929954.0864   23929952.5864
     -2571.1874
   1461378.49849   1120736.93648  21483784.5314   21483780.7304
     -1702.3594
  -1764521.15249  -1360609.42148  21347127.4144   21347125.4454
      2068.5474
 04  9  7 21  9 45.0000000  0  6G 3G 8G13G16G23G27
  -1776615.96249  -1368713.86147  23046263.2034   23046262.5554
      1909.0164
  -2914711.54849  -2244530.38047  22769045.3594   22769045.3094
      3340.5944
   -701889.27649   -543663.80348  20111535.5084   20111532.3954
       717.8594
   2311358.20049   1771393.87647  23937292.8834   23937292.1914
     -2570.9534
   1486928.63249   1140646.11048  21488646.5004   21488642.3714
     -1704.5164
  -1795554.35949  -1384791.12348  21341221.3674   21341220.0514
      2068.9064
 04  9  7 21 10  0.0000000  0  6G 3G 8G13G16G23G27
  -1805214.56549  -1390998.45947  23040821.1414   23040820.9494
      1904.7034
  -2964823.99849  -2283579.03247  22759509.5004   22759508.7774
      3341.6094
   -712626.65549   -552030.59848  20109492.3984   20109489.2774
       714.3134
   2349924.04049   1801445.15147  23944632.8054   23944630.8754
     -2570.3914
   1512515.97149   1160584.26848  21493515.6414   21493511.1334
     -1706.4844
  -1826589.33149  -1408974.21448  21335315.7894   21335314.5164
      2069.6254
 04  9  7 21 10 15.0000000  0  6G 3G 8G13G16G23G27
  -1833748.07049  -1413232.33747  23035390.9774   23035390.1844
      1900.0474
  -3014953.31349  -2322640.82247  22749969.9454   22749969.2504
      3342.4224
   -723311.21049   -560356.22148  20107459.7034   20107456.4144
       710.5164
   2388481.50649   1831489.88947  23951969.3054   23951967.9064
     -2570.1724
   1538131.45249   1180544.36248  21498390.0314   21498385.7894
     -1708.7344
  -1857635.09549  -1433165.71548  21329408.1024   21329406.6254
      2070.0314
 04  9  7 21 10 30.0000000  0  6G 3G 8G13G16G23G27
  -1862211.03649  -1435411.25847  23029974.6414   23029975.7154
      1895.1724
  -3065094.05749  -2361711.49047  22740428.7664   22740428.0234
      3343.0944
   -733937.58949   -568636.52648  20105437.0554   20105434.4574
       706.5164
   2427035.42149   1861531.87947  23959306.0784   23959304.4574
     -2570.1254
   1563780.18749   1200530.37648  21503270.6954   21503266.9924
     -1710.9844
  -1888686.41549  -1457361.53748  21323499.3984   21323497.5004
      2070.3134
 04  9  7 21 10 45.0000000  0  6G 3G 8G13G16G23G27
  -1890599.59049  -1457532.17947  23024572.8674   23024573.6884
      1890.1564
  -3115242.71949  -2400788.35247  22730886.1094   22730885.2934
      3343.6724
   -744502.11749   -576868.62448  20103426.8524   20103423.7584
       702.3754
   2465589.13049   1891573.67247  23966644.1644   23966642.1294
     -2570.0474
   1589465.59649   1220544.95848  21508158.9614   21508154.4144
     -1713.5004
  -1919739.76649  -1481558.96248  21317590.0864   21317588.3554
      2070.2974
 04  9  7 21 11  0.0000000  0  7G 3G 8G13G16G23G27G19
  -1918919.05449  -1479599.27547  23019183.9774   23019183.8094
      1885.5784
  -3165404.59049  -2439875.49347  22721340.3524   22721339.5984
      3344.5474
   -755010.09649   -585056.67348  20101427.0164   20101424.2384
       698.5634
   2504136.80049   1921610.80347  23973977.0314   23973976.4304
     -2569.6874
   1615182.06349   1240583.74348  21513052.0394   21513048.5204
     -1715.5474
  -1950800.62849  -1505762.22648  21311679.2034   21311677.4064
      2070.8914
   -114093.88359    -78732.95557  24077494.7664   24077494.7194
      3437.6724
 04  9  7 21 11 15.0000000  0  7G 3G 8G13G16G23G27G19
  -1947168.52949  -1501611.83847  23013808.4844   23013808.2464
      1880.8134
  -3215579.18749  -2478972.54847  22711792.1804   22711791.9344
      3345.2034
   -765460.81149   -593200.09648  20099438.0704   20099435.4574
       694.5944
   2542678.83549   1951643.48047  23981312.2194   23981311.7544
     -2569.3594
   1640930.09049   1260647.11148  21517952.3524   21517948.2774
     -1717.8124
  -1981868.31649  -1529970.80548  21305767.1724   21305765.5554
      2071.2194
   -165666.89349   -118919.65947  24067680.7664   24067680.1334
      3438.5004
 04  9  7 21 11 30.0000000  0  7G 3G 8G13G16G23G27G19
  -1975344.47649  -1523567.11747  23008446.2734   23008446.5944
      1876.0164
  -3265763.21749  -2518076.96247  22702243.1024   22702241.7544
      3345.9694
   -775850.90049   -601296.25648  20097461.3204   20097458.4774
       690.7664
   2581218.06449   1981674.04547  23988646.4064   23988645.0434
     -2569.0784
   1666712.87349   1280737.56348  21522858.5004   21522854.5664
     -1719.8594
  -2012939.64949  -1554182.24248  21299854.6024   21299852.8794
      2071.6254
   -217250.42049   -159114.56047  24057865.1254   24057864.5434
      3439.3284
 04  9  7 21 11 45.0000000  0  7G 3G 8G13G16G23G27G19
  -2003449.24649  -1545466.90847  23003098.1804   23003099.1254
      1871.1094
  -3315958.99649  -2557190.54147  22692690.6724   22692689.7504
      3346.6094
   -786182.90449   -609347.16948  20095495.2504   20095492.5354
       686.7034
   2619751.68649   2011700.17346  23995978.0944   23995978.4614
     -2568.9374
   1692527.74149   1300853.01348  21527770.9534   21527766.8444
     -1722.2504
  -2044017.23049  -1578398.53748  21293940.6334   21293938.7274
      2071.8284
   -268846.75349   -199319.40547  24048046.6174   24048046.0164
      3439.9534
 04  9  7 21 12  0.0000000  0  7G 3G 8G13G16G23G27G19
  -2031479.84149  -1567308.92447  22997764.4454   22997764.1524
      1866.5004
  -3366163.50449  -2596310.91647  22683137.0474   22683136.4844
      3347.4694
   -796453.86649   -617350.53248  20093540.6024   20093537.7854
       682.8594
   2658282.04649   2041723.83746  24003311.2894   24003309.3324
     -2568.3594
   1718377.38449   1320995.57848  21532689.8674   21532685.7664
     -1724.2504
  -2075098.17949  -1602617.45448  21288025.8834   21288024.4694
      2072.3754
   -320452.70449   -239531.81047  24038225.4924   24038225.0514
      3440.8754
 04  9  7 21 12 15.0000000  0  7G 3G 8G13G16G23G27G19
  -2059436.81249  -1589093.54547  22992444.0084   22992443.8244
      1861.6564
  -3416377.93449  -2635438.99447  22673580.8134   22673580.9144
      3348.3134
   -806664.55449   -625306.91648  20091597.8754   20091594.4924
       679.0004
   2696808.15949   2071744.12247  24010641.4924   24010640.4804
     -2568.0314
   1744260.85049   1341164.49648  21537615.5234   21537611.3404
     -1726.3594
  -2106183.49549  -1626839.77448  21282110.6884   21282109.4104
      2072.8134
   -372068.78949   -279752.06847  24028403.9384   24028403.1484
      3441.6564
 04  9  7 21 12 30.0000000  0  7G 3G 8G13G16G23G27G19
  -2087320.93149  -1610821.41647  22987138.1804   22987137.3594
      1856.5164
  -3466603.35549  -2674575.65647  22664024.0784   22664023.1604
      3348.7974
   -816815.76549   -633216.95348  20089665.9454   20089663.1334
       674.7664
   2735328.65849   2101760.09747  24017972.2194   24017971.6994
     -2567.8124
   1770177.12849   1361358.97348  21542546.9924   21542543.0784
     -1728.8124
  -2137273.92149  -1651066.08248  21276194.4064   21276192.8914
      2072.9534
   -423695.58249   -319980.66247  24018579.5634   24018577.9884
      3442.1094
 04  9  7 21 12 45.0000000  0  7G 3G 8G13G16G23G27G19
  -2115131.41749  -1632491.89447  22981845.9384   22981846.0004
      1851.6254
  -3516838.77849  -2713720.11747  22654464.6254   22654464.2074
      3349.3284
   -826906.85849   -641080.15248  20087745.7894   20087742.8674
       670.7504
   2773843.86449   2131771.90447  24025300.9924   24025300.4144
     -2567.4064
   1796126.56149   1381579.28148  21547484.6484   21547480.8094
     -1731.0164
  -2168369.11549  -1675296.10048  21270276.9924   21270275.6684
      2073.1254
   -475332.03249   -360216.79747  24008753.4844   24008752.1644
      3442.7664
 04  9  7 21 13  0.0000000  0  7G 3G 8G13G16G23G27G19
  -2142868.58949  -1654105.25347  22976567.0004   22976568.0664
      1846.9844
  -3567084.71749  -2752872.77047  22644902.9614   22644902.1414
      3350.2664
   -836938.24849   -648896.82348  20085836.9064   20085834.0314
       666.9694
   2812352.84449   2161778.85747  24032628.7034   24032629.0234
     -2566.8444
   1822108.55549   1401824.96548  21552429.1024   21552425.0634
     -1732.9844
  -2199469.50749  -1699530.16548  21264359.2114   21264357.2304
      2073.7504
   -526978.32349   -400460.59347  23998924.8364   23998923.6724
      3443.5634
 04  9  7 21 13 15.0000000  0  7G 3G 8G13G16G23G27G19
  -2170533.20049  -1675662.09247  22971302.8674   22971302.6644
      1842.0314
  -3617342.29449  -2792034.48747  22635339.1334   22635338.2544
      3351.0474
   -846911.07449   -656667.85848  20083938.9694   20083935.8984
       662.9694
   2850854.13049   2191779.82747  24039956.7894   24039955.0864
     -2566.3754
   1848121.81349   1422095.00848  21557379.4614   21557375.3164
     -1735.1094
  -2230576.35049  -1723769.26948  21258439.6954   21258438.1334
      2074.0634
   -578635.21649   -440712.62947  23989095.0634   23989094.4454
      3444.1724
 04  9  7 21 13 30.0000000  0  7G 3G 8G13G16G23G27G19
  -2198123.41949  -1697160.94647  22966052.8364   22966052.7814
      1836.7034
  -3667609.98349  -2831204.09847  22625773.4384   22625773.1334
      3351.2664
   -856823.45249   -664391.79948  20082052.9614   20082049.8674
       658.6254
   2889349.19149   2221775.94947  24047281.5394   24047281.3284
     -2566.3284
   1874167.96949   1442390.68648  21562335.9694   21562332.0784
     -1737.6254
  -2261687.92049  -1748012.04948  21252519.3444   21252517.5744
      2074.1254
   -630300.76449   -480971.47447  23979263.7974   23979262.7154
      3444.4224
 04  9  7 21 13 45.0000000  0  7G 3G 8G13G16G23G27G19
  -2225639.04849  -1718601.65747  22960816.2734   22960816.2034
      1832.1564
  -3717887.62549  -2870381.42247  22616206.3364   22616205.3134
      3352.3914
   -866675.21749   -672068.50548  20080177.9924   20080175.5594
       654.9534
   2927837.71349   2251766.95147  24054605.6724   24054605.2424
     -2565.4224
   1900246.81149   1462711.83448  21567298.5314   21567294.5554
     -1739.4694
  -2292804.21049  -1772258.50448  21246597.9844   21246596.5164
      2074.7974
   -681974.62249   -521236.70947  23969430.2974   23969429.7544
      3445.3594
 04  9  7 21 14  0.0000000  0  7G 3G 8G13G16G23G27G19
  -2253083.43549  -1739986.88047  22955594.8134   22955593.6334
      1827.0004
  -3768178.74249  -2909569.28947  22606635.4384   22606635.1484
      3353.0004
   -876469.86549   -679700.70848  20078314.1804   20078311.2194
       650.8444
   2966315.67549   2281749.76547  24061928.3914   24061927.1844
     -2565.0314
   1926354.75249   1483055.65548  21572267.0394   21572262.4924
     -1741.6874
  -2323928.83549  -1796511.46448  21240675.2114   21240673.4774
      2075.0314
   -733659.82349   -561510.85347  23959595.3284   23959593.8714
      3445.8444
 04  9  7 21 14 15.0000000  0  7G 3G 8G13G16G23G27G19
  -2280452.48649  -1761313.41847  22950386.9384   22950385.4184
      1821.9384
  -3818479.25249  -2948764.45547  22597063.8134   22597063.4344
      3353.5164
   -886203.51949   -687285.36748  20076461.8444   20076458.8954
       646.7194
   3004786.73149   2311727.14647  24069249.3674   24069247.4844
     -2564.6724
   1952495.42249   1503424.99048  21577241.1644   21577237.0394
     -1743.9694
  -2355057.83849  -1820767.83148  21234751.4454   21234749.6334
      2075.2504
   -785352.27449   -601790.58947  23949759.0314   23949757.3984
      3446.1414
 04  9  7 21 14 30.0000000  0  7G 3G 8G13G16G23G27G19
  -2307745.39449  -1782580.59547  22945192.2974   22945192.6334
      1816.7194
  -3868788.59849  -2987966.50247  22587490.0314   22587489.6884
      3353.8754
   -895875.44249   -694821.94148  20074621.5394   20074618.3634
       642.4384
   3043251.17749   2341699.44547  24076568.0554   24076567.3244
     -2564.3594
   1978669.46449   1523820.32248  21582221.9924   21582217.9804
     -1746.4064
  -2386190.62049  -1845027.12748  21228827.1094   21228825.7464
      2075.2814
   -837050.84849   -642075.14247  23939920.4924   23939919.4964
      3446.5314
 04  9  7 21 14 45.0000000  0  7G 3G 8G13G16G23G27G19
  -2334957.79249  -1803785.04947  22940014.0234   22940014.2074
      1811.6094
  -3919102.69649  -3027172.26947  22577915.9224   22577915.4024
      3354.5784
   -905481.39149   -702307.10148  20072793.7664   20072790.8874
       638.3134
   3081712.83849   2371669.54347  24083887.7274   24083886.8444
     -2563.8594
   2004880.81949   1544244.72748  21587210.0944   21587206.0314
     -1748.5004
  -2417323.17149  -1869286.26248  21222903.1564   21222901.4694
      2075.6564
   -888751.07749   -682360.97847  23930082.1024   23930080.7114
      3446.8914
 04  9  7 21 15  0.0000000  0  7G 3G 8G13G16G23G27G19
  -2362093.81149  -1824929.97747  22934850.3914   22934849.9414
      1806.2034
  -3969425.67249  -3066384.95347  22568339.7274   22568339.1374
      3354.9384
   -915025.71549   -709744.24248  20070977.3914   20070974.0594
       633.8914
   3120166.97149   2401633.77347  24091204.4144   24091204.0474
     -2563.7194
   2031124.96149   1564694.68848  21592204.1724   21592199.9414
     -1751.0624
  -2448459.82349  -1893548.58648  21216978.0314   21216976.1524
      2075.6414
   -940456.95449   -722651.21747  23920243.2894   23920241.7664
      3446.9694
 04  9  7 21 15 15.0000000  0  7G 3G 8G13G16G23G27G19
  -2389150.79449  -1846013.32947  22929700.7974   22929700.8524
      1801.3284
  -4019755.06549  -3105602.64247  22558762.5474   22558761.5704
      3355.6724
   -924505.70649   -717131.24548  20069173.3754   20069170.1484
       629.9844
   3158615.78549   2431593.83547  24098520.7734   24098521.1254
     -2562.8594
   2057404.30749   1585172.07148  21597205.0394   21597200.4964
     -1752.9374
  -2479598.14349  -1917812.20948  21211052.1484   21211050.5594
      2076.1094
   -992165.74749   -762943.70747  23910403.0234   23910401.3204
      3447.5164
 04  9  7 21 15 30.0000000  0  7G 3G 8G13G16G23G27G19
  -2416129.28749  -1867035.52847  22924567.1334   22924567.8014
      1795.5784
  -4070091.79049  -3144826.02147  22549183.3054   22549182.7894
      3355.7504
   -933922.14149   -724468.74048  20067381.5704   20067378.6094
       625.3594
   3197058.11549   2461548.88547  24105836.8444   24105836.3674
     -2562.9374
   2083717.89349   1605676.13548  21602212.5164   21602208.2344
     -1755.6414
  -2510738.92149  -1942077.74248  21205126.6094   21205124.9804
      2075.8594
  -1043877.83949   -803238.76847  23900562.3284   23900560.9184
      3447.3444
 04  9  7 21 15 45.0000000  0  7G 3G 8G13G16G23G27G19
  -2443025.60949  -1887993.67747  22919449.2894   22919449.7384
      1790.4534
  -4120431.95249  -3184052.08847  22539604.0084   22539603.1214
      3356.2344
   -943271.25649   -731753.78048  20065601.9064   20065599.2584
       621.1414
   3235497.31449   2491501.47346  24113151.0394   24113151.3404
     -2562.3914
   2110069.23649   1626209.61748  21607226.8204   21607222.7854
     -1757.9064
  -2541878.58549  -1966342.41148  21199200.9224   21199198.8954
      2076.1414
  -1095589.07849   -843533.16847  23890722.1884   23890721.3244
      3447.4384
 04  9  7 21 16  0.0000000  0  7G 3G 8G13G16G23G27G19
  -2469844.20949  -1908891.26147  22914345.8594   22914345.8524
      1785.1094
  -4170780.47849  -3223284.68647  22530022.7584   22530022.1454
      3356.6724
   -952557.89749   -738990.12348  20063835.1954   20063832.5944
       616.8284
   3273928.19449   2521447.58346  24120463.9844   24120464.0664
     -2561.9224
   2136453.38249   1646768.66548  21612247.4144   21612243.3674
     -1760.1414
  -2573021.91349  -1990609.93648  21193274.6484   21193272.4774
      2076.2034
  -1147304.14349   -883830.58247  23880880.6414   23880879.8834
      3447.7034
 04  9  7 21 16 15.0000000  0  7G 3G 8G13G16G23G27G19
  -2496581.90449  -1929725.84147  22909258.0394   22909256.9804
      1780.2814
  -4221134.43049  -3262521.50247  22520440.6644   22520440.7114
      3357.6414
   -961778.87349   -746175.30148  20062080.6174   20062077.6564
       613.0784
   3312353.53649   2551389.31046  24127776.0004   24127776.0704
     -2561.0314
   2162873.16549   1667355.47948  21617274.5864   21617270.6644
     -1762.0004
  -2604165.90449  -2014877.97448  21187348.0784   21187346.0204
      2076.7664
  -1199019.48849   -924128.17447  23871039.9534   23871038.6134
      3448.2034
 04  9  7 21 16 30.0000000  0  6G 3G 8G13G23G27G19
  -2523238.23649  -1950496.99947  22904185.6024   22904184.1804
      1774.4534
  -4271493.52949  -3301762.31447  22510857.9144   22510857.3714
      3357.5634
   -970933.82349   -753309.03148  20060337.9774   20060335.1414
       608.2504
   2189328.83349   1687970.25648  21622309.0634   21622304.9224
     -1764.8124
  -2635310.40349  -2039146.40448  21181421.0234   21181419.4104
      2076.4064
  -1250734.55649   -964425.56947  23861198.2974   23861197.0434
      3447.7664
 04  9  7 21 16 44.9990000  0  6G 3G 8G13G23G27G19
  -2549809.96549  -1971202.22247  22899129.1904   22899128.4294
      1768.5474
  -4321852.94549  -3341003.39247  22501275.0974   22501274.0584
      3357.4064
   -980020.86249   -760389.85848  20058609.4484   20058606.5624
       603.3444
   2215819.56449   1708612.35248  21627350.4404   21627346.4294
     -1767.6564
  -2666452.06949  -2063412.64248  21175495.4334   21175493.3514
      2076.0474
  -1302444.42949  -1004718.92147  23851358.9094   23851357.3354
      3447.2504
 04  9  7 21 16 59.9990000  0  6G 3G 8G13G23G27G19
  -2576302.84549  -1991846.00347  22894087.6204   22894087.3474
      1763.3284
  -4372221.82449  -3380251.83647  22491690.1514   22491689.0114
      3357.9844
   -989043.56949   -767420.53748  20056892.1514   20056889.3944
       599.2664
   2242346.54449   1729282.70948  21632398.4874   21632394.7264
     -1769.8284
  -2697597.46749  -2087681.77448  21169568.3084   21169566.4254
      2076.3284
  -1354157.96549  -1045015.11247  23841517.1904   23841516.6084
      3447.4534
 04  9  7 21 17 14.9990000  0  6G 3G 8G13G23G27G19
  -2602714.04049  -2012426.15347  22889062.1984   22889061.1674
      1757.8284
  -4422596.11249  -3419504.50347  22482104.0814   22482103.1474
      3358.3284
   -998000.30849   -774399.81848  20055187.8864   20055184.7764
       594.7664
   2268908.63849   1749980.41148  21637453.0814   21637448.9644
     -1772.0164
  -2728743.65349  -2111951.52248  21163641.7534   21163640.1714
      2076.3754
  -1405870.40849  -1085310.47347  23831676.8554   23831675.8554
      3447.3134
 04  9  7 21 17 29.9990000  0  6G 3G 8G13G23G27G19
  -2629046.22049  -2032944.72547  22884050.7064   22884050.9094
      1752.5634
  -4472978.45049  -3458763.43747  22472516.5114   22472516.2304
      3358.8134
  -1006893.98949   -781329.97648  20053495.1124   20053492.5544
       590.5634
   2295502.75049   1770703.07448  21642513.8394   21642509.9094
     -1774.2344
  -2759893.61549  -2136224.20948  21157713.7374   21157711.8274
      2076.5164
  -1457584.33849  -1125606.99147  23821836.4404   23821834.5034
      3447.4064
 04  9  7 21 17 44.9990000  0  6G 3G 8G13G23G27G19
  -2655297.37049  -2053400.15047  22879055.6514   22879055.2724
      1747.2034
  -4523366.85549  -3498027.09047  22462927.9404   22462926.8944
      3359.2504
  -1015722.60749   -788209.42748  20051815.3784   20051812.4054
       586.1564
   2322130.69349   1791452.08848  21647580.6674   21647576.2884
     -1776.5164
  -2791045.33349  -2160498.27648  21151786.0194   21151784.1554
      2076.6564
  -1509297.44449  -1165902.87547  23811995.5584   23811994.3584
      3447.3284
 04  9  7 21 17 59.9990000  0  6G 3G 8G13G23G27G19
  -2681461.54249  -2073787.82147  22874077.0584   22874075.6204
      1741.5784
  -4573755.70949  -3537291.10747  22453339.2454   22453338.0934
      3359.4844
  -1024480.32349   -795033.61948  20050148.9484   20050146.0734
       581.7194
   2348797.94749   1812231.73848  21652655.5974   21652651.3314
     -1778.8914
  -2822193.32349  -2184769.43148  21145858.7764   21145856.9954
      2076.6414
  -1561003.73649  -1206193.44347  23802155.9254   23802154.4404
      3447.1094
 04  9  7 21 18 14.9990000  0  6G 3G 8G13G23G27G19
  -2707536.53749  -2094105.98947  22869113.8704   22869114.1634
      1735.2664
  -4624142.70349  -3576553.68447  22443750.5734   22443749.8664
      3358.9694
  -1033165.00949   -801800.90648  20048496.0654   20048493.1874
       576.4224
   2375506.62949   1833043.66848  21657737.8394   21657734.2184
     -1782.0624
  -2853335.44849  -2209036.00848  21139932.2844   21139930.8084
      2075.8284
  -1612700.79649  -1246476.81047  23792318.1444   23792317.5934
      3446.0634
 04  9  7 21 18 29.9990000  0  6G 3G 8G13G23G27G19
  -2733526.25149  -2114357.71947  22864168.5504   22864168.5224
      1730.1254
  -4674532.17049  -3615818.17747  22434161.6514   22434161.2374
      3359.7034
  -1041780.70749   -808514.44948  20046856.7924   20046853.8944
       572.4384
   2402252.40149   1853884.49048  21662827.5734   21662823.7374
     -1783.9064
  -2884475.71249  -2233301.15248  21134006.8394   21134004.7374
      2076.2814
  -1664392.43649  -1286755.95547  23782481.9334   23782480.1084
      3446.3594
 04  9  7 21 18 44.9990000  0  6G 3G 8G13G23G27G19
  -2759430.19249  -2134542.59947  22859239.4484   22859239.5304
      1724.7974
  -4724923.63049  -3655084.23247  22424573.0974   22424572.3704
      3360.2344
  -1050327.21449   -815174.05748  20045230.1594   20045227.0544
       568.1564
   2429035.40549   1874754.33348  21667924.1904   21667920.2144
     -1786.0624
  -2915614.00949  -2257564.75748  21128081.1514   21128079.0074
      2076.5164
  -1716077.82649  -1327030.22347  23772646.7844   23772645.1594
      3446.2504
 04  9  7 21 18 59.9990000  0  6G 3G 8G13G23G27G19
  -2785253.53649  -2154664.67847  22854325.7224   22854325.3904
      1718.5784
  -4775322.48849  -3694356.04447  22414982.7064   22414982.5894
      3359.8594
  -1058809.68349   -821783.79348  20043616.4724   20043613.0384
       563.0474
   2455850.06249   1895648.85248  21673026.4724   21673022.6834
     -1789.0314
  -2946755.75649  -2281831.04448  21122155.1444   21122153.6944
      2075.9224
  -1767762.06449  -1367303.59447  23762810.8154   23762809.6634
      3445.2034
 04  9  7 21 19 14.9990000  0  6G 3G 8G13G23G27G19
  -2810992.90849  -2174721.31447  22849427.4804   22849427.5694
      1713.1564
  -4825725.63049  -3733631.18447  22405390.6594   22405390.0264
      3360.3754
  -1067224.85849   -828341.07648  20042014.6514   20042012.0034
       558.7504
   2482699.39549   1916570.37548  21678136.2064   21678132.2534
     -1791.1414
  -2977897.80049  -2306097.57448  21116228.9804   21116227.2614
      2076.1094
  -1819441.64049  -1407573.35247  23752976.5974   23752975.8864
      3445.2974
 04  9  7 21 19 29.9990000  0  6G 3G 8G13G23G27G19
  -2836649.21949  -2194713.22047  22844545.2064   22844545.5894
      1707.7504
  -4876134.08649  -3772910.48347  22395798.3154   22395797.3864
      3360.8284
  -1075573.65549   -834846.64048  20040425.7304   20040423.3784
       554.4694
   2509582.25249   1937518.01948  21683251.6364   21683248.0074
     -1793.1874
  -3009041.13649  -2330365.09648  21110302.8864   21110300.7724
      2076.4064
  -1871117.22549  -1447839.97147  23743143.6674   23743141.5504
      3444.9534
 04  9  7 21 19 44.9990000  0  6G 3G 8G13G23G27G19
  -2862225.37749  -2214642.69847  22839678.1124   22839678.4094
      1702.0634
  -4926550.73549  -3812196.15347  22386204.3154   22386203.9174
      3361.0634
  -1083859.13149   -841302.86048  20038849.4804   20038846.5544
       549.9844
   2536495.51349   1958489.36748  21688373.2764   21688369.0034
     -1795.5164
  -3040188.82549  -2354636.01348  21104375.4254   21104373.7224
      2076.3444
  -1922791.57249  -1488105.65847  23733309.9334   23733308.8974
      3444.6564
 04  9  7 21 19 59.9990000  0  6G 3G 8G13G23G27G19
  -2887715.15649  -2234504.83347  22834827.1984   22834826.7534
      1696.1564
  -4976969.51749  -3851483.49147  22376610.0194   22376609.2024
      3361.0944
  -1092075.34549   -847705.11248  20037285.5654   20037283.0894
       545.1724
   2563445.03849   1979488.96648  21693501.6754   21693497.6634
     -1798.0474
  -3071334.85349  -2378905.65048  21098448.4644   21098447.1904
      2076.1094
  -1974458.20649  -1528365.32547  23723477.1284   23723476.5974
      3444.0164
 04  9  7 21 20 14.9990000  0  6G 3G 8G13G23G27G19
  -2913118.24849  -2254299.47047  22829993.5264   22829992.6554
      1691.3444
  -5027390.55349  -3890772.58447  22367015.0344   22367014.8784
      3362.2344
  -1100221.99849   -854053.15748  20035735.5894   20035732.2614
       541.4384
   2590430.78249   2000516.78648  21698636.6284   21698632.9914
     -1799.5944
  -3102479.20149  -2403173.96448  21092521.8704   21092520.1944
      2076.9064
  -2026116.64849  -1568618.60647  23713646.9334   23713646.2024
      3444.3444
 04  9  7 21 20 29.9990000  0  6G 3G 8G13G23G27G19
  -2938439.69749  -2274030.45747  22825175.7144   22825174.3234
      1685.5944
  -5077818.84349  -3930067.32447  22357419.0344   22357418.7534
      3362.4064
  -1108304.26649   -860351.03248  20034197.5734   20034195.1324
       536.9224
   2617447.26749   2021568.57148  21703777.9334   21703773.9094
     -1801.8754
  -3133627.05649  -2427445.01148  21086594.9644   21086592.8864
      2076.8754
  -2077771.85749  -1608869.39047  23703817.4874   23703816.1244
      3443.7504
 04  9  7 21 20 44.9990000  0  6G 3G 8G13G23G27G19
  -2963681.74549  -2293699.59447  22820372.1594   22820371.9834
      1680.2974
  -5128256.63349  -3969369.49347  22347821.2694   22347820.0194
      3362.9384
  -1116324.46749   -866600.54248  20032671.8554   20032668.6014
       532.7814
   2644492.07149   2042642.40748  21708924.6284   21708920.3514
     -1803.8124
  -3164780.94949  -2451720.76948  21080666.5734   21080664.5074
      2077.2504
  -2129425.89749  -1649119.25247  23693989.3624   23693987.3514
      3443.6564
 04  9  7 21 20 59.9990000  0  6G 3G 8G13G23G27G19
  -2988840.17349  -2313303.53447  22815584.0814   22815584.1714
      1673.9224
  -5178699.92349  -4008675.94047  22338222.0584   22338221.3004
      3362.5944
  -1124278.42849   -872798.44648  20031157.7764   20031154.9134
       527.6254
   2671569.08949   2063741.35448  21714076.9564   21714073.4804
     -1806.6414
  -3195936.75049  -2475998.01648  21074737.9174   21074735.8474
      2076.6414
  -2181074.24749  -1689364.69547  23684160.0344   23684158.6554
      3442.5314
 04  9  7 21 21 14.9990000  0  6G 3G 8G13G23G27G19
  -3013912.55949  -2332840.46247  22810812.7924   22810813.2334
      1668.9384
  -5229146.55249  -4047984.97347  22328621.9564   22328621.8784
      3363.4694
  -1132163.87149   -878942.94748  20029657.3084   20029654.2414
       523.6564
   2698680.26749   2084866.92448  21719236.2924   21719232.5114
     -1808.3124
  -3227092.20149  -2500274.97948  21068808.8234   21068807.2764
      2077.2504
  -2232714.41649  -1729603.73247  23674333.2144   23674332.2224
      3442.5474
 04  9  7 21 21 29.9990000  0  6G 3G 8G13G23G27G19
  -3038899.60149  -2352310.86747  22806058.2064   22806058.0074
      1662.6564
  -5279597.20349  -4087297.12847  22319021.4334   22319021.5114
      3363.2344
  -1139981.59049   -885034.68248  20028169.7454   20028166.8154
       518.6884
   2725824.70849   2106018.39348  21724401.3784   21724397.6904
     -1810.9534
  -3258248.27149  -2524552.43248  21062879.9804   21062878.2144
      2076.8134
  -2284346.82949  -1769836.74147  23664508.2144   23664507.1754
      3441.6884
 04  9  7 21 21 44.9990000  0  6G 3G 8G13G23G27G19
  -3063805.18249  -2371717.78647  22801318.9094   22801318.7144
      1657.5944
  -5330055.79849  -4126615.49947  22309420.4644   22309419.6124
      3364.1564
  -1147735.57949   -891076.76648  20026694.1514   20026691.2844
       514.7664
   2752998.18449   2127192.49748  21729572.3084   21729568.4054
     -1812.5474
  -3289408.95949  -2548833.47948  21056950.4954   21056948.8314
      2077.4384
  -2335975.08449  -1810066.52047  23654683.2924   23654681.3394
      3441.5784
 04  9  7 21 21 59.9990000  0  6G 3G 8G13G23G27G19
  -3088625.44649  -2391058.25947  22796596.4094   22796594.6594
      1651.8594
  -5380518.86049  -4165937.33247  22299817.3554   22299816.2304
      3364.4064
  -1155422.08449   -897066.24548  20025231.5194   20025228.4174
       510.2034
   2780204.24649   2148391.99548  21734749.8474   21734746.0544
     -1814.7974
  -3320570.76249  -2573115.40148  21051020.6904   21051018.7224
      2077.4844
  -2387595.20049  -1850289.95447  23644859.6364   23644859.1324
      3441.0944
 04  9  7 21 22 14.9990000  0  6G 3G 8G13G23G27G19
  -3113359.97849  -2410331.93147  22791889.6054   22791887.4684
      1645.7974
  -5430986.09649  -4205262.43847  22290213.1904   22290212.5224
      3364.3444
  -1163040.83149   -903002.94548  20023781.5734   20023778.6984
       505.4224
   2807443.05249   2169616.99448  21739932.9724   21739928.9914
     -1817.2974
  -3351733.24849  -2597397.85648  21045090.5504   21045088.7264
      2077.3134
  -2439206.62849  -1890506.60747  23635038.8084   23635037.6514
      3440.2814
 04  9  7 21 22 29.9990000  0  6G 3G 8G13G23G27G19
  -3138009.07549  -2429539.01647  22787198.3864   22787197.6054
      1640.4384
  -5481457.84649  -4244591.05547  22280609.1904   22280608.3434
      3364.9384
  -1170592.20249   -908887.13948  20022344.6674   20022341.3314
       501.1724
   2834713.96049   2190867.01948  21745122.5264   21745119.1714
     -1819.1254
  -3382897.02949  -2621681.31548  21039160.1364   21039158.2304
      2077.6724
  -2490809.51549  -1930716.60147  23625219.2144   23625217.6714
      3439.8444
 04  9  7 21 22 44.9990000  0  6G 3G 8G13G23G27G19
  -3162570.04849  -2448677.41847  22782524.1514   22782524.9444
      1634.5784
  -5531931.68149  -4283921.27147  22271004.0734   22271003.4014
      3365.2194
  -1178073.66849   -914716.86848  20020921.0814   20020918.0974
       496.5634
   2862019.25749   2212143.84448  21750318.5264   21750314.8044
     -1821.2814
  -3414059.60249  -2645963.82648  21033230.2224   21033228.8194
      2077.6564
  -2542401.08549  -1970917.77847  23615401.6594   23615399.7614
      3439.2034
 04  9  7 21 22 59.9990000  0  6G 3G 8G13G23G27G19
  -3187045.72749  -2467749.36647  22777866.1204   22777867.3624
      1628.6254
  -5582410.54849  -4323255.44347  22261398.3624   22261397.5654
      3365.1414
  -1185488.12049   -920494.36448  20019509.9334   20019507.3044
       491.7974
   2889355.84949   2233445.04448  21755520.2224   21755517.1324
     -1823.7194
  -3445223.92949  -2670247.72548  21027299.9484   21027297.7264
      2077.4534
  -2593983.86249  -2011112.09047  23605585.6674   23605584.2304
      3438.3444
 04  9  7 21 23 14.9990000  0  6G 3G 8G13G23G27G19
  -3211434.76949  -2486753.79947  22773225.8474   22773226.5654
      1623.0944
  -5632893.12949  -4362592.48747  22251791.5504   22251790.4644
      3365.7034
  -1192834.30149   -926218.65948  20018111.9484   20018109.5154
       487.5784
   2916724.77749   2254771.44248  21760728.5114   21760724.8124
     -1825.6094
  -3476388.89549  -2694532.09448  21021369.1204   21021367.5654
      2077.7814
  -2645556.17049  -2051298.28447  23595771.9094   23595771.0384
      3438.0314
 04  9  7 21 23 29.9990000  0  6G 3G 8G13G23G27G19
  -3235736.47249  -2505690.18947  22768600.9874   22768601.6594
      1617.3594
  -5683378.92749  -4401932.04147  22242184.7064   22242183.4174
      3366.0314
  -1200111.64449   -931889.32748  20016727.3704   20016724.4214
       483.0004
   2944126.37149   2276123.29948  21765942.9254   21765939.2454
     -1827.5944
  -3507553.90149  -2718816.51948  21015438.9174   21015436.9444
      2077.8914
  -2697117.21449  -2091475.65247  23585959.7224   23585957.9094
      3437.3134
 04  9  7 21 23 44.9990000  0  6G 3G 8G13G23G27G19
  -3259959.04449  -2524564.90447  22763992.3084   22763992.2374
      1612.0634
  -5733876.30249  -4441280.62147  22232575.0584   22232574.6284
      3366.7344
  -1207328.51649   -937512.85848  20015353.8084   20015351.5034
       478.9844
   2971552.14049   2297493.98748  21771162.2764   21771158.3194
     -1829.2974
  -3538727.50549  -2743107.63948  21009506.8314   21009505.0224
      2078.3914
  -2748675.11549  -2131650.60347  23576148.7614   23576147.6204
      3437.0004
 04  9  7 21 23 59.9990000  0  6G 3G 8G13G23G27G19
  -3284102.14649  -2543377.69847  22759398.1594   22759396.9444
      1606.6094
  -5784384.91549  -4480637.95247  22222963.7374   22222962.8004
      3367.3284
  -1214484.82049   -943089.20348  20013992.2374   20013989.0974
       474.8284
   2999002.09349   2318883.53248  21776386.2144   21776382.2964
     -1831.0624
  -3569909.37649  -2767405.18948  21003573.0424   21003571.4564
      2078.8444
  -2800229.25149  -2171822.61547  23566338.2144   23566337.2454
      3436.5004
 04  9  7 21 24 14.9990000  0  6G 3G 8G13G23G27G19
  -3308158.80249  -2562123.13247  22754820.3004   22754818.5424
      1601.0784
  -5834897.96749  -4519998.73347  22213350.9564   22213350.1404
      3367.7664
  -1221573.39849   -948612.79248  20012643.2064   20012640.7614
       470.4224
   3026482.95349   2340297.15348  21781615.4014   21781611.2804
     -1832.9224
  -3601092.80849  -2791703.96148  20997639.1204   20997637.2654
      2079.0634
  -2851772.43249  -2211986.07847  23556529.8394   23556528.9294
      3436.0164
 04  9  7 21 24 29.9990000  0  6G 3G 8G13G23G27G19
  -3332130.42949  -2580802.31547  22750257.8944   22750256.7964
      1595.0314
  -5885417.09649  -4559364.26947  22203737.7064   22203736.8554
      3367.9534
  -1228595.77449   -954084.76748  20011307.1124   20011304.1324
       465.6724
   3053993.00349   2361733.52448  21786850.5654   21786846.4294
     -1835.2034
  -3632279.40549  -2816005.21148  20991704.3394   20991702.6204
      2078.9534
  -2903305.82249  -2252141.92647  23546722.9254   23546722.1554
      3435.0004
 04  9  7 21 24 44.9990000  0  6G 3G 8G13G23G27G19
  -3356018.61749  -2599416.47747  22745712.0344   22745711.3624
      1589.6884
  -5935943.86149  -4598735.74147  22194122.5424   22194122.1834
      3368.6094
  -1235553.73849   -959506.56348  20009982.8864   20009980.0934
       461.5944
   3081530.29949   2383191.13048  21792091.1124   21792086.9604
     -1836.8284
  -3663470.89549  -2840310.26048  20985768.7764   20985767.0694
      2079.5004
  -2954830.90749  -2292291.29447  23536918.7534   23536916.3944
      3434.5944
 04  9  7 21 24 59.9990000  0  6G 3G 8G13G23G27G19
  -3379820.90249  -2617963.69847  22741182.4404   22741182.5464
      1583.5944
  -5986475.87849  -4638111.31947  22184507.1904   22184506.7414
      3368.7504
  -1242444.87349   -964876.28948  20008671.8004   20008668.6244
       456.9534
   3109096.96849   2404671.61348  21797336.3554   21797332.8234
     -1839.0004
  -3694664.89949  -2864617.27448  20979832.9724   20979831.0974
      2079.5004
  -3006345.09349  -2332432.18447  23527116.0344   23527114.0774
      3433.6884
 04  9  7 21 25 14.9990000  0  6G 3G 8G13G23G27G19
  -3403535.99749  -2636442.97647  22736670.1674   22736670.1084
      1578.5474
  -6037012.30149  -4677490.31547  22174890.3864   22174889.2024
      3369.5944
  -1249267.95149   -970192.97748  20007373.3314   20007370.7454
       453.0474
   3136694.03449   2426175.78448  21802587.6124   21802583.9254
     -1840.4064
  -3725860.30049  -2888925.37348  20973896.5894   20973894.5814
      2080.1564
  -3057846.75049  -2372563.29547  23517314.9404   23517312.9524
      3433.3284
 04  9  7 21 25 29.9990000  0  6G 3G 8G13G23G27G19
  -3427167.56849  -2654857.17647  22732172.9724   22732173.0264
      1572.5314
  -6087556.76749  -4716875.59447  22165272.0264   22165270.5464
      3369.8134
  -1256026.73949   -975459.56948  20006087.1284   20006084.2724
       448.3134
   3164317.60349   2447700.60548  21807844.4804   21807840.8314
     -1842.5004
  -3757061.01149  -2913237.60948  20967959.0654   20967957.5774
      2080.1094
  -3109339.27249  -2412687.29247  23507516.0814   23507515.1324
      3432.4694
 04  9  7 21 25 44.9990000  0  6G 3G 8G13G23G27G19
  -3450714.92049  -2673205.75347  22727692.6834   22727692.1794
      1567.0784
  -6138108.69249  -4756266.68447  22155652.2144   22155650.9684
      3370.4384
  -1262720.79349   -980675.71448  20004813.2844   20004810.2724
       444.1724
   3191967.97149   2469246.31748  21813105.8474   21813102.5114
     -1844.1874
  -3788266.44249  -2937553.52448  20962021.1984   20962019.2414
      2080.5634
  -3160821.83149  -2452803.52147  23497719.3474   23497717.2924
      3431.9224
 04  9  7 21 25 59.9990000  0  6G 3G 8G13G23G27G19
  -3474175.51049  -2691486.71547  22723228.3394   22723226.6204
      1560.8914
  -6188665.43649  -4795661.51947  22146031.3084   22146030.5654
      3370.3284
  -1269347.63649   -985839.50248  20003552.3004   20003549.3474
       439.2344
   3219647.34049   2490814.61848  21818373.2764   21818369.8234
     -1846.5314
  -3819474.32649  -2961871.35248  20956082.2064   20956080.8474
      2080.3134
  -3212291.74049  -2492909.89447  23487925.4644   23487923.5504
      3430.5784
 04  9  7 21 26 14.9990000  0  6G 3G 8G13G23G27G19
  -3497546.57449  -2709697.91047  22718780.3704   22718778.7654
      1554.8754
  -6239224.60949  -4835058.25447  22136410.1834   22136409.4334
      3370.5004
  -1275904.58449   -990948.81848  20002304.7764   20002301.9684
       434.6094
   3247358.13549   2512407.40648  21823646.7064   21823642.8664
     -1848.7034
  -3850682.12249  -2986189.11648  20950143.6124   20950141.7064
      2080.2814
  -3263746.12849  -2533004.17647  23478133.7924   23478132.5774
      3429.5004
 04  9  7 21 26 29.9990000  0  6G 3G 8G13G23G27G19
  -3520825.95849  -2727837.68847  22714350.6904   22714348.7964
      1548.7974
  -6289784.15849  -4874455.28947  22126789.5114   22126788.2064
      3370.5004
  -1282389.55549   -996002.04848  20001070.4404   20001067.6754
       429.8594
   3275102.21349   2534026.12348  21828925.9644   21828922.1874
     -1850.8284
  -3881887.64649  -3010505.10448  20944205.4094   20944203.7104
      2080.1884
  -3315182.48049  -2573084.40847  23468345.5504   23468343.9564
      3428.2194
 04  9  7 21 26 44.9990000  0  6G 3G 8G13G23G27G19
  -3544017.36049  -2745908.88147  22709937.5584   22709936.1834
      1543.3134
  -6340347.81449  -4913855.49847  22117167.1594   22117166.8124
      3371.1564
  -1288806.29249  -1001002.10948  19999849.4254   19999846.6904
       425.6414
   3302875.74049   2555667.79948  21834211.2694   21834208.0694
     -1852.4374
  -3913094.88449  -3034822.42548  20938266.9404   20938264.6754
      2080.6724
  -3366604.27449  -2613153.26247  23458560.3704   23458558.4764
      3427.7194
 04  9  7 21 26 59.9990000  0  6G 3G 8G13G23G27G19
  -3567122.05849  -2763912.55347  22705540.9484   22705540.7844
      1537.2814
  -6390917.08349  -4953260.11147  22107544.1124   22107543.0464
      3371.4844
  -1295156.30549  -1005950.17748  19998641.0814   19998638.5854
       420.9534
   3330677.00649   2577331.08848  21839501.5264   21839497.8784
     -1854.5164
  -3944305.11949  -3059142.09148  20932327.9874   20932325.9564
      2080.6414
  -3418012.63449  -2653211.68747  23448777.1124   23448775.2064
      3426.6724
 04  9  7 21 27 14.9990000  0  6G 3G 8G13G23G27G19
  -3590137.14749  -2781846.37547  22701161.3864   22701161.0424
      1531.7504
  -6441489.00249  -4992666.78447  22097920.6594   22097920.0194
      3371.8594
  -1301436.67049  -1010843.96948  19997446.1124   19997442.8154
       416.6884
   3358508.61349   2599018.02048  21844797.6904   21844794.0194
     -1856.0624
  -3975515.70649  -3083462.01948  20926388.7224   20926386.6634
      2081.1254
  -3469404.35849  -2693257.14947  23438998.0344   23438996.3084
      3425.9694
 04  9  7 21 27 29.9990000  0  6G 3G 8G13G23G27G19
  -3613070.92649  -2799716.82047  22696796.7534   22696796.5264
      1525.6254
  -6492071.85649  -5032081.95647  22088294.8554   22088293.8824
      3372.0314
  -1307655.76549  -1015690.03348  19996262.5894   19996260.0264
       412.0164
   3386362.03249   2620721.95248  21850098.1514   21850094.6084
     -1858.1254
  -4006735.08349  -3107788.80448  20920447.8154   20920445.9804
      2081.0474
  -3520787.60749  -2733295.97347  23429219.6904   23429218.5504
      3424.6884
 04  9  7 21 27 44.9990000  0  6G 3G 8G13G23G27G19
  -3635911.47549  -2817514.66247  22692450.3394   22692450.2264
      1519.8754
  -6542654.08249  -5071496.65147  22078669.4254   22078668.5194
      3372.4694
  -1313801.74749  -1020479.10948  19995093.1444   19995090.1834
       407.5784
   3414248.86849   2642451.91048  21855405.3084   21855401.0694
     -1859.9064
  -4037951.46349  -3132113.25048  20914507.3084   20914505.1404
      2081.2664
  -3572150.17449  -2773318.72747  23419445.9094   23419443.9914
      3423.8444
 04  9  7 21 27 59.9990000  0  6G 3G 8G13G23G27G19
  -3658666.76149  -2835246.03347  22688119.5424   22688120.4764
      1514.2664
  -6593243.69449  -5110917.09747  22069042.5114   22069041.8234
      3372.9384
  -1319882.67249  -1025217.50548  19993935.7764   19993933.0694
       403.2814
   3442160.82349   2664201.44948  21860716.2064   21860712.5154
     -1861.5624
  -4069173.08149  -3156441.77648  20908566.3084   20908564.3824
      2081.6564
  -3623499.83649  -2813331.37447  23409673.8154   23409673.3584
      3423.0004
 04  9  7 21 28 14.9990000  0  6G 3G 8G13G23G27G19
  -3681334.96249  -2852909.53947  22683806.6054   22683806.7334
      1508.2664
  -6643838.94049  -5150341.92947  22059414.9334   22059413.9834
      3373.2504
  -1325896.94849  -1029903.96848  19992791.5194   19992788.3154
       398.7504
   3470099.44249   2685971.77648  21866032.8554   21866029.4054
     -1863.4844
  -4100398.24249  -3180773.06148  20902624.3314   20902622.5854
      2081.7664
  -3674834.58749  -2853332.42547  23399905.3234   23399904.1124
      3421.8134
 04  9  7 21 28 29.9990000  0  6G 3G 8G13G23G27G19
  -3703911.70249  -2870501.80647  22679510.3704   22679510.0974
      1502.2344
  -6694435.55349  -5189767.82647  22049785.7924   22049785.5624
      3373.3284
  -1331840.16449  -1034535.04048  19991660.4404   19991657.6834
       394.0004
   3498068.87049   2707766.08448  21871355.2224   21871352.2104
     -1865.5474
  -4131622.50749  -3205103.66348  20896682.3154   20896680.1714
      2081.7814
  -3726149.75249  -2893318.22647  23390139.9174   23390138.6284
      3420.4064
 04  9  7 21 28 44.9990000  0  6G 3G 8G13G23G27G19
  -3726396.64849  -2888022.50447  22675231.4874   22675231.1714
      1496.1094
  -6745033.32849  -5229194.63947  22040157.8864   22040156.9834
      3373.4064
  -1337712.03049  -1039110.52848  19990543.0194   19990540.4524
       389.2344
   3526069.11549   2729584.43148  21876683.9404   21876680.1594
     -1867.5314
  -4162845.75649  -3229433.45148  20890740.8474   20890739.0424
      2081.6884
  -3777444.81349  -2933288.35647  23380379.7144   23380378.1834
      3419.2194
 04  9  7 21 28 59.9990000  0  6G 3G 8G13G23G27G19
  -3748793.30049  -2905474.43747  22670969.8704   22670969.3194
      1490.2814
  -6795635.73949  -5268625.06648  22030528.9484   22030528.0194
      3373.8914
  -1343516.17349  -1043633.24548  19989438.3624   19989435.7224
       384.8754
   3554096.42449   2751423.85148  21882017.0814   21882013.6904
     -1869.1724
  -4194071.76749  -3253765.40148  20884798.6284   20884797.3664
      2082.0004
  -3828723.04749  -2973245.36647  23370621.2694   23370619.6754
      3418.0944
 04  9  7 21 29 14.9990000  0  6G 3G 8G13G23G27G19
  -3771097.54249  -2922854.35847  22666725.5424   22666724.4994
      1483.9224
  -6846238.67649  -5308055.90147  22020899.3624   22020898.0774
      3373.6254
  -1349248.47149  -1048099.96848  19988347.7454   19988344.9444
       379.7814
   3582154.59449   2773287.32848  21887356.1054   21887353.1014
     -1871.5164
  -4225296.42749  -3278096.30148  20878856.6984   20878854.8584
      2081.6254
  -3879980.13949  -3013185.90747  23360867.3704   23360865.5934
      3416.5474
 04  9  7 21 29 29.9990000  0  6G 3G 8G13G23G27G19
  -3793312.88549  -2940165.00947  22662498.6594   22662496.9724
      1478.1094
  -6896846.01549  -5347490.16047  22011268.4254   22011267.7184
      3374.1094
  -1354912.72949  -1052513.68348  19987269.4874   19987266.8944
       375.4224
   3610239.69949   2795171.78548  21892700.9174   21892697.4404
     -1873.0944
  -4256523.45549  -3302429.05448  20872914.5654   20872912.2064
      2081.9384
  -3931219.34349  -3053112.50547  23351117.6054   23351115.1594
      3415.3134
 04  9  7 21 29 44.9990000  0  6G 3G 8G13G23G27G19
  -3815437.41749  -2957404.89247  22658287.6984   22658286.7494
      1471.7974
  -6947455.92249  -5386926.42647  22001638.4804   22001637.1594
      3373.9844
  -1360507.14349  -1056872.98848  19986205.0584   19986202.3154
       370.5314
   3638353.39949   2817078.52948  21898051.0344   21898047.2304
     -1875.2814
  -4287751.13449  -3326762.30848  20866972.2224   20866970.1984
      2081.7344
  -3982438.61549  -3093023.58747  23341370.5584   23341368.8084
      3413.7974
 04  9  7 21 29 59.9990000  0  6G 3G 8G13G23G27G19
  -3837465.49749  -2974569.61547  22654095.1674   22654095.2804
      1465.2194
  -6998062.55449  -5426360.14147  21992007.7304   21992006.5694
      3373.7664
  -1366025.94849  -1061173.35848  19985155.1204   19985152.5384
       365.3754
   3666501.17049   2839011.82348  21903407.3084   21903403.3234
     -1877.7664
  -4318973.81449  -3351091.65548  20861030.6754   20861028.6874
      2081.3284
  -4033631.92249  -3132914.42947  23331628.6834   23331627.1834
      3411.9384
 04  9  7 21 30 14.9990000  0  6G 3G 8G13G23G27G19
  -3859393.75149  -2991656.54847  22649923.3784   22649922.4604
      1458.7664
  -7048662.76749  -5465788.86347  21982379.2374   21982378.2534
      3373.2344
  -1371465.98849  -1065412.35448  19984119.8234   19984116.9214
       360.0164
   3694685.98149   2860973.96648  21908771.0264   21908767.2494
     -1880.1254
  -4350188.35349  -3375414.67948  20855090.8624   20855088.9294
      2080.7344
  -4084795.80149  -3172782.34147  23321892.5734   23321890.9254
      3410.0314
 04  9  7 21 30 29.9990000  0  6G 3G 8G13G23G27G19
  -3881232.05349  -3008673.41747  22645767.2614   22645767.0934
      1452.8914
  -7099266.82549  -5505220.56148  21972749.7144   21972748.7494
      3373.6724
  -1376837.34649  -1069597.84248  19983097.4484   19983095.2844
       355.8134
   3722897.70949   2882957.09748  21914138.6984   21914135.8824
     -1881.7504
  -4381404.86949  -3399739.22448  20849150.5654   20849148.3194
      2081.1094
  -4135939.89549  -3212634.84147  23312160.3394   23312158.4334
      3408.8134
 04  9  7 21 30 44.9990000  0  6G 3G 8G13G23G27G19
  -3902979.74449  -3025619.64847  22641628.9094   22641628.9134
      1446.5004
  -7149874.06849  -5544654.75647  21963119.2454   21963118.3744
      3373.7034
  -1382139.20249  -1073729.17948  19982088.5654   19982085.7764
       350.8914
   3751136.66649   2904961.43948  21919512.8004   21919509.5384
     -1883.7974
  -4412622.76049  -3424064.84848  20843210.0264   20843208.0264
      2080.9224
  -4187063.30049  -3252471.21947  23302432.0734   23302430.0854
      3407.2814
 04  9  7 21 30 59.9990000  0  6G 3G 8G13G23G27G19
  -3924630.30849  -3042490.20247  22637508.7374   22637508.4564
      1440.0944
  -7200477.83049  -5584086.23547  21953489.8234   21953488.8194
      3373.4694
  -1387365.33949  -1077801.48948  19981094.6364   19981091.8084
       345.8444
   3779409.14249   2926991.91248  21924892.6124   21924889.3824
     -1885.9374
  -4443835.60049  -3448386.54148  20837270.2534   20837268.0344
      2080.6414
  -4238159.32549  -3292286.26647  23292708.5584   23292706.5504
      3405.5004
 04  9  7 21 31 14.9990000  0  6G 3G 8G13G23G27G19
  -3946189.31549  -3059289.41247  22633406.1124   22633405.7764
      1434.2194
  -7251083.90549  -5623519.51447  21943859.3624   21943858.3194
      3373.9224
  -1392521.29349  -1081819.12048  19980113.3084   19980110.2964
       341.4844
   3807709.38549   2949044.00948  21930278.3704   21930274.6714
     -1887.5314
  -4475049.09849  -3472708.73548  20831330.3554   20831328.8944
      2081.0164
  -4289233.15949  -3332084.00847  23282988.8554   23282987.5154
      3404.2504
 04  9  7 21 31 29.9990000  0  6G 3G 8G13G23G27G19
  -3967656.59649  -3076017.16847  22629321.2844   22629320.1284
      1427.7034
  -7301692.38249  -5662954.67747  21934229.5584   21934228.1124
      3373.7504
  -1397606.99149  -1085782.00848  19979145.2924   19979142.3124
       336.4224
   3836037.09049   2971117.51447  21935668.4484   21935665.5154
     -1889.6564
  -4506263.22849  -3497031.44148  20825390.6754   20825388.0774
      2080.7194
  -4340284.55349  -3371864.27847  23273273.8554   23273272.9604
      3402.4534
 04  9  7 21 31 44.9990000  0  6G 3G 8G13G23G27G19
  -3989027.54349  -3092669.83147  22625253.9334   22625253.3944
      1421.1884
  -7352298.42949  -5702387.92247  21924599.0114   21924598.1084
      3373.3594
  -1402617.98249  -1089686.68748  19978191.8394   19978189.1324
       331.3594
   3864396.54649   2993215.75848  21941065.9564   21941061.8274
     -1891.9534
  -4537473.52749  -3521351.14448  20819451.5264   20819449.6244
      2080.3134
  -4391308.63449  -3411623.26147  23263564.5194   23263563.3274
      3400.5004
 04  9  7 21 31 59.9990000  0  6G 3G 8G13G23G27G19
  -4010302.27549  -3109247.55147  22621206.1514   22621205.3194
      1415.3444
  -7402902.41249  -5741819.58147  21914969.5894   21914968.6554
      3373.7504
  -1407554.26349  -1093533.14748  19977252.3624   19977249.7724
       326.8754
   3892787.44949   3015338.50148  21946468.2694   21946464.6164
     -1893.5624
  -4568680.23649  -3545668.05548  20813512.9254   20813511.4484
      2080.5004
  -4442305.23949  -3451360.82247  23253859.5814   23253858.4644
      3399.1254
 04  9  7 21 32 14.9990000  0  6G 3G 8G13G23G27G19
  -4031484.31249  -3125753.02947  22617175.0814   22617175.0194
      1409.1884
  -7453507.70049  -5781252.25548  21905339.4014   21905338.4644
      3373.9224
  -1412419.65649  -1097324.37448  19976326.7374   19976323.9374
       322.1094
   3921206.03549   3037482.81248  21951876.3314   21951872.8554
     -1895.3754
  -4599886.96649  -3569984.98848  20807574.4254   20807572.6204
      2080.6094
  -4493277.56349  -3491079.47947  23244161.5814   23244159.2064
      3397.5004
 04  9  7 21 32 29.9990000  0  6G 3G 8G13G23G27G19
  -4052576.14349  -3142188.19747  22613161.5654   22613162.1324
      1402.9224
  -7504117.00049  -5820688.04047  21895708.5194   21895707.8944
      3373.8134
  -1417216.69349  -1101062.33148  19975413.8784   19975410.7884
       317.2194
   3949649.57449   3059646.58548  21957289.2144   21957285.5344
     -1897.3444
  -4631096.35349  -3594303.97848  20801635.5654   20801633.8234
      2080.5164
  -4544228.00349  -3530781.08747  23234465.5894   23234462.9014
      3395.7344
 04  9  7 21 32 44.9990000  0  6G 3G 8G13G23G27G19
  -4073576.63149  -3158552.20447  22609164.9724   22609165.4054
      1396.9064
  -7554729.40849  -5860126.24947  21886077.2844   21886076.5544
      3374.3284
  -1421944.30749  -1104746.19448  19974513.8784   19974511.6124
       312.8134
   3978118.81149   3081830.36548  21962706.4334   21962703.0584
     -1898.8284
  -4662307.33649  -3618624.22448  20795696.4564   20795694.5584
      2080.7974
  -4595155.20849  -3570464.57947  23224773.6444   23224771.9444
      3394.3134
 04  9  7 21 32 59.9990000  0  6G 3G 8G13G23G27G19
  -4094480.67249  -3174841.03847  22605186.4954   22605188.3234
      1390.7504
  -7605339.75549  -5899562.86048  21876446.5114   21876445.7494
      3374.3444
  -1426597.45749  -1108372.03748  19973628.3234   19973625.7694
       308.1094
   4006618.61249   3104037.96348  21968129.5504   21968126.4174
     -1900.6564
  -4693515.00849  -3642941.88248  20789757.8154   20789755.5344
      2080.7814
  -4646053.75349  -3610125.72847  23215088.6054   23215086.6364
      3392.7034
 04  9  7 21 33 14.9990000  0  7G 3G 8G13G10G23G27G19
  -4115292.02149  -3191057.67547  22601227.3784   22601227.3744
      1383.9384
  -7655951.95649  -5939000.93747  21866815.9564   21866814.4604
      3373.7814
  -1431179.98649  -1111942.84648  19972756.6284   19972754.0894
       302.7034
   -138643.32959    -98669.15357  23802271.2374   23802270.3824
      3371.3594
   4035144.96049   3126266.25348  21973558.0734   21973554.4174
     -1903.0944
  -4724723.20849  -3667259.96248  20783819.2454   20783817.5544
      2080.1884
  -4696927.11549  -3649767.28647  23205407.7844   23205405.7024
      3390.2504
 04  9  7 21 33 29.9990000  0  7G 3G 8G13G10G23G27G19
  -4136006.20049  -3207198.58447  22597285.5034   22597284.9604
      1377.8594
  -7706561.51949  -5978436.93548  21857184.9254   21857183.7064
      3373.9534
  -1435687.28549  -1115455.04248  19971898.9724   19971896.3154
       298.0944
   -189185.10449   -138052.31246  23792652.6834   23792652.7224
      3367.4224
   4063702.12049   3148518.55748  21978992.2534   21978988.8124
     -1904.7194
  -4755927.47549  -3691574.96448  20777880.9094   20777879.5344
      2080.1884
  -4747770.51849  -3689385.46647  23195732.0814   23195730.5694
      3388.6414
 04  9  7 21 33 44.9990000  0  7G 3G 8G13G10G23G27G19
  -4156627.83049  -3223267.39647  22593361.2924   22593361.2964
      1371.6724
  -7757172.99249  -6017874.41948  21847553.9014   21847552.7804
      3374.1254
  -1440124.10549  -1118912.30148  19971054.6674   19971051.8314
       293.3914
   -239664.52749   -177386.92647  23783047.7064   23783046.3474
      3363.1254
   4092285.18149   3170791.02948  21984431.4724   21984428.0424
     -1906.4844
  -4787132.58749  -3715890.62748  20771942.6834   20771940.7304
      2080.3134
  -4798588.40949  -3728983.77147  23186061.8864   23186059.9094
      3386.9064
 04  9  7 21 33 59.9990000  0  7G 3G 8G13G10G23G27G19
  -4177155.82149  -3239263.22747  22589455.1984   22589453.5034
      1365.3134
  -7807785.50849  -6057312.73148  21837922.6834   21837921.0774
      3374.0784
  -1444489.60649  -1122313.99548  19970223.9094   19970220.7964
       288.4694
   -290080.49449   -216672.07747  23773453.6054   23773452.5194
      3358.8134
   4120894.92749   3193084.29148  21989876.2454   21989872.4994
     -1908.3594
  -4818337.47349  -3740206.12348  20766004.7694   20766002.7614
      2080.1724
  -4849379.46249  -3768561.19747  23176396.5344   23176394.5854
      3385.0004
 04  9  7 21 34 14.9990000  0  7G 3G 8G13G10G23G27G19
  -4197589.50849  -3255185.56647  22585566.4254   22585565.6124
      1359.1724
  -7858398.48549  -6096751.39048  21828291.6514   21828289.9054
      3374.2504
  -1448783.29349  -1125659.73448  19969406.5734   19969403.6204
       283.8754
   -340432.14849   -255907.17247  23763871.3474   23763871.2654
      3354.7664
   4149531.66149   3215398.61047  21995325.2064   21995322.0074
     -1909.9374
  -4849541.81849  -3764521.19848  20760066.5344   20760064.8704
      2080.2814
  -4900142.74649  -3808116.94247  23166736.5584   23166734.1834
      3383.3444
 04  9  7 21 34 29.9990000  0  7G 3G 8G13G10G23G27G19
  -4217928.60249  -3271034.19847  22581696.0264   22581695.2064
      1352.9224
  -7909011.62749  -6136190.16548  21818660.0504   21818658.8154
      3374.4064
  -1453004.72949  -1128949.18448  19968603.2924   19968601.1554
       279.2194
   -390719.09549   -295091.73846  23754301.5974   23754301.9764
      3350.5634
   4178195.50649   3237734.03447  22000779.6364   22000776.6674
     -1911.6414
  -4880745.36049  -3788835.63348  20754128.7924   20754127.1674
      2080.3594
  -4950877.68349  -3847650.60447  23157081.9954   23157079.9444
      3381.5944
 04  9  7 21 34 44.9990000  0  7G 3G 8G13G10G23G27G19
  -4238180.14949  -3286814.61647  22577842.0584   22577841.6324
      1346.4384
  -7959632.07549  -6175634.64148  21809027.1284   21809026.2534
      3374.2664
  -1457161.16749  -1132187.97348  19967812.6204   19967809.8274
       274.1724
   -440948.08849   -334231.19947  23744744.5584   23744743.0624
      3345.9384
   4206879.08349   3260084.83047  22006238.2764   22006234.7694
     -1913.5624
  -4911955.17149  -3813154.96148  20748189.6204   20748188.2224
      2080.0944
  -5001591.10349  -3887167.51147  23147431.6124   23147430.0584
      3379.5004
 04  9  7 21 34 59.9990000  0  7G 3G 8G13G10G23G27G19
  -4258324.90649  -3302511.82447  22574008.6594   22574008.9054
      1339.6094
  -8010240.57449  -6215069.81348  21799396.2454   21799395.6364
      3373.7194
  -1461233.40649  -1135361.15248  19967037.5504   19967034.8434
       268.8444
   -491099.74849   -373310.39547  23735201.5264   23735199.5974
      3341.0164
   4235601.48249   3282465.88547  22011703.8234   22011700.3784
     -1915.8914
  -4943152.07649  -3837464.23648  20742253.2614   20742251.5344
      2079.5474
  -5052263.52749  -3926652.49247  23137789.4254   23137786.8314
      3376.9224
 04  9  7 21 35 14.9990000  0  7G 3G 8G13G10G23G27G19
  -4278376.12349  -3318136.13847  22570193.2304   22570193.3554
      1333.3134
  -8060850.51849  -6254506.10348  21789765.4254   21789764.6164
      3373.8594
  -1465234.79749  -1138479.12448  19966276.1204   19966273.5584
       264.1564
   -541187.19049   -412339.56447  23725669.5264   23725667.9994
      3336.7974
   4264349.01249   3304866.52647  22017174.4874   22017171.6164
     -1917.5474
  -4974349.55949  -3861773.96148  20736316.5814   20736314.4804
      2079.7034
  -5102908.04249  -3966115.69847  23128151.9484   23128148.7804
      3375.1564
 04  9  7 21 35 29.9990000  0  7G 3G 8G13G10G23G27G19
  -4298330.53649  -3333685.01247  22566395.9094   22566396.1084
      1326.7974
  -8111458.83249  -6293941.13448  21780135.3554   21780134.1084
      3373.5944
  -1469162.12849  -1141539.38848  19965528.4644   19965526.0934
       259.1254
   -591207.05549   -451316.08446  23716150.6364   23716149.4684
      3332.1094
   4293124.81049   3327289.19548  22022650.4874   22022646.9014
     -1919.5624
  -5005544.43849  -3886081.64548  20730380.4564   20730378.8584
      2079.3594
  -5153521.12249  -4005554.41147  23118521.2304   23118518.5304
      3372.9694
 04  9  7 21 35 44.9990000  0  7G 3G 8G13G10G23G27G19
  -4318187.22149  -3349157.73947  22562617.3864   22562616.8274
      1320.5164
  -8162064.46649  -6333374.08148  21770505.6364   21770504.1594
      3373.5634
  -1473014.51949  -1144541.26048  19964795.8784   19964792.8154
       254.2504
   -641158.19449   -490239.03547  23706645.2764   23706644.2844
      3327.7504
   4321929.47449   3349734.35048  22028132.0894   22028128.6204
     -1921.2814
  -5036735.82149  -3910386.61748  20724444.8314   20724443.1444
      2079.2194
  -5204101.58249  -4044967.68947  23108895.8314   23108893.1054
      3370.8914
 04  9  7 21 35 59.9990000  0  7G 3G 8G13G10G23G27G19
  -4337944.24649  -3364552.82247  22558857.5194   22558857.4014
      1313.9224
  -8212665.69249  -6372803.58348  21760876.6594   21760875.1474
      3373.4064
  -1476790.13049  -1147483.29748  19964077.3394   19964074.6674
       249.2664
   -691038.38249   -529106.67847  23697153.8784   23697152.8584
      3323.1254
   4350764.58449   3372203.23647  22033618.6444   22033615.4954
     -1923.2194
  -5067921.95149  -3934687.50348  20718510.1124   20718508.5464
      2079.0004
  -5254647.23849  -4084353.86247  23099276.1594   23099274.2534
      3368.5944
 04  9  7 21 36 14.9990000  0  7G 3G 8G13G10G23G27G19
  -4357599.16849  -3379868.33547  22555117.5264   22555116.6514
      1306.9694
  -8263259.84849  -6412227.57448  21751248.4954   21751247.1874
      3372.7504
  -1480486.68049  -1150363.74148  19963373.6904   19963371.4804
       243.8444
   -740845.08049   -567917.07747  23687675.8944   23687675.7964
      3318.0634
   4379632.38849   3394697.59847  22039112.0034   22039108.8554
     -1925.4844
  -5099100.42249  -3958982.39948  20712577.2304   20712575.3514
      2078.3284
  -5305155.27849  -4123710.70947  23089665.1124   23089662.9294
      3366.0784
 04  9  7 21 36 29.9990000  0  7G 3G 8G13G10G23G27G19
  -4377155.31649  -3395106.88247  22551395.5194   22551394.8624
      1300.3444
  -8313850.51749  -6451648.87048  21741621.8004   21741620.5304
      3372.4534
  -1484107.49149  -1153185.14948  19962685.0974   19962682.3624
       238.6884
   -790581.52449   -606672.71747  23678211.4644   23678210.7964
      3313.2194
   4408529.30149   3417214.63047  22044611.5504   22044607.7024
     -1927.5944
  -5130274.66549  -3983274.02248  20706645.0734   20706643.1514
      2077.9064
  -5355628.80149  -4163040.70547  23080060.5504   23080058.2024
      3363.5634
 04  9  7 21 36 44.9990000  0  7G 3G 8G13G10G23G27G19
  -4396611.71249  -3410267.71447  22547693.2454   22547692.3084
      1293.6094
  -8364437.00849  -6491066.88248  21731995.0974   21731993.6554
      3372.0944
  -1487651.61349  -1155946.80948  19962010.3314   19962008.0344
       233.5634
   -840246.59349   -645372.75747  23668759.6674   23668759.4214
      3308.4694
   4437456.03849   3439754.91347  22050115.5734   22050112.3394
     -1929.6414
  -5161443.73949  -4007561.61048  20700713.6754   20700711.7924
      2077.6094
  -5406066.60049  -4202342.82047  23070462.1054   23070460.2614
      3361.1254
 04  9  7 21 36 59.9990000  0  7G 3G 8G13G10G23G27G19
  -4415971.42949  -3425353.19647  22544009.8314   22544009.0344
      1287.7974
  -8415021.92749  -6530483.66148  21722369.4644   21722368.0734
      3372.6564
  -1491122.20249  -1158651.16648  19961349.9094   19961347.3864
       229.3754
   -889843.13449   -684019.37447  23659322.2534   23659321.5264
      3304.5784
   4466409.26649   3462315.83247  22055625.1594   22055622.5544
     -1930.6724
  -5192610.91349  -4031847.70948  20694782.5424   20694780.8664
      2078.2194
  -5456471.54749  -4241619.35047  23060870.7764   23060868.4054
      3359.6094
 04  9  7 21 37 14.9990000  0  7G 3G 8G13G10G23G27G19
  -4435234.32749  -3440363.23647  22540344.0584   22540343.5034
      1280.7504
  -8465605.43849  -6569899.38548  21712743.8554   21712742.3824
      3372.0004
  -1494519.26049  -1161298.24048  19960703.7534   19960700.9524
       223.7034
   -939370.90049   -722612.42947  23649897.0264   23649896.6554
      3299.2504
   4495388.78749   3484897.23947  22061139.9644   22061137.0934
     -1933.0944
  -5223776.26549  -4056132.40548  20688852.3314   20688850.5894
      2077.3754
  -5506843.30049  -4280870.02947  23051284.8234   23051282.6674
      3356.6884
 04  9  7 21 37 29.9990000  0  7G 3G 8G13G10G23G27G19
  -4454394.22449  -3455293.03547  22536697.6204   22536697.3354
      1274.0474
  -8516181.31449  -6609309.11548  21703119.0114   21703117.8664
      3371.5944
  -1497836.63549  -1163883.20948  19960072.0424   19960069.8514
       218.6564
   -988823.44049   -761146.86747  23640487.1904   23640486.5814
      3294.4064
   4524400.56549   3507503.79247  22066660.4874   22066657.4444
     -1935.0314
  -5254933.49549  -4080410.75448  20682923.0894   20682921.2764
      2077.0474
  -5557175.26349  -4320089.69247  23041706.5034   23041704.9954
      3354.1724
 04  9  7 21 37 44.9990000  0  7G 3G 8G13G10G23G27G19
  -4473450.47549  -3470142.04047  22533072.0654   22533070.9254
      1267.3284
  -8566749.13349  -6648712.59248  21693496.5974   21693495.7694
      3371.2504
  -1501073.51549  -1166405.45948  19959456.2374   19959453.4804
       213.4534
  -1038199.73449   -799621.87047  23631090.4804   23631090.4054
      3289.5634
   4553445.12449   3530135.88047  22072187.7454   22072184.7224
     -1937.1254
  -5286081.90749  -4104682.23348  20676996.0894   20676994.2334
      2076.6564
  -5607466.44549  -4359277.56547  23032136.1754   23032134.4564
      3351.8284
 04  9  7 21 37 59.9990000  0  7G 3G 8G13G10G23G27G19
  -4492405.49049  -3484912.18347  22529464.1284   22529464.1244
      1260.0314
  -8617311.41049  -6688111.74848  21683874.8084   21683873.4054
      3370.4224
  -1504232.61349  -1168867.09448  19958855.1834   19958852.5544
       207.8284
  -1087502.17549   -838039.34547  23621708.8864   23621708.4294
      3284.2344
   4582519.75249   3552791.39447  22077720.4484   22077717.5344
     -1939.4694
  -5317224.10249  -4128948.87248  20671069.6124   20671067.6984
      2075.7814
  -5657719.05249  -4398435.39947  23022574.4254   23022571.9764
      3348.6884
 04  9  7 21 38 14.9990000  0  7G 3G 8G13G10G23G27G19
  -4511255.09849  -3499600.17247  22525876.9174   22525877.3044
      1253.0314
  -8667863.50449  -6727502.97648  21674254.6674   21674253.7304
      3369.7034
  -1507309.74149  -1171264.86748  19958269.7694   19958267.0894
       202.3914
  -1136726.40349   -876395.84747  23612341.3474   23612341.3944
      3279.0004
   4611628.28449   3575473.32847  22083260.1284   22083256.3394
     -1941.7664
  -5348356.00949  -4153207.50948  20665145.6284   20665143.6794
      2075.0004
  -5707928.71849  -4437559.77247  23013019.2694   23013016.8044
      3345.7664
 04  9  7 21 38 29.9990000  0  7G 3G 8G13G10G23G27G19
  -4529996.30449  -3514203.71547  22522310.8624   22522310.3194
      1245.8444
  -8718402.81249  -6766884.23548  21664637.4094   21664635.8664
      3368.9534
  -1510302.08649  -1173596.57548  19957700.4174   19957697.9214
       196.7504
  -1185869.25149   -914688.98447  23602990.2534   23602989.3394
      3273.5634
   4640773.59849   3598183.91647  22088805.4804   22088802.3704
     -1944.2194
  -5379474.73449  -4177455.85748  20659223.8944   20659221.9294
      2074.2034
  -5758092.23649  -4476648.16647  23003473.2454   23003471.4134
      3342.7034
 04  9  7 21 38 44.9990000  0  7G 3G 8G13G10G23G27G19
  -4548633.83649  -3528726.44447  22518765.1054   22518763.4524
      1238.9844
  -8768934.26949  -6806259.37248  21655021.9404   21655020.6124
      3368.4064
  -1513214.44149  -1175865.95648  19957146.3234   19957143.5074
       191.4064
  -1234935.32649   -952922.27347  23593653.6514   23593652.2374
      3268.4064
   4669950.63649   3620919.23147  22094358.0814   22094355.3194
     -1946.2194
  -5410585.04749  -4201697.66048  20653303.6594   20653301.8944
      2073.6884
  -5808213.95049  -4515703.98647  22993935.3234   22993934.1874
      3340.0004
 04  9  7 21 38 59.9990000  0  7G 3G 8G13G10G23G27G19
  -4567169.05749  -3543169.46747  22515237.3314   22515235.8864
      1232.5004
  -8819459.17249  -6845629.40048  21645407.1444   21645406.6124
      3368.3754
  -1516048.20249  -1178074.09348  19956607.0974   19956603.9174
       186.5314
  -1283925.97949   -991096.81346  23584330.1204   23584329.8974
      3263.7814
   4699157.73449   3643677.97347  22099916.6514   22099912.9564
     -1947.8754
  -5441688.46249  -4225934.07248  20647384.9334   20647383.2574
      2073.5784
  -5858295.09349  -4554728.22847  22984406.1514   22984403.2534
      3337.6724
 04  9  7 21 39 14.9990000  0  7G 3G 8G13G10G23G27G19
  -4585604.45849  -3557534.72747  22511729.4564   22511727.7064
      1225.3134
  -8869979.73949  -6884996.06048  21635793.0194   21635791.9374
      3367.6094
  -1518805.86249  -1180222.92848  19956081.9094   19956079.2024
       181.0164
  -1332843.21049  -1029214.10147  23575021.9724   23575021.0224
      3258.3754
   4728392.19149   3666458.03947  22105478.9954   22105476.3864
     -1950.2194
  -5472787.55549  -4250167.12948  20641466.9484   20641465.1444
      2072.8754
  -5908337.86249  -4593722.55347  22974883.3944   22974880.3124
      3334.6094
 04  9  7 21 39 29.9990000  0  7G 3G 8G13G10G23G27G19
  -4603935.99549  -3571819.03447  22508240.9804   22508239.6364
      1218.4064
  -8920492.13149  -6924356.34548  21626180.9644   21626179.8004
      3366.9844
  -1521483.54649  -1182309.44148  19955572.4724   19955569.5544
       175.5314
  -1381682.93749  -1067271.01547  23565727.5814   23565727.5264
      3253.1564
   4757657.74949   3689262.33247  22111048.3154   22111045.3474
     -1952.2814
  -5503878.29749  -4274393.67248  20635550.8944   20635548.9014
      2072.1564
  -5958337.83249  -4632683.52147  22965367.8004   22965365.6244
      3331.6414
 04  9  7 21 39 44.9990000  0  7G 3G 8G13G10G23G27G19
  -4622158.82949  -3586018.65647  22504774.2374   22504772.3194
      1211.8284
  -8970991.53949  -6963706.51148  21616571.2844   21616570.4374
      3366.6564
  -1524076.27249  -1184329.75548  19955079.2614   19955076.2454
       170.4694
  -1430440.11049  -1105263.60747  23556450.5264   23556448.5734
      3248.2344
   4786958.97249   3712094.42147  22116624.2304   22116621.2414
     -1954.0314
  -5534955.90349  -4298609.99048  20629636.4094   20629635.1594
      2071.9064
  -6008289.96949  -4671607.22247  22955862.3944   22955859.8194
      3329.0314
 04  9  7 21 39 59.9990000  0  7G 3G 8G13G10G23G27G19
  -4640286.46149  -3600144.06347  22501323.9564   22501323.2654
      1204.8914
  -9021491.76949  -7003057.32348  21606961.6054   21606960.3664
      3366.2814
  -1526597.77949  -1186294.57148  19954599.2764   19954596.8194
       165.2664
  -1479128.16749  -1143202.31347  23547183.8084   23547183.8084
      3243.2344
   4816282.12349   3734943.60047  22122204.7924   22122201.0344
     -1955.9844
  -5566034.05249  -4322826.72348  20623722.8624   20623720.9254
      2071.4694
  -6058207.58949  -4710504.02947  22946362.6054   22946361.6714
      3326.1884
 04  9  7 21 40 14.9990000  0  7G 3G 8G13G10G23G27G19
  -4658306.15849  -3614185.38447  22497894.3314   22497894.3514
      1198.0314
  -9071979.88349  -7042398.68948  21597353.6984   21597352.4564
      3365.6724
  -1529035.24349  -1188193.89848  19954135.3624   19954132.4564
       159.9534
  -1527734.08349  -1181077.04747  23537934.9874   23537934.5344
      3237.9064
   4845639.87049   3757819.72447  22127790.5894   22127787.3084
     -1958.1414
  -5597099.96949  -4347033.92748  20617810.8474   20617809.6284
      2070.8914
  -6108077.47849  -4749363.64247  22936873.5504   22936870.8944
      3323.2814
 04  9  7 21 40 29.9990000  0  7G 3G 8G13G10G23G27G19
  -4676223.95949  -3628147.29447  22494484.7694   22494485.1674
      1191.1724
  -9122461.91349  -7081735.31448  21587747.5264   21587746.4214
      3365.2974
  -1531394.87649  -1190032.56948  19953686.5654   19953684.1834
       154.7664
  -1576263.67549  -1218892.27647  23528700.5034   23528700.0154
      3232.7664
   4875025.66449   3780717.71547  22133382.8394   22133380.2144
     -1959.8754
  -5628159.74649  -4371236.33348  20611900.8474   20611898.9764
      2070.5164
  -6157905.45649  -4788190.58647  22927391.5424   22927389.1404
      3320.5004
 04  9  7 21 40 44.9990000  0  7G 3G 8G13G10G23G27G19
  -4694036.31349  -3642027.04647  22491095.3554   22491095.8624
      1183.9224
  -9172934.25149  -7121064.38648  21578143.0734   21578141.9444
      3364.4224
  -1533673.18549  -1191807.88048  19953253.1124   19953250.1404
       149.1414
  -1624713.00849  -1256645.00147  23519480.7764   23519480.4404
      3227.2034
   4904443.02149   3803640.28647  22138980.7144   22138977.8044
     -1962.2814
  -5659209.81549  -4395431.19748  20605991.9564   20605990.2304
      2069.5474
  -6207687.68849  -4826981.91647  22917917.8234   22917915.6444
      3317.2344
 04  9  7 21 40 59.9990000  0  7G 3G 8G13G10G23G27G19
  -4711743.82249  -3655825.08847  22487725.3704   22487725.9644
      1177.1724
  -9223397.66549  -7160386.50848  21568540.1514   21568538.6634
      3364.1564
  -1535870.85949  -1193520.36948  19952834.7224   19952832.2804
       144.0944
  -1673082.78049  -1294335.71747  23510276.5344   23510275.6404
      3222.2974
   4933891.05849   3826586.77547  22144585.2224   22144581.1124
     -1963.9374
  -5690250.95149  -4419619.09048  20600085.0034   20600082.9954
      2069.3444
  -6257424.58649  -4865737.88547  22908452.5734   22908451.4644
      3314.5004
 04  9  7 21 41 14.9990000  0  7G 3G 8G13G10G23G27G19
  -4729349.54549  -3669543.82447  22484375.6984   22484374.8664
      1170.5164
  -9273855.19449  -7199704.03048  21558938.1444   21558937.2534
      3363.8594
  -1537990.97449  -1195172.41348  19952431.4014   19952428.9094
       139.0004
  -1721375.89449  -1331966.68446  23501086.4954   23501085.8044
      3217.2034
   4963366.52449   3849554.62947  22150193.7064   22150190.4134
     -1965.7194
  -5721286.33349  -4443802.49348  20594179.1594   20594177.2764
      2069.0784
  -6307118.90149  -4904460.69147  22898997.4014   22898994.7924
      3311.7344
 04  9  7 21 41 29.9990000  0  7G 3G 8G13G10G23G27G19
  -4746853.44349  -3683183.23647  22481044.8314   22481044.0344
      1163.6094
  -9324306.83249  -7239016.99148  21549337.4644   21549336.2964
      3363.3444
  -1540033.58849  -1196764.07348  19952042.4094   19952039.5074
       133.6724
  -1769592.03949  -1369537.71147  23491911.3234   23491910.0654
      3211.9064
   4992869.05549   3872543.57847  22155808.3624   22155804.2454
     -1967.6254
  -5752315.98649  -4467981.44648  20588274.4874   20588272.4254
      2068.5634
  -6356770.31849  -4943150.07947  22889549.2304   22889546.0734
      3308.7504
 04  9  7 21 41 44.9990000  0  7G 3G 8G13G10G23G27G19
  -4764255.23749  -3696743.05747  22477733.9724   22477732.3434
      1156.4384
  -9374752.26049  -7278325.09848  21539738.0654   21539736.6204
      3362.4384
  -1541998.48449  -1198295.16448  19951668.6364   19951665.6834
       127.9534
  -1817730.82349  -1407048.45547  23482750.1204   23482749.5424
      3206.3134
   5022398.65349   3895553.62247  22161426.7144   22161423.8154
     -1969.8594
  -5783339.60649  -4492155.68448  20582370.8314   20582369.1874
      2067.6884
  -6406378.33249  -4981805.64647  22880108.3554   22880106.0464
      3305.4224
 04  9  7 21 41 59.9990000  0  7G 3G 8G13G10G23G27G19
  -4781552.92249  -3710221.77047  22474442.3234   22474440.3584
      1149.5634
  -9425189.59149  -7317626.89348  21530140.3084   21530138.6204
      3362.0944
  -1543883.64849  -1199764.13448  19951309.9874   19951307.4834
       122.8444
  -1865790.05249  -1444497.18047  23473605.4094   23473604.7144
      3201.1884
   5051957.19749   3918586.20247  22167052.3394   22167048.5224
     -1971.6564
  -5814355.28449  -4516323.74348  20576469.1124   20576466.9444
      2067.3444
  -6455940.56749  -5020425.52647  22870676.8004   22870674.8044
      3302.4694
 04  9  7 21 42 14.9990000  0  7G 3G 8G13G10G23G27G19
  -4798744.80849  -3723618.04347  22471170.3704   22471168.6244
      1142.5314
  -9475617.18049  -7356921.09148  21520544.2304   21520542.4564
      3361.4534
  -1545687.52849  -1201169.76548  19950966.6444   19950963.7764
       117.5314
  -1913767.76549  -1481882.38747  23464474.9014   23464474.6204
      3195.7504
   5081546.08649   3941642.44747  22172682.3704   22172679.3044
     -1973.6414
  -5845361.36649  -4540484.31648  20570568.5424   20570566.8434
      2066.6414
  -6505455.12849  -5059008.26047  22861254.6204   22861252.5114
      3299.3134
 04  9  7 21 42 29.9990000  0  7G 3G 8G13G10G23G27G19
  -4815831.71749  -3736932.52047  22467918.7064   22467917.2374
      1135.7194
  -9526035.72249  -7396208.25048  21510949.9014   21510948.9764
      3360.9224
  -1547410.86649  -1202512.63148  19950638.6674   19950636.2884
       112.1724
  -1961664.52449  -1519204.53147  23455361.1984   23455360.6244
      3190.4064
   5111164.33549   3964721.56647  22178318.6984   22178315.3704
     -1975.5474
  -5876358.57649  -4564637.99448  20564670.2064   20564668.5384
      2066.1724
  -6554922.44849  -5097554.18847  22851840.7374   22851838.8624
      3296.3134
 04  9  7 21 42 44.9990000  0  7G 3G 8G13G10G23G27G19
  -4832815.13649  -3750166.33647  22464686.9564   22464686.3004
      1128.4064
  -9576447.01049  -7435489.75748  21501356.9724   21501355.3864
      3360.1254
  -1549055.35549  -1203794.06048  19950325.8784   19950323.1474
       106.6094
  -2009481.84849  -1556464.79847  23446261.5424   23446260.9484
      3184.7664
   5140810.05249   3987822.08347  22183960.0974   22183956.9914
     -1977.7194
  -5907348.70349  -4588786.13848  20558772.3864   20558770.7494
      2065.3134
  -6604343.72849  -5136064.25847  22842436.8624   22842434.4874
      3292.8284
 04  9  7 21 42 59.9990000  0  7G 3G 8G13G10G23G27G19
  -4849688.32049  -3763314.26547  22461475.9724   22461475.2184
      1121.2344
  -9626843.87449  -7474760.00548  21491766.5034   21491765.0774
      3359.3444
  -1550614.10249  -1205008.66348  19950029.2844   19950026.2924
       101.0634
  -2057212.72249  -1593657.65947  23437178.4874   23437178.0894
      3179.2344
   5170489.90949   4010949.20447  22189607.9564   22189605.0584
     -1979.7814
  -5938324.89249  -4612923.41048  20552877.6834   20552875.8864
      2064.5784
  -6653712.14549  -5174533.10047  22833042.5584   22833040.6014
      3289.4064
 04  9  7 21 43 14.9990000  0  7G 3G 8G13G10G23G27G19
  -4866454.64549  -3776378.93847  22458285.1594   22458284.9054
      1113.9844
  -9677230.19149  -7514022.05348  21482178.2694   21482177.3474
      3358.4534
  -1552090.86049  -1206159.38648  19949748.1984   19949745.5194
        95.5634
  -2104860.35549  -1630785.64947  23428112.4174   23428111.3514
      3173.5004
   5200200.21649   4034100.05847  22195262.2144   22195258.8004
     -1981.8444
  -5969290.76449  -4637052.66648  20546985.5974   20546983.9444
      2063.8444
  -6703030.71949  -5212963.13247  22823657.5034   22823655.0384
      3285.9844
 04  9  7 21 43 29.9990000  0  7G 3G 8G13G10G23G27G19
  -4883104.47949  -3789352.83847  22455117.1754   22455116.9564
      1106.0784
  -9727596.01849  -7553268.13748  21472594.2764   21472593.4254
      3356.9694
  -1553475.94449  -1207238.67648  19949484.7454   19949482.1284
        89.2344
  -2152414.83449  -1667841.09047  23419062.0424   23419062.0934
      3167.0944
   5229950.50549   4057282.05347  22200923.0504   22200919.6054
     -1984.7974
  -6000236.47949  -4661166.20448  20541096.6594   20541094.9484
      2062.3594
  -6752289.46249  -5251346.53547  22814283.6594   22814281.2574
      3281.8754
 04  9  7 21 43 44.9980000  0  7G 3G 8G13G10G23G27G19
  -4899637.14749  -3802235.42247  22451970.8034   22451970.2874
      1098.5944
  -9777938.44049  -7592495.97948  21463014.3344   21463013.3184
      3356.0314
  -1554769.70049  -1208246.79648  19949238.4754   19949235.9394
        83.5004
  -2199873.33249  -1704821.72547  23410031.9364   23410030.7364
      3161.4064
   5259737.92049   4080492.98947  22206592.1934   22206588.2174
     -1986.9534
  -6031160.66649  -4685262.97548  20535212.2874   20535210.6114
      2061.3594
  -6801485.18449  -5289680.83947  22804921.9124   22804919.7134
      3278.2194
 04  9  7 21 43 59.9980000  0  7G 3G 8G13G10G23G27G19
  -4916063.69449  -3815035.32847  22448845.3264   22448844.2094
      1092.0164
  -9828273.12549  -7631717.80148  21453436.2014   21453434.2754
      3355.7344
  -1555981.17449  -1209190.82648  19949008.0064   19949004.9364
        78.5314
  -2247250.73549  -1741739.18047  23401016.0534   23401014.9164
      3156.2034
   5289557.44849   4103728.94147  22212266.1074   22212262.9124
     -1988.4844
  -6062076.22849  -4709353.02048  20529329.0224   20529327.3034
      2061.1724
  -6850633.19849  -5327977.94747  22795568.2174   22795566.9824
      3275.4064
 04  9  7 21 44 14.9980000  0  7G 3G 8G13G10G23G27G19
  -4932384.27149  -3827752.63247  22445739.4984   22445739.1234
      1084.2814
  -9878597.80249  -7670931.80748  21443858.9594   21443858.1074
      3354.4844
  -1557111.54049  -1210071.65048  19948792.8894   19948790.1624
        72.4534
  -2294544.91149  -1778591.76647  23392016.2794   23392015.4904
      3149.9384
   5319405.66949   4126987.25947  22217946.6704   22217943.3114
     -1991.0624
  -6092982.33749  -4733435.68548  20523447.5844   20523445.6434
      2059.9224
  -6899730.93749  -5366235.87947  22786226.5294   22786224.3464
      3271.2974
 04  9  7 21 44 29.9980000  0  7G 3G 8G13G10G23G27G19
  -4948593.23449  -3840382.99947  22442654.8264   22442654.2914
      1077.2814
  -9928906.86349  -7710133.65348  21434286.0614   21434284.9904
      3353.7344
  -1558155.33149  -1210885.00448  19948594.1784   19948591.7834
        67.0004
  -2341749.99549  -1815374.94447  23383032.9754   23383032.4004
      3144.3134
   5349288.03349   4150272.16847  22223632.6704   22223629.6974
     -1993.0004
  -6123873.36049  -4757506.61848  20517569.1784   20517567.8464
      2059.1884
  -6948772.54649  -5404450.10047  22776893.9204   22776891.6004
      3267.8594
 04  9  7 21 44 44.9980000  0  7G 3G 8G13G10G23G27G19
  -4964693.48649  -3852928.66147  22439591.5454   22439590.7014
      1069.9384
  -9979203.22649  -7749325.61548  21424714.7324   21424713.3034
      3352.8444
  -1559115.45949  -1211633.16748  19948411.7644   19948408.8114
        61.3594
  -2388868.72349  -1852090.79747  23374067.3424   23374066.1864
      3138.5314
   5379201.29449   4173581.16747  22229324.5614   22229321.6664
     -1995.1414
  -6154752.40449  -4781568.21048  20511693.3734   20511691.5684
      2058.3594
  -6997760.70649  -5442622.67147  22767571.2794   22767569.6274
      3264.2664
 04  9  7 21 44 59.9980000  0  7G 3G 8G13G10G23G27G19
  -4980688.24249  -3865392.10347  22436547.1624   22436547.2324
      1062.8284
 -10029490.14549  -7788510.21048  21415145.5534   21415144.2014
      3352.1724
  -1559995.07649  -1212318.59548  19948244.4284   19948241.6784
        55.9844
  -2435904.18649  -1888741.81547  23365116.3574   23365115.2054
      3132.9384
   5409142.07149   4196911.60047  22235022.4124   22235019.3894
     -1996.9224
  -6185622.59349  -4805622.90148  20505818.7324   20505817.0574
      2057.7344
  -7046698.30349  -5480755.81847  22758258.8574   22758256.9284
      3260.7504
 04  9  7 21 45 14.9980000  0  7G 3G 8G13G10G23G27G19
  -4996572.45249  -3877769.41447  22433524.9044   22433524.0764
      1055.7194
 -10079762.60549  -7827683.52048  21405578.2564   21405577.4434
      3351.4844
  -1560789.27649  -1212937.46348  19948093.3344   19948090.2954
        50.4844
  -2482851.18649  -1925323.87747  23356182.2724   23356181.7014
      3127.2974
   5439115.16349   4220267.22447  22240726.2014   22240723.1664
     -1998.8124
  -6216478.93149  -4829666.79848  20499947.1154   20499945.3184
      2057.0944
  -7095580.03149  -5518845.46147  22748957.8034   22748955.3544
      3257.3134
 04  9  7 21 45 29.9980000  0  7G 3G 8G13G10G23G27G19
  -5012345.93649  -3890060.43747  22430523.0614   22430522.9204
      1047.6884
 -10130020.44749  -7866845.46448  21396015.1704   21396013.7644
      3349.8594
  -1561497.84549  -1213489.59748  19947958.1234   19947955.2874
        44.1564
  -2529709.17149  -1961836.58347  23347265.8974   23347264.9364
      3120.7194
   5469120.59249   4243648.04147  22246435.9204   22246432.6114
     -2001.5474
  -6247321.27049  -4853699.78748  20494078.3114   20494075.7954
      2055.5314
  -7144405.31749  -5556891.10847  22739666.0144   22739664.1394
      3252.9694
 04  9  7 21 45 44.9980000  0  7G 3G 8G13G10G23G27G19
  -5028011.79949  -3902267.59447  22427541.3264   22427541.8734
      1040.9844
 -10180266.68549  -7905998.36948  21386454.1544   21386452.5254
      3349.5474
  -1562124.04949  -1213977.56248  19947839.1234   19947836.4634
        39.1724
  -2576481.27949  -1998282.36347  23338365.3114   23338364.4824
      3115.4844
   5499154.93549   4267051.37647  22252151.6314   22252148.0574
     -2003.1094
  -6278152.77749  -4877724.33348  20488210.8894   20488209.0534
      2055.2814
  -7193177.00149  -5594894.99147  22730385.4594   22730383.1194
      3249.8754
 04  9  7 21 45 59.9980000  0  7G 3G 8G13G10G23G27G19
  -5043569.05149  -3914390.11847  22424582.2094   22424581.5494
      1034.0164
 -10230500.21749  -7945141.36048  21376894.5454   21376893.2914
      3348.9384
  -1562666.82149  -1214400.51548  19947735.6784   19947733.3854
        33.8754
  -2623166.14749  -2034660.16547  23329482.6544   23329480.7444
      3109.8914
   5529218.95949   4290477.84947  22257872.6004   22257869.2214
     -2004.7194
  -6308972.34049  -4901739.57548  20482346.1314   20482344.2564
      2054.7504
  -7241893.80349  -5632856.10347  22721114.9824   22721112.6074
      3246.4064
 04  9  7 21 46 14.9980000  0  7G 3G 8G13G10G23G27G19
  -5059016.94249  -3926427.43747  22421641.6074   22421641.0414
      1026.1564
 -10280720.35649  -7984273.91348  21367337.7954   21367336.6824
      3347.4224
  -1563125.56449  -1214757.97548  19947648.5294   19947645.8344
        27.7344
  -2669762.85649  -2070969.27047  23320614.3894   23320613.3504
      3103.3754
   5559313.31849   4313927.95347  22263598.8974   22263596.1004
     -2007.3594
  -6339779.40949  -4925745.08248  20476483.7174   20476482.4714
      2053.2974
  -7290554.74049  -5670773.69847  22711854.9904   22711852.5964
      3242.1884
 04  9  7 21 46 29.9980000  0  7G 3G 8G13G10G23G27G19
  -5074354.10549  -3938378.46947  22418723.1544   22418723.1504
      1018.5634
 -10330925.72649  -8023394.95848  21357784.3344   21357782.7834
      3346.3594
  -1563498.89149  -1215048.89648  19947577.3114   19947574.7914
        21.8284
  -2716269.93149  -2107208.52747  23311764.1704   23311763.4714
      3097.3444
   5589439.02049   4337402.49247  22269332.4204   22269329.2094
     -2009.6254
  -6370572.56049  -4949739.73948  20470624.2404   20470622.4004
      2052.1884
  -7339158.13549  -5708646.42947  22702606.3034   22702603.2604
      3238.0634
 04  9  7 21 46 44.9980000  0  7G 3G 8G13G10G23G27G19
  -5089586.90749  -3950248.19447  22415824.6314   22415824.4084
      1012.0634
 -10381122.81249  -8062509.54648  21348231.9124   21348230.6504
      3346.1254
  -1563793.26649  -1215278.27748  19947521.2724   19947518.5804
        16.8914
  -2762693.46249  -2143382.68547  23302930.6394   23302929.6434
      3092.0474
   5619589.57849   4360896.39447  22275069.2874   22275066.5374
     -2010.8594
  -6401358.12749  -4973728.48048  20464765.8654   20464764.1624
      2052.0314
  -7387709.94849  -5746478.97847  22693366.9284   22693364.6624
      3234.9694
 04  9  7 21 46 59.9980000  0  7G 3G 8G13G10G23G27G19
  -5104705.78149  -3962029.12347  22412947.7874   22412947.2214
      1004.1094
 -10431301.92449  -8101610.13248  21338682.8344   21338681.6664
      3344.6564
  -1563999.19949  -1215438.76248  19947482.3504   19947479.1194
        10.7504
  -2809023.64949  -2179484.15047  23294113.3504   23294112.9904
      3085.5784
   5649774.35549   4384416.94747  22280813.1474   22280810.5024
     -2013.5164
  -6432126.65549  -4997703.95548  20458910.7874   20458909.0414
      2050.6724
  -7436200.32149  -5784263.65147  22684138.7874   22684137.5374
      3230.6884
 04  9  7 21 47 14.9980000  0  7G 3G 8G13G10G23G27G19
  -5119711.47649  -3973721.87447  22410091.9904   22410091.7404
       996.4534
 -10481463.60749  -8140697.14048  21329137.7094   21329135.6314
      3343.3284
  -1564117.36849  -1215530.85548  19947459.3894   19947457.2014
         4.7034
  -2855261.04249  -2215513.25747  23285315.0614   23285314.2364
      3079.2194
   5679992.41049   4407963.43547  22286564.2874   22286560.6544
     -2015.8444
  -6462878.75149  -5021666.63348  20453058.9364   20453056.9004
      2049.4694
  -7484629.71149  -5822000.81247  22674923.5374   22674921.4594
      3226.4384
 04  9  7 21 47 29.9980000  0  7G 3G 8G13G10G23G27G19
  -5134607.88149  -3985329.44447  22407256.7564   22407257.1274
       988.8134
 -10531611.77949  -8179773.62048  21319595.1234   21319593.8974
      3342.0474
  -1564151.80949  -1215557.70048  19947452.9904   19947450.5764
        -1.2194
  -2901409.35049  -2251472.95647  23276533.1004   23276532.1934
      3072.9844
   5710239.56449   4431532.61447  22292319.9434   22292316.5844
     -2018.1564
  -6493618.51349  -5045619.68348  20447209.3114   20447207.4754
      2048.2814
  -7533001.89249  -5859693.37347  22665718.6314   22665716.2684
      3222.2974
 04  9  7 21 47 44.9980000  0  7G 3G 8G13G10G23G27G19
  -5149389.37449  -3996847.49547  22404444.4514   22404444.4244
       981.4534
 -10581740.91149  -8218835.26048  21310055.3574   21310054.2524
      3341.1254
  -1564096.92149  -1215514.93348  19947463.5844   19947461.0534
        -6.8124
  -2947462.72849  -2287358.63747  23267769.3654   23267769.0574
      3067.0004
   5740521.24149   4455128.67447  22298081.7564   22298079.3504
     -2020.1094
  -6524340.22149  -5069558.67948  20441363.0294   20441361.4714
      2047.3444
  -7581310.73149  -5897336.61547  22656525.5614   22656523.0254
      3218.3134
 04  9  7 21 47 59.9980000  0  7G 3G 8G13G10G23G27G19
  -5164054.95749  -4008275.21247  22401653.7094   22401653.7644
       973.4694
 -10631850.01049  -8257881.29748  21300519.9754   21300518.6354
      3339.5314
  -1563951.59649  -1215401.69548  19947491.1864   19947488.3224
       -13.1094
  -2993419.78049  -2323169.36047  23259024.2484   23259024.2794
      3060.1724
   5770838.22649   4478752.24247  22303852.0374   22303848.0144
     -2022.6254
  -6555042.86249  -5093482.81948  20435520.5454   20435518.4714
      2045.7664
  -7629554.96249  -5934929.47547  22647344.4364   22647343.2254
      3213.7664
 04  9  7 21 48 14.9980000  0  7G 3G 8G13G10G23G27G19
  -5178601.50549  -4019610.17247  22398885.8344   22398885.2524
       965.2664
 -10681936.09549  -8296909.39148  21290989.0844   21290987.9364
      3337.7034
  -1563712.95049  -1215215.74448  19947536.9124   19947533.9594
       -19.5784
  -3039277.58649  -2358902.73447  23250297.7564   23250297.6154
      3053.3444
   5801193.32649   4502405.53647  22309627.5614   22309624.8694
     -2025.5004
  -6585723.41249  -5117389.74248  20429682.1934   20429680.2364
      2044.0164
  -7677731.24049  -5972469.39347  22638177.3814   22638175.2054
      3208.9384
 04  9  7 21 48 29.9980000  0  7G 3G 8G13G10G23G27G19
  -5193036.06349  -4030857.88347  22396138.8114   22396138.8264
       958.5634
 -10732005.88149  -8335924.79248  21281460.9824   21281459.5254
      3337.4534
  -1563388.02249  -1214962.58348  19947598.3504   19947595.7874
       -24.5474
  -3085042.79549  -2394563.90447  23241588.6004   23241588.0924
      3047.8914
   5831579.38149   4526082.93847  22315410.2014   22315407.1004
     -2026.7974
  -6616388.96849  -5141284.97148  20423846.6234   20423845.1624
      2043.8284
  -7725846.30449  -6009961.62747  22629021.6784   22629019.6504
      3205.5784
 04  9  7 21 48 44.9980000  0  7G 3G 8G13G10G23G27G19
  -5207358.02949  -4042017.85747  22393414.1074   22393414.0334
       950.8594
 -10782058.83749  -8374927.08248  21271936.1864   21271934.7754
      3336.1724
  -1562976.30649  -1214641.76348  19947676.9284   19947674.2724
       -30.5164
  -3130714.74949  -2430152.43847  23232897.8814   23232896.8694
      3041.5784
   5861996.67749   4549784.66647  22321197.5684   22321195.0374
     -2029.0474
  -6647038.90749  -5165168.04348  20418014.2874   20418012.2684
      2042.6724
  -7773899.28549  -6047405.48547  22619876.9434   22619874.6974
      3201.2974
 04  9  7 21 48 59.9980000  0  7G 3G 8G13G10G23G27G19
  -5221568.95249  -4053091.27547  22390708.5844   22390708.9244
       943.7344
 -10832096.52549  -8413917.47148  21262414.5534   21262413.1824
      3335.3444
  -1562479.37149  -1214254.56748  19947771.2644   19947769.0064
       -35.9064
  -3176294.84549  -2465669.37647  23224224.3114   23224223.6074
      3035.6094
   5892443.48149   4573509.41147  22326992.4124   22326989.2444
     -2030.8124
  -6677674.72449  -5189040.09948  20412184.3034   20412182.5534
      2041.9064
  -7821891.39149  -6084801.89447  22610744.3344   22610742.1824
      3197.5004
 04  9  7 21 49 14.9980000  0  7G 3G 8G13G10G23G27G19
  -5235665.07649  -4064075.26747  22388026.3574   22388026.3544
       935.6724
 -10882115.23149  -8452893.06848  21252896.1544   21252894.5614
      3333.7504
  -1561893.44549  -1213798.00648  19947882.5684   19947880.1784
       -42.2034
  -3221778.95349  -2501111.52847  23215569.5534   23215568.1314
      3028.9384
   5922923.45449   4597260.00147  22332792.4674   22332789.4864
     -2033.2974
  -6708292.74449  -5212898.28748  20406358.0454   20406356.2094
      2040.4064
  -7869818.54549  -6122147.67747  22601624.4284   22601621.4824
      3192.7504
 04  9  7 21 49 29.9980000  0  7G 3G 8G13G10G23G27G19
  -5249645.15949  -4074968.83247  22385366.3894   22385365.6474
       928.2344
 -10932113.68949  -8491852.89548  21243381.8814   21243380.6544
      3332.6094
  -1561217.31149  -1213271.17148  19948011.6074   19948009.1544
       -48.0004
  -3267165.62949  -2536477.74047  23206932.4904   23206932.0144
      3022.6414
   5953437.59649   4621037.21447  22338598.9754   22338596.1114
     -2035.3754
  -6738891.60449  -5236741.55748  20400535.4984   20400533.0534
      2039.3594
  -7917679.12349  -6159441.61747  22592516.9984   22592514.0844
      3188.5634
 04  9  7 21 49 44.9980000  0  7G 3G 8G13G10G23G27G19
  -5263515.13149  -4085776.59547  22382727.0534   22382726.5414
       920.6414
 -10982097.73449  -8530801.48548  21233870.1784   21233868.2794
      3331.4224
  -1560456.95149  -1212678.67948  19948156.2484   19948153.8264
       -53.8754
  -3312460.62049  -2571772.52547  23198312.9204   23198311.8544
      3016.2194
   5983979.69249   4644836.19847  22344411.0844   22344408.5454
     -2037.3914
  -6769477.41949  -5260574.65648  20394714.8974   20394712.7324
      2038.2194
  -7965478.92249  -6196688.17047  22583420.8974   22583418.2214
      3184.2814
 04  9  7 21 49 59.9980000  0  7G 3G 8G13G10G23G27G19
  -5277268.75749  -4096493.67947  22380110.0294   22380108.3384
       913.2664
 -11032061.03449  -8569733.90848  21224362.2954   21224361.3774
      3330.2814
  -1559606.20949  -1212015.77748  19948318.6474   19948315.4514
       -59.5784
  -3357657.40449  -2606990.80747  23189712.4754   23189711.5884
      3009.9224
   6014555.81449   4668661.71547  22350229.5764   22350226.5454
     -2039.5164
  -6800043.80749  -5284392.60848  20388898.6624   20388896.6044
      2037.2974
  -8013211.17149  -6233882.10447  22574337.6864   22574334.6744
      3180.0314
 04  9  7 21 50 14.9980000  0  7G 3G 8G13G10G23G27G19
  -5290909.25349  -4107122.64447  22377514.3814   22377512.9004
       905.9384
 -11082006.65249  -8608652.55048  21214857.9984   21214856.8034
      3329.4384
  -1558668.24349  -1211284.91348  19948496.5764   19948494.2834
       -65.1254
  -3402759.03949  -2642134.91747  23181130.1234   23181128.9084
      3003.9064
   6045162.65949   4692511.14947  22356053.5684   22356050.9754
     -2041.0944
  -6830593.94749  -5308197.90948  20383084.7564   20383083.0884
      2036.4694
  -8060878.79949  -6271025.66947  22565266.4824   22565263.8654
      3176.0004
 04  9  7 21 50 29.9980000  0  7G 3G 8G13G10G23G27G19
  -5304446.17849  -4117670.90047  22374938.1004   22374936.8344
       898.5004
 -11131944.46949  -8647565.13448  21205355.3734   21205353.8344
      3328.3134
  -1557652.76949  -1210493.63448  19948689.8894   19948687.5144
       -70.8444
  -3447775.02749  -2677212.32747  23172563.5144   23172563.5844
      2997.6414
   6075790.32849   4716376.81447  22361882.2724   22361879.1824
     -2043.0944
  -6861137.56449  -5331998.12748  20377272.8344   20377271.2294
      2035.4384
  -8108491.26049  -6308126.26247  22556206.5614   22556203.7604
      3171.7194
 04  9  7 21 50 44.9980000  0  7G 3G 8G13G10G23G27G19
  -5317868.42349  -4128129.76847  22372384.3814   22372383.1664
       890.8914
 -11181863.01349  -8686462.68648  21195856.4284   21195854.4514
      3327.1724
  -1556548.69249  -1209633.33148  19948900.1704   19948897.7174
       -76.6564
  -3492693.91549  -2712214.01447  23164015.6314   23164015.9164
      2991.2194
   6106449.82149   4740267.28947  22367717.2094   22367713.2174
     -2045.0784
  -6891663.33649  -5355784.44348  20371463.6704   20371461.6784
      2034.3754
  -8156036.93349  -6345174.80447  22547159.2174   22547156.3344
      3167.4064
 04  9  7 21 50 59.9980000  0  7G 3G 8G13G10G23G27G19
  -5331180.59549  -4138502.89747  22369851.1864   22369849.9204
       883.6414
 -11231766.98849  -8725348.87648  21186359.3504   21186358.3034
      3326.2814
  -1555360.67649  -1208707.61548  19949125.9594   19949123.5844
       -82.2194
  -3537520.01249  -2747143.43147  23155485.4204   23155484.8694
      2985.2974
   6137136.33749   4764178.80847  22373556.4124   22373553.4284
     -2046.7974
  -6922175.97849  -5379560.51948  20365657.3424   20365655.0104
      2033.5474
  -8203520.11249  -6382174.63947  22538122.7874   22538120.0724
      3163.2814
 04  9  7 21 51 14.9980000  0  8G 3G 8G13G10G23G27G19G28
  -5344379.71249  -4148787.90147  22367339.0924   22367338.1434
       876.3914
 -11281653.25849  -8764221.28048  21176866.3814   21176865.0804
      3325.4224
  -1554085.69749  -1207714.13848  19949368.6624   19949366.2564
       -87.6874
  -3582250.09449  -2781998.03247  23146972.6544   23146972.2444
      2979.0634
   6167852.60849   4788113.50747  22379401.4904   22379398.5644
     -2048.5164
  -6952672.33949  -5403323.91948  20359854.1474   20359851.8224
      2032.7974
  -8250937.45849  -6419123.17847  22529099.5224   22529096.9004
      3159.2194
   -162589.11259   -115230.49757  23696442.9824   23696443.7254
      4592.8914
 04  9  7 21 51 29.9980000  0  8G 3G 8G13G10G23G27G19G28
  -5357468.52949  -4158986.98147  22364848.1234   22364847.8504
       869.0944
 -11331524.64749  -8803082.08948  21167376.1934   21167374.7214
      3324.3594
  -1552726.52049  -1206655.04148  19949627.4364   19949625.2834
       -93.2814
  -3626886.81349  -2816779.87247  23138479.7874   23138478.5884
      2972.8914
   6198595.63949   4812069.06847  22385251.4284   22385248.4904
     -2050.3124
  -6983155.27549  -5427076.84848  20354053.5614   20354051.5414
      2031.8914
  -8298291.66549  -6456022.53447  22520088.0534   22520085.6784
      3154.9694
   -231481.31249   -168912.62447  23683333.4754   23683334.0804
      4592.8914
 04  9  7 21 51 44.9980000  0  8G 3G 8G13G10G23G27G19G28
  -5370451.61749  -4169103.67047  22362377.1624   22362377.3734
       861.7344
 -11381385.42949  -8841934.62748  21157887.6624   21157886.2484
      3323.4384
  -1551287.66549  -1205533.86848  19949901.2644   19949898.7404
       -98.9374
  -3671434.46549  -2851492.31447  23130002.0534   23130001.2174
      2966.6414
   6229360.87749   4836041.95147  22391105.7794   22391102.4514
     -2052.0624
  -7013629.27249  -5450822.80348  20348254.3974   20348252.3974
      2031.0004
  -8345586.80749  -6492875.84147  22511088.1544   22511086.2754
      3150.7344
   -300377.62649   -222597.99747  23670222.8894   23670223.8974
      4592.8444
 04  9  7 21 51 59.9980000  0  8G 3G 8G13G10G23G27G19G28
  -5383321.31149  -4179131.99447  22359928.2484   22359928.3654
       854.5164
 -11431227.98749  -8880772.96948  21148402.9984   21148401.8854
      3322.6094
  -1549761.73249  -1204344.83648  19950191.6154   19950189.1864
      -104.2344
  -3715885.26549  -2886129.29147  23121543.4284   23121542.7484
      2960.5004
   6260155.57549   4860037.78147  22396965.5294   22396963.1744
     -2053.5784
  -7044086.81049  -5474555.95748  20342458.9904   20342456.7404
      2030.3444
  -8392814.89349  -6529676.90547  22502100.6474   22502098.6744
      3146.6564
   -369270.39449   -276280.61146  23657112.4284   23657112.9044
      4593.2034
 04  9  7 21 52 14.9980000  0  8G 3G 8G13G10G23G27G19G28
  -5396077.57149  -4189071.93647  22357501.5294   22357501.3264
       846.8284
 -11481052.34349  -8919597.13248  21138921.5764   21138920.7524
      3321.2194
  -1548148.60549  -1203087.85748  19950498.1004   19950495.8264
      -110.2194
  -3760239.05249  -2920690.67647  23113102.8424   23113102.9084
      2953.8754
   6290979.63349   4884056.47047  22402830.7174   22402828.7054
     -2055.7344
  -7074527.71249  -5498276.13448  20336665.8034   20336663.6974
      2029.0944
  -8439975.64849  -6566425.51047  22493126.3574   22493123.9044
      3142.0314
   -438159.30849   -329960.19147  23644003.3574   23644004.6584
      4592.5474
 04  9  7 21 52 29.9980000  0  8G 3G 8G13G10G23G27G19G28
  -5408723.53449  -4198925.90947  22355094.9124   22355094.4794
       838.9224
 -11530861.62349  -8958409.53648  21129443.5684   21129442.3574
      3319.5944
  -1546451.43749  -1201765.41248  19950821.5454   19950819.0764
      -116.5004
  -3804498.63849  -2955178.66647  23104681.1154   23104680.0294
      2946.8754
   6321829.74249   4908095.45847  22408701.6624   22408699.0964
     -2058.1254
  -7104955.10049  -5521985.78248  20330875.8034   20330873.7954
      2027.5164
  -8487071.71749  -6603123.71947  22484164.8424   22484161.3654
      3137.0784
   -507047.21549   -383638.99547  23630894.1234   23630896.2294
      4591.9694
 04  9  7 21 52 44.9980000  0  8G 3G 8G13G10G23G27G19G28
  -5421258.96749  -4208693.77347  22352709.7564   22352708.3114
       832.2344
 -11580655.47049  -8997209.92548  21119968.3114   21119966.3224
      3319.3134
  -1544669.97049  -1200377.28448  19951160.6074   19951158.2294
      -121.3594
  -3848663.52549  -2989592.84347  23096276.6004   23096275.5374
      2941.3444
   6352706.04249   4932154.87347  22414577.4754   22414574.9434
     -2059.0164
  -7135368.69349  -5545684.68048  20325088.4824   20325086.3304
      2027.3754
  -8534102.63849  -6639771.15947  22475214.9284   22475212.1974
      3133.4224
   -575933.70349   -437316.67647  23617785.6544   23617786.5104
      4592.5944
 04  9  7 21 52 59.9980000  0  8G 3G 8G13G10G23G27G19G28
  -5433690.45949  -4218380.65847  22350343.6544   22350343.3384
       825.0944
 -11630440.46149  -9036003.41848  21110494.3814   21110493.0804
      3318.5634
  -1542810.81649  -1198928.59148  19951514.0064   19951511.7094
      -126.6094
  -3892740.13649  -3023938.23247  23087889.1394   23087888.2724
      2935.4384
   6383601.55149   4956229.23447  22420456.8424   22420454.4634
     -2060.4844
  -7165775.06449  -5569377.95648  20319302.2794   20319300.1934
      2026.7504
  -8581074.66749  -6676372.70547  22466276.4284   22466274.0724
      3129.3444
   -644825.15349   -490998.22647  23604676.2794   23604677.0294
      4592.7664
 04  9  7 21 53 14.9980000  0  8G 3G 8G13G10G23G27G19G28
  -5446012.87949  -4227982.51647  22347999.6544   22347998.4204
       817.8134
 -11680211.20049  -9074785.78248  21101023.1864   21101021.7134
      3317.4534
  -1540868.85149  -1197415.38148  19951884.0844   19951881.4984
      -132.2664
  -3936723.19149  -3058210.72047  23079519.4904   23079519.0804
      2928.9844
   6414521.23549   4980322.44947  22426340.4824   22426338.3694
     -2062.2504
  -7196169.06649  -5593061.58748  20313518.2174   20313516.0804
      2025.7504
  -8627982.40949  -6712924.15247  22457350.2564   22457347.2914
      3124.8914
   -713716.31049   -544679.57847  23591566.4594   23591567.8074
      4592.6254
 04  9  7 21 53 29.9980000  0  8G 3G 8G13G10G23G27G19G28
  -5458225.44649  -4237498.81747  22345675.1934   22345674.4004
       810.5164
 -11729967.08649  -9113556.58948  21091554.8654   21091553.8774
      3316.5164
  -1538843.46549  -1195837.15248  19952269.3734   19952266.6234
      -137.8444
  -3980611.60749  -3092409.48147  23071167.7724   23071167.1394
      2922.7034
   6445465.76649   5004435.00747  22432228.7094   22432226.3304
     -2063.7814
  -7226549.86949  -5616734.93748  20307737.0224   20307734.4004
      2024.9384
  -8674824.78449  -6749424.66747  22448435.5924   22448433.8264
      3120.6564
   -782606.13149   -598359.85447  23578457.4904   23578458.0574
      4592.5314
 04  9  7 21 53 44.9980000  0  8G 3G 8G13G10G23G27G19G28
  -5470328.91749  -4246930.09047  22343371.9204   22343370.9754
       803.2504
 -11779708.74549  -9152316.31648  21082089.2254   21082088.0724
      3315.6884
  -1536735.52849  -1194194.59948  19952670.2174   19952668.2094
      -143.3284
  -4024406.05649  -3126535.02047  23062833.7724   23062832.5494
      2916.4064
   6476434.19049   5028566.21047  22438122.7094   22438119.5454
     -2065.3594
  -7256918.30549  -5640398.65448  20301958.0374   20301956.3734
      2024.1724
  -8721602.11949  -6785874.51347  22439535.0144   22439532.0764
      3116.2814
   -851495.14149   -652039.55047  23565347.9044   23565348.6704
      4592.5634
 04  9  7 21 53 59.9980000  0  8G 3G 8G13G10G23G27G19G28
  -5482324.85649  -4256277.55847  22341089.3974   22341088.1974
       796.1564
 -11829437.76749  -9191066.18448  21072626.4674   21072624.6234
      3314.8444
  -1534546.64449  -1192489.00148  19953087.0924   19953084.4674
      -148.6414
  -4068107.90849  -3160588.39247  23054517.8264   23054516.2724
      2910.3594
   6507424.67949   5052714.58947  22444020.3504   22444017.3934
     -2066.7344
  -7287275.87149  -5664053.88648  20296181.2484   20296179.4474
      2023.4844
  -8768315.76149  -6822274.72047  22430645.2564   22430642.5254
      3112.1564
   -920384.72549   -705719.66347  23552238.3504   23552239.1314
      4592.6724
 04  9  7 21 54 14.9980000  0  8G 3G 8G13G10G23G27G19G28
  -5494207.89949  -4265537.07247  22338827.5224   22338826.7484
       788.4224
 -11879148.50449  -9229801.81048  21063166.4904   21063165.5414
      3313.4384
  -1532271.32549  -1190716.02848  19953519.9044   19953517.1544
      -154.5164
  -4111711.37649  -3194565.12247  23046220.1544   23046219.1864
      2903.5944
   6538442.58149   5076884.33447  22449922.4514   22449919.7954
     -2068.8284
  -7317617.09749  -5687696.40548  20290407.4044   20290405.2524
      2022.2194
  -8814959.96949  -6858620.82647  22421769.1784   22421766.3384
      3107.3444
   -989269.28749   -759395.85247  23539130.4204   23539131.0764
      4592.1564
 04  9  7 21 54 29.9980000  0  8G 3G 8G13G10G23G27G19G28
  -5505981.99149  -4274711.68647  22336587.4044   22336586.5184
       781.4064
 -11928845.06549  -9268526.37648  21053709.9044   21053708.5184
      3312.7344
  -1529913.56849  -1188878.84548  19953968.5144   19953965.8574
      -159.8124
  -4155220.22949  -3228468.09047  23037940.7404   23037940.7294
      2897.5164
   6569483.61849   5101072.11047  22455829.1004   22455826.7524
     -2070.0784
  -7347945.94649  -5711329.26948  20284635.9044   20284633.9044
      2021.6094
  -8861538.33749  -6894915.62247  22412905.5684   22412903.0374
      3103.1254
  -1058152.50649   -813071.01447  23526022.1004   23526022.9044
      4592.2814
 04  9  7 21 54 44.9980000  0  8G 3G 8G13G10G23G27G19G28
  -5517643.93549  -4283798.91647  22334368.1624   22334367.8544
       773.1884
 -11978523.91649  -9307237.17248  21044256.1154   21044254.4554
      3310.8754
  -1527470.03049  -1186974.80448  19954433.5374   19954431.0534
      -166.3124
  -4198631.12149  -3262294.75947  23029679.7644   23029679.2134
      2890.3134
   6600550.91649   5125280.34647  22461741.7484   22461738.9004
     -2072.5164
  -7378259.06449  -5734949.88748  20278867.7874   20278865.4944
      2019.7814
  -8908047.29649  -6931156.35047  22404055.5374   22404052.6934
      3097.7034
  -1127030.99449   -866742.46447  23512914.9824   23512915.4364
      4591.1564
 04  9  7 21 54 59.9980000  0  8G 3G 8G13G10G23G27G19G28
  -5529190.44549  -4292796.19447  22332170.3734   22332170.1864
       765.9064
 -12028181.92649  -9345931.70248  21034806.7014   21034805.5844
      3309.7974
  -1524937.61049  -1185001.50948  19954915.6004   19954913.0574
      -171.8594
  -4241940.56949  -3296042.35747  23021438.3894   23021437.3544
      2883.8914
   6631647.51149   5149511.41747  22467658.6394   22467656.5294
     -2074.1564
  -7408553.18149  -5758555.67748  20273102.8264   20273101.0374
      2018.9064
  -8954483.44149  -6967340.32847  22395218.8034   22395216.2444
      3093.3134
  -1195901.33149   -920407.57847  23499810.1234   23499810.0534
      4591.0164
 04  9  7 21 55 14.9980000  0  8G 3G 8G13G10G23G27G19G28
  -5540626.77349  -4301707.59547  22329994.3894   22329993.3854
       758.6724
 -12077824.06349  -9384613.87148  21025359.9984   21025358.4434
      3308.8444
  -1522321.48849  -1182962.97648  19955413.3734   19955410.9434
      -177.2974
  -4285153.56049  -3329714.82047  23013214.9754   23013213.7994
      2877.5314
   6662768.14649   5173761.19347  22473580.4434   22473578.2254
     -2075.5474
  -7438833.56049  -5782150.78248  20267340.8974   20267338.5844
      2018.1564
  -9000851.45449  -7003471.20647  22386394.8344   22386392.4044
      3088.8594
  -1264768.35649   -974070.11647  23486703.9124   23486705.2054
      4590.9224
 04  9  7 21 55 29.9980000  0  8G 3G 8G13G10G23G27G19G28
  -5551954.37049  -4310534.27747  22327839.1004   22327837.7914
       751.7664
 -12127451.93349  -9423284.92248  21015916.2484   21015914.6784
      3308.2504
  -1519623.35349  -1180860.54748  19955926.8654   19955924.2724
      -182.4064
  -4328271.28349  -3363313.02647  23005010.5144   23005009.3544
      2871.5004
   6693911.05549   5198028.34647  22479507.6784   22479504.4474
     -2076.6724
  -7469101.54749  -5805736.22048  20261580.8654   20261578.9324
      2017.6564
  -9047152.61249  -7039550.00747  22377584.7324   22377581.1824
      3084.7194
  -1333633.49349  -1027731.16747  23473599.8034   23473600.6074
      4591.1564
 04  9  7 21 55 44.9980000  0  8G 3G 8G13G10G23G27G19G28
  -5563172.18849  -4319275.44547  22325703.8654   22325703.6584
       743.9844
 -12177064.40449  -9461943.96648  21006474.9284   21006473.8034
      3306.7344
  -1516842.11449  -1178693.35248  19956455.9754   19956453.3114
      -188.4694
  -4371292.65749  -3396836.17447  22996824.1154   22996822.5184
      2864.6564
   6725077.03849   5222313.47647  22485437.1154   22485435.2014
     -2078.7344
  -7499356.15849  -5829311.23748  20255823.3814   20255821.8144
      2016.3284
  -9093385.54249  -7075575.63147  22368786.9044   22368783.8854
      3079.6254
  -1402495.46749  -1081389.76047  23460495.5294   23460496.2484
      4590.5004
 04  9  7 21 55 59.9980000  0  8G 3G 8G13G10G23G27G19G28
  -5574279.23849  -4327930.29047  22323590.5224   22323589.7874
       736.6884
 -12226660.23849  -9500590.06048  20997037.2644   20997036.4164
      3305.7664
  -1513976.79249  -1176460.64748  19957001.4514   19956999.0764
      -193.9064
  -4414216.42749  -3430283.23447  22988655.4824   22988654.6504
      2858.2974
   6756266.92849   5246617.24747  22491372.4594   22491370.6894
     -2080.2194
  -7529596.36049  -5852875.02348  20250069.0844   20250066.9554
      2015.5004
  -9139548.90249  -7111547.04147  22360002.6314   22359999.2174
      3075.1254
  -1471353.04549  -1135044.92747  23447392.2564   23447392.9634
      4590.3444
 04  9  7 21 56 14.9980000  0  8G 3G 8G13G10G23G27G19G28
  -5585273.27049  -4336497.06047  22321498.7644   22321497.4714
       729.1884
 -12276237.08049  -9539221.35048  20987603.3114   20987601.8144
      3304.4694
  -1511025.19549  -1174160.71248  19957562.8894   19957560.1114
      -199.6414
  -4457039.95649  -3463652.21947  22980506.8034   22980505.1274
      2851.5784
   6787482.78649   5270941.24247  22497313.5224   22497310.6934
     -2081.9224
  -7559819.67949  -5876425.66848  20244318.0684   20244315.4284
      2014.3134
  -9185640.02349  -7147462.18747  22351231.2644   22351228.1114
      3070.3134
  -1540203.68749  -1188694.71847  23434290.2954   23434290.5374
      4589.8134
 04  9  7 21 56 29.9980000  0  8G 3G 8G13G10G23G27G19G28
  -5596154.04349  -4344975.57947  22319428.0764   22319427.3894
       721.4694
 -12325794.78449  -9577837.71748  20978172.7644   20978171.3384
      3303.0634
  -1507987.00949  -1171793.31548  19958140.9754   19958138.6934
      -205.6414
  -4499762.84549  -3496942.78247  22972376.8974   22972375.4044
      2844.6564
   6818724.74949   5295285.57947  22503259.0224   22503256.0374
     -2083.8594
  -7590025.96049  -5899963.02048  20238569.4594   20238567.3424
      2013.0474
  -9231658.33049  -7183320.57347  22342473.9434   22342471.0224
      3065.2504
  -1609046.95349  -1242338.72347  23421189.9204   23421190.5254
      4589.0784
 04  9  7 21 56 44.9980000  0  8G 3G 8G13G10G23G27G19G28
  -5606927.27749  -4353370.29947  22317377.9044   22317377.0724
       714.2974
 -12375338.87149  -9616443.48048  20968744.8114   20968743.5294
      3302.1414
  -1504867.91549  -1169362.87048  19958734.7404   19958732.3304
      -210.9844
  -4542390.59749  -3530159.19447  22964264.1234   22964263.2324
      2838.2974
   6849987.02149   5319645.73447  22509207.7954   22509205.4044
     -2085.2664
  -7620220.74949  -5923491.42748  20232823.4754   20232821.7954
      2012.2974
  -9277609.23749  -7219126.43747  22333729.5764   22333727.4044
      3060.8284
  -1677888.36849  -1295981.32147  23408090.1074   23408090.5924
      4589.0004
 04  9  7 21 56 59.9980000  0  8G 3G 8G13G10G23G27G19G28
  -5617585.65849  -4361675.50647  22315349.3814   22315348.4284
       706.9384
 -12424862.02449  -9655032.93648  20959320.7404   20959318.9594
      3301.0944
  -1501660.49849  -1166863.59448  19959344.9904   19959342.8304
      -216.5004
  -4584915.65749  -3563295.57847  22956172.5924   22956171.0294
      2831.9384
   6881276.67149   5344027.22947  22515161.8034   22515159.6974
     -2086.7034
  -7650396.72149  -5947005.16248  20227081.4364   20227079.3034
      2011.4064
  -9323485.07449  -7254873.81947  22325000.4514   22324997.1584
      3056.1724
  -1746720.27749  -1349616.47647  23394991.7014   23394991.8224
      4588.6884
 04  9  7 21 57 14.9980000  0  8G 3G 8G13G10G23G27G19G28
  -5628132.58249  -4369893.89047  22313343.3814   22313341.8774
       699.6414
 -12474367.38649  -9693608.52048  20949899.9434   20949898.5494
      3300.0164
  -1498368.26049  -1164298.21848  19959971.5294   19959969.1744
      -222.0474
  -4627341.23249  -3596354.47347  22948099.5764   22948098.2404
      2825.2814
   6912590.16949   5368427.31347  22521120.5924   22521118.5494
     -2088.1254
  -7680557.28049  -5970506.88648  20221342.1934   20221340.0104
      2010.4694
  -9369288.87249  -7290565.06447  22316283.5844   22316281.0964
      3051.3914
  -1815545.89549  -1403246.75347  23381894.7564   23381895.1704
      4588.3134
 04  9  7 21 57 29.9980000  0  8G 3G 8G13G10G23G27G19G28
  -5638566.67449  -4378024.35047  22311357.4204   22311356.6004
       691.6884
 -12523853.77749  -9732169.33148  20940483.1004   20940481.7174
      3298.2974
  -1494990.14149  -1161665.92148  19960614.4594   19960612.2564
      -228.2504
  -4669666.03849  -3629334.84047  22940045.2094   22940044.6274
      2818.0634
   6943928.55149   5392846.75947  22527084.4044   22527081.9714
     -2090.1564
  -7710701.00849  -5993995.50848  20215605.8734   20215604.0254
      2008.8754
  -9415019.10249  -7326198.97747  22307581.4284   22307578.7604
      3046.1094
  -1884363.77649  -1456870.99447  23368798.9594   23368799.1434
      4587.5004
 04  9  7 21 57 44.9980000  0  8G 3G 8G13G10G23G27G19G28
  -5648888.60549  -4386067.40247  22309392.8734   22309392.1584
       684.5314
 -12573321.55449  -9770715.63548  20931070.0764   20931068.4794
      3297.3754
  -1491526.72749  -1158967.15748  19961273.6784   19961270.7954
      -233.5944
  -4711890.26449  -3662236.80547  22932009.7174   22932010.1274
      2811.7664
   6975291.01549   5417284.99647  22533051.7564   22533049.9284
     -2091.4534
  -7740828.46349  -6017471.44948  20209872.8264   20209870.9984
      2008.0784
  -9460676.08449  -7361775.83347  22298893.5064   22298890.5534
      3041.4844
  -1953174.27949  -1510489.45747  23355704.7094   23355704.9754
      4587.3444
 04  9  7 21 57 59.9980000  0  8G 3G 8G13G10G23G27G19G28
  -5659093.81849  -4394019.50647  22307451.5684   22307449.6974
       676.8134
 -12622766.26549  -9809243.97348  20921660.9904   20921659.8694
      3295.8914
  -1487973.49349  -1156198.41448  19961949.6934   19961947.1664
      -239.5784
  -4754009.23149  -3695056.76547  22923994.8344   22923994.7014
      2804.7974
   7006681.94649   5441745.42147  22539025.8184   22539023.2324
     -2093.3914
  -7770935.11049  -6040931.16748  20204143.7794   20204141.6434
      2006.7974
  -9506254.89149  -7397291.75147  22290219.3504   22290217.0614
      3036.3444
  -2021972.73549  -1564098.60247  23342612.9204   23342612.4944
      4586.5004
 04  9  7 21 58 14.9980000  0  8G 3G 8G13G10G23G27G19G28
  -5669189.96449  -4401886.63447  22305529.3344   22305528.2874
       669.6094
 -12672195.27949  -9847760.06048  20912254.2954   20912253.3654
      3294.8444
  -1484338.13849  -1153365.68948  19962641.4044   19962638.6154
      -244.9844
  -4796030.29849  -3727800.44547  22915998.4364   22915997.6234
      2798.2814
   7038093.50949   5466221.90347  22545003.2564   22545001.0144
     -2094.6564
  -7801028.59049  -6064380.62948  20198417.1544   20198415.3384
      2005.9224
  -9551762.88149  -7432752.50247  22281560.0684   22281556.6894
      3031.6414
  -2090766.46949  -1617703.99447  23329521.5294   23329521.6394
      4586.2034
 04  9  7 21 58 29.9980000  0  8G 3G 8G13G10G23G27G19G28
  -5679173.32349  -4409665.87247  22303628.9364   22303628.2484
       661.8284
 -12721604.83249  -9886260.99848  20902852.3974   20902850.9594
      3293.3444
  -1480616.89749  -1150466.02748  19963349.6074   19963347.4634
      -250.9694
  -4837949.47049  -3760464.73947  22908022.2564   22908019.6074
      2791.1724
   7069529.34249   5490717.30247  22550985.6864   22550982.3304
     -2096.5164
  -7831105.02749  -6087816.81048  20192693.7644   20192691.6744
      2004.5004
  -9597195.97549  -7468154.88447  22272914.4044   22272911.2294
      3026.3754
  -2159551.45749  -1671302.62147  23316432.0684   23316431.9944
      4585.4064
 04  9  7 21 58 44.9980000  0  8G 3G 8G13G10G23G27G19G28
  -5689042.33949  -4417356.00147  22301750.9044   22301750.6004
       654.1884
 -12770993.30049  -9924745.50848  20893454.3184   20893452.8464
      3291.9224
  -1476808.08949  -1147498.14448  19964074.4044   19964072.0964
      -256.7504
  -4879764.88649  -3793048.17047  22900064.7724   22900062.3614
      2784.2344
   7100990.78849   5515232.65547  22556972.0374   22556970.2364
     -2098.1414
  -7861162.74449  -6111238.40848  20186974.2254   20186972.1234
      2003.2814
  -9642552.17449  -7503497.35747  22264283.7324   22264280.6744
      3021.2504
  -2228325.88849  -1724893.03447  23303344.4824   23303345.0804
      4584.6724
 04  9  7 21 58 59.9980000  0  8G 3G 8G13G10G23G27G19G28
  -5698794.93149  -4424955.42147  22299895.7404   22299894.9864
       646.1414
 -12820358.51449  -9963211.89448  20884060.3814   20884059.0024
      3290.0474
  -1472909.82749  -1144460.54748  19964816.4124   19964813.8934
      -263.0784
  -4921474.38149  -3825549.08647  22892127.5454   22892125.4824
      2776.9694
   7132479.85349   5539769.52447  22562964.6474   22562962.2794
     -2100.4224
  -7891199.55049  -6134643.70948  20181257.9364   20181256.1784
      2001.5784
  -9687829.07149  -7538778.02747  22255667.6704   22255664.6934
      3015.6884
  -2297087.54149  -1778473.44147  23290259.9044   23290260.2014
      4583.5004
 04  9  7 21 59 14.9980000  0  8G 3G 8G13G10G23G27G19G28
  -5708430.61949  -4432463.75447  22298062.4984   22298061.0184
       638.5784
 -12869699.73449 -10001659.58748  20874671.0454   20874669.0614
      3288.6724
  -1468921.48249  -1141352.76548  19965575.2954   19965572.9084
      -268.7814
  -4963077.10049  -3857966.78047  22884211.0144   22884209.2404
      2770.0944
   7163996.84949   5564328.17247  22568963.0534   22568959.7014
     -2101.9534
  -7921214.87349  -6158032.27048  20175546.6394   20175544.3344
      2000.4064
  -9733025.89149  -7573996.30347  22247066.7324   22247063.9044
      3010.5634
  -2365835.60749  -1832043.32647  23277177.0684   23277177.1234
      4582.8444
 04  9  7 21 59 29.9980000  0  8G 3G 8G13G10G23G27G19G28
  -5717952.64649  -4439883.50147  22296250.7484   22296250.0104
       630.8284
 -12919020.41149 -10040091.26448  20865285.1074   20865283.4904
      3287.1564
  -1464846.36049  -1138177.35748  19966350.5534   19966348.3544
      -274.7814
  -5004576.33649  -3890303.84247  22876313.6544   22876313.1864
      2763.0944
   7195538.29549   5588905.87147  22574964.2484   22574961.3184
     -2103.7034
  -7951212.13649  -6181406.76148  20169838.2874   20169836.1194
      1998.9844
  -9778145.52649  -7609154.44347  22238480.8654   22238477.8694
      3005.2504
  -2434573.15149  -1885604.97647  23264096.5374   23264096.9164
      4581.9224
 04  9  7 21 59 44.9980000  0  8G 3G 8G13G10G23G27G19G28
  -5727359.90949  -4447213.84547  22294460.9514   22294460.0884
       623.2034
 -12968319.19749 -10078505.89248  20855904.0924   20855902.1894
      3285.8134
  -1460683.43249  -1134933.53348  19967142.9434   19967140.9394
      -280.5624
  -5045970.61249  -3922559.09447  22868435.7564   22868436.2834
      2756.0944
   7227105.18849   5613503.38047  22580971.6474   22580968.9324
     -2105.4064
  -7981189.97149  -6204766.11048  20164133.5764   20164131.7604
      1997.7814
  -9823186.51449  -7644251.26647  22229909.7954   22229906.8614
      3000.0004
  -2503298.84849  -1939157.36547  23251018.3574   23251018.5334
      4581.2194
 04  9  7 21 59 59.9980000  0  8G 3G 8G13G10G23G27G19G28
  -5736652.18649  -4454454.56447  22292691.7954   22292692.1394
       615.3594
 -13017595.56849 -10116903.04848  20846527.0684   20846525.7254
      3284.0634
  -1456432.43949  -1131621.07848  19967951.9204   19967949.1584
      -286.6564
  -5087259.40449  -3954732.17947  22860579.8184   22860579.0294
      2748.7194
   7258697.66349   5638120.85047  22586982.9984   22586981.0454
     -2107.2974
  -8011147.99749  -6228110.01948  20158433.0294   20158431.3144
      1996.2194
  -9868148.14549  -7679286.28247  22221353.5064   22221351.2794
      2994.5314
  -2572012.05749  -1992700.02647  23237942.7174   23237943.4004
      4580.2034
 04  9  7 22  0 14.9980000  0  8G 3G 8G13G10G23G27G19G28
  -5745826.26249  -4461603.20247  22290946.3654   22290946.1234
       607.7034
 -13066846.43649 -10155280.33048  20837155.0144   20837153.6934
      3282.5784
  -1452090.25949  -1128237.57948  19968777.8654   19968775.9474
      -292.4534
  -5128439.48349  -3986820.52947  22852743.5764   22852742.1234
      2741.7344
   7290318.63549   5662760.50547  22593000.7174   22592998.2254
     -2108.9694
  -8041083.09549  -6251436.06548  20152736.4984   20152734.2294
      1994.9534
  -9913027.10049  -7714256.86447  22212813.7874   22212810.8734
      2989.1884
  -2640709.50949  -2046230.43847  23224870.2404   23224870.1194
      4579.4064
 04  9  7 22  0 29.9980000  0  8G 3G 8G13G10G23G27G19G28
  -5754880.97549  -4468658.82347  22289223.4434   22289223.1894
       599.5634
 -13116070.40949 -10193636.65348  20827787.8114   20827786.6274
      3280.6254
  -1447655.40749  -1124781.86548  19969621.8034   19969620.0684
      -298.8124
  -5169509.33849  -4018823.02847  22844927.6074   22844926.1784
      2734.2664
   7321969.13349   5687423.17847  22599023.7794   22599021.4434
     -2111.1094
  -8070993.93249  -6274743.21448  20147044.7324   20147042.3304
      1993.1564
  -9957821.77249  -7749161.76947  22204289.5534   22204286.9164
      2983.4384
  -2709389.64649  -2099747.33647  23211801.1474   23211801.6044
      4578.0314
 04  9  7 22  0 44.9980000  0  8G 3G 8G13G10G23G27G19G28
  -5763821.53149  -4475625.47847  22287522.2324   22287521.1154
       592.1094
 -13165272.54049 -10231975.96048  20818424.8184   20818423.8544
      3279.2814
  -1443133.47449  -1121258.29548  19970482.5764   19970480.1044
      -304.4844
  -5210473.83749  -4050743.38747  22837131.9284   22837130.8774
      2727.4064
   7353643.97849   5712104.81847  22605050.8894   22605048.7174
     -2112.5624
  -8100885.49449  -6298035.33048  20141356.3264   20141354.1544
      1992.0164
 -10002536.92849  -7784004.71547  22195780.4284   22195777.6074
      2978.1884
  -2778057.43349  -2153254.64247  23198734.2014   23198733.8504
      4577.4064
 04  9  7 22  0 59.9980000  0  8G 3G 8G13G10G23G27G19G28
  -5772645.79549  -4482501.52547  22285842.1074   22285841.8654
       584.0944
 -13214450.90849 -10270296.76448  20809066.8114   20809065.4754
      3277.4384
  -1438522.37749  -1117665.23948  19971360.2254   19971357.6074
      -310.7344
  -5251330.79449  -4082579.99947  22829357.3814   22829356.5334
      2719.8284
   7385345.02649   5736806.86547  22611083.7564   22611081.1934
     -2114.5944
  -8130755.76449  -6321310.87348  20135672.5454   20135670.4124
      1990.2664
 -10047170.28849  -7818783.94047  22187286.6934   22187284.4554
      2972.4384
  -2846710.69049  -2206750.62247  23185669.4364   23185669.1544
      4576.0164
 04  9  7 22  1 14.9980000  0  8G 3G 8G13G10G23G27G19G28
  -5781351.31249  -4489285.02547  22284186.1154   22284184.5844
       576.1414
 -13263602.72949 -10308596.86948  20799713.4044   20799711.8464
      3275.6254
  -1433819.48549  -1114000.66048  19972254.9824   19972252.3574
      -316.8914
  -5292077.53349  -4114330.68747  22821603.2874   22821602.9514
      2712.4844
   7417074.61249   5761531.18047  22617121.5374   22617118.8654
     -2116.5314
  -8160602.03849  -6344567.69448  20129992.4674   20129990.8504
      1988.7344
 -10091718.99049  -7853497.16947  22178809.4364   22178806.5884
      2966.7974
  -2915346.53749  -2260233.03947  23172608.2874   23172608.2914
      4574.8914
 04  9  7 22  1 29.9980000  0  8G 3G 8G13G10G23G27G19G28
  -5789941.17649  -4495978.44547  22282551.1474   22282549.5104
       569.0004
 -13312730.95849 -10346878.59948  20790364.4754   20790363.1154
      3274.5634
  -1429027.94249  -1110267.00148  19973166.7174   19973163.9824
      -322.2504
  -5332716.82049  -4145997.66947  22813870.0144   22813869.9164
      2705.7814
   7448829.56149   5786275.22547  22623164.1864   22623161.8574
     -2117.6874
  -8190427.45349  -6367808.27648  20124317.1704   20124314.8854
      1987.7974
 -10136185.68349  -7888146.50347  22170348.1074   22170345.0024
      2961.8594
  -2983967.81849  -2313704.07647  23159550.1784   23159550.0574
      4574.3284
 04  9  7 22  1 44.9980000  0  8G 3G 8G13G10G23G27G19G28
  -5798419.96849  -4502585.29647  22280937.6624   22280936.0804
       561.3284
 -13361840.06049 -10385145.41548  20781019.7484   20781018.4634
      3273.0944
  -1424152.37749  -1106467.86148  19974094.5924   19974091.8224
      -328.0164
  -5373253.19049  -4177584.43947  22806156.9364   22806156.2794
      2698.7814
   7480605.04749   5811035.29347  22629211.2404   22629209.0494
     -2119.3284
  -8220236.54649  -6391036.13948  20118644.7174   20118642.7834
      1986.4844
 -10180574.76949  -7922735.37047  22161900.6004   22161897.9434
      2956.4534
  -3052578.90649  -2367167.18347  23146494.1004   23146493.9904
      4573.5164
 04  9  7 22  1 59.9980000  0  8G 3G 8G13G10G23G27G19G28
  -5806778.69449  -4509098.57847  22279346.9674   22279346.1744
       553.6414
 -13410920.91249 -10423390.23148  20771679.5374   20771677.7954
      3271.5474
  -1419183.79249  -1102596.26448  19975040.0224   19975037.6864
      -333.9534
  -5413677.42749  -4209083.83547  22798464.0684   22798463.6434
      2691.5314
   7512409.75149   5835818.11847  22635263.1544   22635260.9714
     -2120.9374
  -8250020.20449  -6414244.19048  20112977.0534   20112974.7564
      1985.0944
 -10224876.85849  -7957256.45547  22153470.1544   22153467.0414
      2950.9844
  -3121170.63849  -2420615.20047  23133441.2404   23133441.1974
      4572.5004
 04  9  7 22  2 14.9980000  0  8G 3G 8G13G10G23G27G19G28
  -5815017.99049  -4515518.80947  22277778.9284   22277777.7874
       544.8914
 -13459974.04949 -10461613.43948  20762345.3574   20762343.2564
      3268.9064
  -1414122.85649  -1098652.68548  19976003.0534   19976000.8264
      -340.8284
  -5453989.82849  -4240496.09147  22790792.9824   22790791.8304
      2683.3754
   7544243.06949   5860623.23347  22641321.6314   22641318.7914
     -2123.6094
  -8279778.98749  -6437432.83848  20107313.9754   20107312.2214
      1982.6724
 -10269092.14049  -7991709.89047  22145056.4284   22145053.4594
      2944.4064
  -3189743.46149  -2474048.48847  23120391.6004   23120392.1274
      4570.5004
 04  9  7 22  2 29.9980000  0  8G 3G 8G13G10G23G27G19G28
  -5823136.66249  -4521845.03247  22276234.3034   22276233.5494
       537.4064
 -13508998.33049 -10499814.16348  20753016.0614   20753014.5764
      3267.4384
  -1408968.30649  -1094636.17248  19976983.9124   19976981.5104
      -346.6254
  -5494188.98449  -4271820.09647  22783142.7254   22783142.3614
      2676.3754
   7576105.92749   5885451.40947  22647385.0064   22647382.0844
     -2125.0944
  -8309511.57849  -6460601.08948  20101656.1544   20101654.0294
      1981.4384
 -10313219.16449  -8026094.53447  22136659.3504   22136656.2054
      2939.0164
  -3258295.88649  -2527465.88747  23107347.0224   23107347.3114
      4569.5474
 04  9  7 22  2 44.9980000  0  8G 3G 8G13G10G23G27G19G28
  -5831137.12149  -4528079.15947  22274712.4984   22274711.4514
       529.5164
 -13557995.57149 -10537993.81748  20743692.5924   20743690.8074
      3265.6564
  -1403722.69349  -1090548.69348  19977982.2174   19977979.5884
      -352.6254
  -5534276.99049  -4303057.47847  22775514.4124   22775513.3504
      2668.9384
   7607995.93249   5910300.68447  22653453.6004   22653450.8854
     -2126.8284
  -8339220.22449  -6483750.68448  20096002.6004   20096000.3034
      1979.8754
 -10357259.90249  -8060411.97647  22128278.8654   22128275.5534
      2933.2974
  -3326829.85449  -2580868.88747  23094305.5224   23094305.2644
      4568.5004
 04  9  7 22  2 59.9980000  0  8G 3G 8G13G10G23G27G19G28
  -5839020.18449  -4534221.82247  22273212.0454   22273211.8264
       521.2344
 -13606966.72949 -10576153.13848  20734373.0764   20734371.7134
      3263.5314
  -1398386.67649  -1086390.77448  19978997.9984   19978995.1584
      -359.1564
  -5574254.40749  -4334208.73547  22767907.0064   22767906.1974
      2661.1254
   7639912.19049   5935170.43247  22659526.3974   22659524.1474
     -2129.0624
  -8368905.66249  -6506882.18048  20090354.1074   20090352.1824
      1977.8754
 -10401214.86949  -8094662.56847  22119914.0924   22119911.0024
      2927.1414
  -3395345.91049  -2634257.96147  23081266.6474   23081267.0844
      4566.7814
 04  9  7 22  3 14.9980000  0  8G 3G 8G13G10G23G27G19G28
  -5846781.39249  -4540269.51247  22271734.9044   22271734.6744
       513.0314
 -13655907.19049 -10614288.56148  20725060.5374   20725058.9364
      3261.3754
  -1392955.99149  -1082159.07948  19980031.1934   19980028.3344
      -365.5004
  -5614116.66149  -4365270.22147  22760321.6474   22760320.0254
      2653.2664
   7671858.87249   5960063.90147  22665606.1934   22665603.3544
     -2131.1094
  -8398563.27649  -6529992.00848  20084710.0614   20084708.3304
      1975.9694
 -10445079.27049  -8128842.58947  22111567.0224   22111564.2054
      2920.9844
  -3463839.49449  -2687629.47647  23068233.2794   23068233.0224
      4565.2034
 04  9  7 22  3 29.9980000  0  8G 3G 8G13G10G23G27G19G28
  -5854421.41849  -4546222.78847  22270281.6154   22270281.1354
       505.4064
 -13704817.58849 -10652400.53548  20715752.9044   20715751.6744
      3259.8594
  -1387431.12249  -1077854.00248  19981082.6394   19981080.2644
      -371.2974
  -5653864.23549  -4396242.35047  22752758.4204   22752756.5574
      2646.2034
   7703835.13249   5984980.41347  22671691.8034   22671688.9204
     -2132.5314
  -8428193.77549  -6553080.71048  20079071.5684   20079069.7294
      1974.6884
 -10488853.39949  -8162952.27347  22103237.4754   22103234.1864
      2915.3914
  -3532311.04249  -2740983.86447  23055203.3034   23055203.1194
      4564.2504
 04  9  7 22  3 44.9980000  0  8G 3G 8G13G10G23G27G19G28
  -5861943.15649  -4552083.86647  22268849.9514   22268850.3144
       497.4694
 -13753700.67149 -10690491.24248  20706450.8424   20706449.5884
      3257.8594
  -1381814.96049  -1073477.77848  19982151.2094   19982148.7214
      -377.5004
  -5693499.61349  -4427127.03347  22745215.6074   22745214.8504
      2638.4224
   7735837.97949   6009917.64147  22677781.6004   22677778.9984
     -2134.3914
  -8457799.92949  -6576150.43248  20073437.4594   20073435.6394
      1972.8444
 -10532539.75149  -8196993.56647  22094924.0374   22094921.0724
      2909.3754
  -3600763.14349  -2794323.09347  23042177.6864   23042177.2684
      4562.7664
 04  9  7 22  3 59.9980000  0  8G 3G 8G13G10G23G27G19G28
  -5869344.96649  -4557851.53447  22267441.0224   22267441.6934
       489.3134
 -13802554.53149 -10728559.16548  20697154.4754   20697153.0294
      3255.8134
  -1376105.97849  -1069029.22948  19983237.5454   19983234.8894
      -383.8124
  -5733021.07149  -4457922.99947  22737695.4514   22737693.9634
      2630.8284
   7767868.85649   6034876.68147  22683875.3814   22683873.5454
     -2136.5164
  -8487379.91849  -6599199.77648  20067809.0224   20067806.6504
      1970.9534
 -10576136.45449  -8230964.98447  22086627.2954   22086625.0294
      2903.2814
  -3669193.91649  -2847645.71447  23029155.9904   23029154.9084
      4561.1414
 04  9  7 22  4 14.9980000  0  8G 3G 8G13G10G23G27G19G28
  -5876626.58349  -4563525.50447  22266055.5764   22266055.6744
       481.5634
 -13851379.10549 -10766604.27648  20687863.0144   20687861.5964
      3254.1564
  -1370304.03849  -1064508.25748  19984341.5294   19984339.1154
      -389.7974
  -5772428.24149  -4488629.86147  22730196.0924   22730195.3264
      2623.4694
   7799927.83849   6059857.66747  22689978.2014   22689974.3614
     -2138.0624
  -8516933.48249  -6622228.52748  20062185.1154   20062183.3114
      1969.4384
 -10619642.94349  -8264866.12147  22078348.8574   22078346.0224
      2897.4844
  -3737602.94449  -2900951.37447  23016138.0924   23016137.2054
      4559.9064
 04  9  7 22  4 29.9980000  0  8G 3G 8G13G10G23G27G19G28
  -5883785.91749  -4569104.22147  22264693.1004   22264692.9164
       473.3754
 -13900172.09249 -10804624.77848  20678578.0924   20678576.7914
      3251.9064
  -1364406.87249  -1059913.06348  19985464.1074   19985461.5374
      -396.2034
  -5811718.64449  -4519245.74347  22722718.6864   22722718.6894
      2615.6254
   7832017.15549   6084862.27647  22696083.6474   22696081.0184
     -2140.2034
  -8546458.37349  -6645234.93148  20056566.6474   20056564.5924
      1967.4694
 -10663056.66249  -8298694.96447  22070087.1004   22070084.3224
      2891.2974
  -3805987.64049  -2954238.05147  23003123.9824   23003124.1584
      4558.3284
 04  9  7 22  4 44.9980000  0  8G 3G 8G13G10G23G27G19G28
  -5890826.19249  -4574590.13847  22263353.4594   22263353.2484
       465.2034
 -13948936.50349 -10842622.99748  20669298.5454   20669297.0684
      3249.8134
  -1358417.83749  -1055246.29548  19986603.7724   19986601.1394
      -402.5314
  -5850895.34549  -4549773.05047  22715263.7874   22715263.3934
      2607.7664
   7864133.36349   6109887.83947  22702195.3504   22702192.8854
     -2142.0944
  -8575957.66249  -6668221.38148  20050953.2254   20050950.8384
      1965.5944
 -10706380.47549  -8332453.76647  22061843.1704   22061839.9004
      2885.0944
  -3874351.09049  -3007508.22947  22990114.4824   22990114.6824
      4556.7344
 04  9  7 22  4 59.9980000  0  8G 3G 8G13G10G23G27G19G28
  -5897745.26049  -4579981.63447  22262036.1864   22262036.5964
       457.3914
 -13997669.80249 -10880596.99148  20660025.3574   20660023.2214
      3248.0784
  -1352334.81149  -1050506.28648  19987761.0374   19987758.6934
      -408.4844
  -5889956.07949  -4580209.96547  22707831.1394   22707830.0334
      2600.2344
   7896278.40949   6134935.85947  22708312.3114   22708309.9084
     -2143.7974
  -8605429.11349  -6691186.14148  20045344.7014   20045342.6784
      1964.0314
 -10749612.01849  -8366140.64447  22053616.1154   22053613.3464
      2879.1414
  -3942690.92949  -3060759.92747  22977110.5764   22977110.2684
      4555.3914
 04  9  7 22  5 14.9980000  0  8G 3G 8G13G10G23G27G19G28
  -5904538.90549  -4585275.37547  22260743.9754   22260743.5614
       448.7814
 -14046367.79349 -10918543.45548  20650758.3184   20650756.6824
      3245.3914
  -1346153.48449  -1045689.67548  19988937.4904   19988935.1584
      -415.3444
  -5928896.33349  -4610553.01947  22700420.9824   22700420.0414
      2592.0634
   7928456.29749   6160009.46647  22714435.3894   22714432.9324
     -2146.2344
  -8634868.41349  -6714125.84848  20039742.6074   20039740.5224
      1961.5784
 -10792746.69749  -8399752.06347  22045408.2954   22045405.2604
      2872.4384
  -4011002.65049  -3113989.76647  22964110.8344   22964111.0844
      4553.2814
 04  9  7 22  5 29.9970000  0  8G 3G 8G13G10G23G27G19G28
  -5911208.99449  -4590472.84747  22259474.3764   22259473.3964
       440.4534
 -14095029.51449 -10956461.68248  20641498.1814   20641496.4934
      3243.0784
  -1339876.69949  -1040798.67848  19990131.9314   19990129.1424
      -421.8444
  -5967715.54649  -4640801.76047  22693034.4704   22693032.6104
      2584.0784
   7960662.44649   6185105.10347  22720564.3294   22720561.5404
     -2148.4064
  -8664275.88849  -6737040.77348  20034146.3684   20034144.3994
      1959.4534
 -10835783.56149  -8433287.25147  22037218.7904   22037215.5094
      2865.9844
  -4079283.71949  -3167195.73447  22951117.6104   22951117.4034
      4551.3444
 04  9  7 22  5 44.9970000  0  8G 3G 8G13G10G23G27G19G28
  -5917755.69849  -4595574.17047  22258229.1734   22258227.3174
       432.2974
 -14143660.60449 -10994356.01148  20632243.7594   20632242.0874
      3240.9534
  -1333502.55549  -1035831.83548  19991344.6814   19991342.3804
      -428.1874
  -6006417.88349  -4670959.40747  22685669.3764   22685668.2514
      2576.0784
   7992901.91949   6210226.71347  22726699.4544   22726696.8064
     -2150.3124
  -8693654.46349  -6759933.15948  20028555.8534   20028553.8844
      1957.5474
 -10878727.23249  -8466749.82847  22029046.0014   22029043.5134
      2859.7504
  -4147542.13849  -3220384.04547  22938128.4314   22938127.7944
      4549.6884
 04  9  7 22  5 59.9970000  0  8G 3G 8G13G10G23G27G19G28
  -5924180.52449  -4600580.52947  22257006.3994   22257004.3024
       424.3284
 -14192259.54349 -11032225.29948  20622995.4624   20622994.1654
      3238.9064
  -1327033.67749  -1030791.17448  19992575.9384   19992573.2554
      -434.3444
  -6045002.66649  -4701025.46947  22678327.1734   22678326.1384
      2568.4534
   8025170.34249   6235370.87847  22732840.6884   22732837.9194
     -2152.1414
  -8723004.01349  -6782802.92948  20022970.8844   20022968.7594
      1955.7194
 -10921576.44449  -8500138.80547  22020892.5404   22020889.5634
      2853.5164
  -4215775.14849  -3273552.57647  22925143.7594   22925143.6144
      4548.0944
 04  9  7 22  6 14.9970000  0  8G 3G 8G13G10G23G27G19G28
  -5930485.97449  -4605493.85447  22255806.5484   22255804.5214
       416.3594
 -14240828.48149 -11070071.22348  20613753.6034   20613751.6734
      3236.9384
  -1320472.53149  -1025678.60448  19993824.2904   19993821.7594
      -440.5004
  -6083471.98049  -4731001.55947  22671006.3844   22671004.8724
      2560.7814
   8057465.09949   6260535.56047  22738984.8534   22738982.8534
     -2153.8444
  -8752326.99349  -6805652.01048  20017390.9384   20017389.2284
      1954.0314
 -10964333.28249  -8533455.79447  22012756.2124   22012752.6694
      2847.3284
  -4283984.98549  -3326703.01647  22912162.7434   22912163.5994
      4546.5004
 04  9  7 22  6 29.9970000  0  8G 3G 8G13G10G23G27G19G28
  -5936668.91749  -4610311.73447  22254630.5634   22254628.2244
       408.3284
 -14289364.35549 -11107891.36748  20604517.5404   20604515.7354
      3234.7814
  -1313816.10149  -1020491.78648  19995091.3374   19995088.8374
      -446.7344
  -6121822.48849  -4760885.06447  22663708.1574   22663707.9664
      2552.8594
   8089789.21349   6285723.10547  22745135.4544   22745133.6034
     -2155.7814
  -8781620.06149  -6828477.76648  20011816.6424   20011814.3764
      1952.0784
 -11006994.31349  -8566698.14147  22004638.0874   22004634.3604
      2841.0634
  -4352168.29749  -3379832.79347  22899189.2744   22899188.8764
      4544.9224
 04  9  7 22  6 44.9970000  0  8G 3G 8G13G10G23G27G19G28
  -5942729.69249  -4615034.39447  22253476.7124   22253475.8134
       400.1094
 -14337867.48149 -11145686.00148  20595287.1964   20595285.5994
      3232.5634
  -1307064.52749  -1015230.84048  19996375.9544   19996373.5714
      -453.1564
  -6160054.26749  -4790676.05747  22656432.9784   22656432.2394
      2544.9384
   8122142.31449   6310933.24547  22751291.7824   22751290.4664
     -2157.8284
  -8810883.40249  -6851280.37248  20006248.1884   20006246.1614
      1950.0474
 -11049559.51149  -8599865.80647  21996538.1494   21996535.0524
      2834.6254
  -4420324.95849  -3432941.80247  22886219.2744   22886219.7984
      4542.9064
 04  9  7 22  6 59.9970000  0  8G 3G 8G13G10G23G27G19G28
  -5948669.40049  -4619662.75547  22252346.0634   22252346.0324
       391.7664
 -14386338.65549 -11183455.72848  20586063.8214   20586062.1224
      3230.2814
  -1300219.08749  -1009896.74548  19997678.5484   19997675.8174
      -459.5784
  -6198168.39849  -4820375.36147  22649180.4784   22649179.7864
      2536.8444
   8154522.98149   6336164.87547  22757453.7434   22757452.7904
     -2159.7664
  -8840118.20249  -6874060.72048  20000684.9154   20000683.0054
      1947.8914
 -11092029.65249  -8632959.38447  21988456.1034   21988452.8024
      2828.0784
  -4488456.05849  -3486030.89747  22873255.3764   22873254.9194
      4541.1724
 04  9  7 22  7 14.9970000  0  8G 3G 8G13G10G23G27G19G28
  -5954490.61349  -4624198.77247  22251237.7674   22251238.9704
       383.8594
 -14434780.19649 -11221202.36748  20576845.5014   20576844.0714
      3228.2034
  -1293282.28849  -1004491.45448  19998998.6654   19998996.4854
      -465.7344
  -6236167.05149  -4849984.71547  22641949.7514   22641948.6734
      2529.0474
   8186928.63349   6361415.97447  22763621.3214   22763618.8684
     -2161.4374
  -8869326.83749  -6896820.69548  19995126.5634   19995124.5444
      1946.1254
 -11134406.98449  -8665980.66147  21980391.8844   21980389.1854
      2821.7664
  -4556563.64649  -3539101.67747  22860294.7354   22860294.3724
      4539.4534
 04  9  7 22  7 29.9970000  0  8G 3G 8G13G10G23G27G19G28
  -5960189.73949  -4628639.65347  22250153.7124   22250154.3604
       375.6094
 -14483188.30549 -11258922.96548  20567633.7284   20567632.3414
      3225.7814
  -1286250.44149   -999012.10448  20000336.6104   20000334.4234
      -472.1724
  -6274046.46349  -4879501.11947  22634740.8604   22634740.2824
      2521.0314
   8219362.75049   6386689.25547  22769793.4934   22769791.4974
     -2163.5314
  -8898505.46449  -6919557.28048  19989574.1494   19989572.1224
      1943.9534
 -11176687.43649  -8698926.44247  21972346.8764   21972343.8064
      2815.1564
  -4624643.92349  -3592151.16647  22847338.7124   22847338.4114
      4537.4384
 04  9  7 22  7 44.9970000  0  8G 3G 8G13G10G23G27G19G28
  -5965764.57349  -4632983.68447  22249093.2284   22249093.2004
       367.4534
 -14531560.80849 -11296615.81448  20558428.8134   20558427.5404
      3223.5634
  -1279121.34649   -993456.97648  20001693.0954   20001691.0794
      -478.5944
  -6311804.23549  -4908922.75247  22627556.0794   22627554.8494
      2513.0944
   8251827.36449   6411986.29547  22775971.7044   22775969.0994
     -2165.3124
  -8927651.82549  -6942268.72648  19984027.7984   19984025.7164
      1941.9384
 -11218868.48249  -8731794.78247  21964319.3684   21964316.7554
      2808.7344
  -4692694.42349  -3645177.48547  22834388.4544   22834388.2084
      4535.6564
 04  9  7 22  7 59.9970000  0  8G 3G 8G13G10G23G27G19G28
  -5971218.49049  -4637233.50947  22248055.3844   22248054.5444
       359.2194
 -14579900.89549 -11334283.40648  20549229.9854   20549228.3374
      3221.2344
  -1271898.52249   -987828.80748  20003067.8454   20003065.5604
      -484.9374
  -6349443.41149  -4938251.98247  22620393.3924   22620392.4624
      2505.0164
   8284319.00549   6437304.38547  22782154.4384   22782152.3884
     -2167.3284
  -8956769.09449  -6964957.51748  19978487.0244   19978484.8374
      1939.8594
 -11260953.11249  -8764587.98247  21956311.0954   21956307.8684
      2802.0634
  -4760718.28349  -3698183.02447  22821443.5794   22821443.5134
      4533.7194
 04  9  7 22  8 14.9970000  0  8G 3G 8G13G10G23G27G19G28
  -5976551.60049  -4641389.17347  22247040.3064   22247039.5244
       351.0944
 -14628208.50649 -11371925.67548  20540037.3134   20540035.9624
      3219.0164
  -1264582.02649   -982127.64748  20004460.1264   20004457.6814
      -491.3124
  -6386963.97949  -4967488.76147  22613253.8064   22613252.5914
      2497.0474
   8316837.42649   6462643.35647  22788342.8294   22788340.3764
     -2169.2664
  -8985857.40149  -6987623.71948  19972951.6034   19972949.5994
      1937.8284
 -11302941.20549  -8797305.94047  21948321.1884   21948318.6104
      2795.5784
  -4828715.44649  -3751167.75947  22808504.0634   22808504.2354
      4531.8914
 04  9  7 22  8 29.9970000  0  8G 3G 8G13G10G23G27G19G28
  -5981763.18849  -4645450.14047  22246049.1034   22246047.5244
       343.2974
 -14676482.80549 -11409541.99348  20530850.9314   20530849.3294
      3217.0314
  -1257171.10549   -976352.92048  20005870.2824   20005868.2784
      -497.3284
  -6424364.95249  -4996632.37447  22606136.2824   22606135.4744
      2489.2814
   8349383.36649   6488003.75347  22794536.2044   22794534.0244
     -2170.7664
  -9014915.75549  -7010266.58548  19967422.2434   19967420.0524
      1936.1414
 -11344831.64649  -8829947.80947  21940349.6654   21940346.1534
      2789.4064
  -4896684.65149  -3804130.68747  22795570.8134   22795570.6814
      4530.3754
 04  9  7 22  8 44.9970000  0  8G 3G 8G13G10G23G27G19G28
  -5986851.35049  -4649414.95647  22245080.3374   22245079.4704
       335.1414
 -14724721.56449 -11447130.62848  20521671.2124   20521670.1224
      3214.8134
  -1249663.92549   -970503.18048  20007298.9934   20007296.4664
      -503.6564
  -6461644.22249  -5025681.16147  22599042.3684   22599041.8334
      2481.2194
   8381958.54849   6513386.94547  22800734.0714   22800732.9424
     -2172.6094
  -9043942.10049  -7032884.51948  19961898.5094   19961896.4544
      1934.0474
 -11386622.12149  -8862511.80047  21932397.1104   21932393.9314
      2782.6724
  -4964623.82649  -3857070.23147  22782642.5564   22782641.8454
      4528.2814
 04  9  7 22  8 59.9970000  0  8G 3G 8G13G10G23G27G19G28
  -5991820.03949  -4653286.64947  22244135.2284   22244133.3644
       327.0004
 -14772928.67949 -11484694.59948  20512497.8534   20512496.2904
      3212.5474
  -1242064.27749   -964581.39948  20008745.0174   20008742.5014
      -509.9694
  -6498805.43749  -5054637.92947  22591970.5794   22591970.2674
      2473.2034
   8414558.83349   6538789.69947  22806936.9854   22806936.7514
     -2174.4694
  -9072940.29549  -7055480.50448  19956380.2744   19956378.0994
      1932.0164
 -11428316.18849  -8895000.66247  21924462.7984   21924460.0054
      2776.1094
  -5032536.57249  -3909989.19547  22769719.0244   22769719.0284
      4526.3594
 04  9  7 22  9 14.9970000  0  8G 3G 8G13G10G23G27G19G28
  -5996670.25949  -4657066.05547  22243211.6264   22243210.2314
       319.2034
 -14821105.17149 -11522234.72348  20503330.2904   20503329.1344
      3210.5314
  -1234373.25849   -958588.41548  20010208.7354   20010206.4464
      -516.0314
  -6535849.38149  -5083503.35247  22584921.7284   22584921.0794
      2465.4384
   8447183.16049   6564211.19747  22813146.6964   22813144.2714
     -2176.0314
  -9101911.19749  -7078055.23648  19950867.5014   19950865.1614
      1930.3134
 -11469914.64149  -8927415.02647  21916546.5014   21916543.9814
      2769.8134
  -5100423.67849  -3962888.17847  22756800.6034   22756800.3564
      4524.7344
 04  9  7 22  9 29.9970000  0  8G 3G 8G13G10G23G27G19G28
  -6001400.70849  -4660752.12847  22242311.7434   22242310.8604
       311.1724
 -14869249.49249 -11559749.76048  20494168.6424   20494167.0954
      3208.3754
  -1226589.49649   -952523.15848  20011689.8064   20011687.3064
      -522.1724
  -6572774.52549  -5112276.17747  22577895.5324   22577894.9584
      2457.5474
   8479832.80749   6589652.43247  22819359.2514   22819357.6964
     -2177.6254
  -9130853.41149  -7100607.60748  19945359.5014   19945357.8534
      1928.3444
 -11511415.64349  -8959753.44447  21908649.7744   21908646.3764
      2763.3284
  -5168283.45649  -4015765.85547  22743886.9234   22743886.2394
      4522.9064
 04  9  7 22  9 44.9970000  0  8G 3G 8G13G10G23G27G19G28
  -6006009.57849  -4664343.44447  22241434.9544   22241433.3104
       303.2194
 -14917359.55649 -11597238.10848  20485013.7284   20485011.9314
      3206.2814
  -1218711.23849   -946384.26148  20013189.3454   20013186.5284
      -528.2814
  -6609578.87049  -5140954.88047  22570891.2514   22570891.0834
      2449.6094
   8512509.36649   6615114.63747  22825577.7824   22825575.9234
     -2179.3284
  -9159764.79449  -7123135.95248  19939858.2904   19939856.2164
      1926.3914
 -11552817.06849  -8992014.25647  21900771.1184   21900768.4744
      2756.7664
  -5236113.99749  -4068620.74547  22730978.5874   22730978.6854
      4521.0474
 04  9  7 22  9 59.9970000  0  8G 3G 8G13G10G23G27G19G28
  -6010497.64649  -4667840.64547  22240580.6574   22240579.8884
       295.4224
 -14965436.05449 -11634700.30748  20475865.1884   20475863.6034
      3204.1884
  -1210739.19449   -940172.29648  20014705.9704   20014703.8964
      -534.2974
  -6646262.93149  -5169539.85947  22563910.4074   22563910.2084
      2441.7814
   8545211.98949   6640597.13247  22831800.2354   22831798.9194
     -2180.7974
  -9188646.15449  -7145640.90648  19934362.3994   19934360.0054
      1924.7194
 -11594119.40549  -9024197.87647  21892911.3604   21892908.7674
      2750.4064
  -5303915.68349  -4121453.15647  22718076.4854   22718076.2044
      4519.4534
 04  9  7 22 10 14.9970000  0  8G 3G 8G13G10G23G27G19G28
  -6014868.02149  -4671246.12647  22239749.2514   22239748.7354
       287.1414
 -15013481.79249 -11672138.53148  20466721.9854   20466720.4894
      3201.7664
  -1202676.50849   -933889.67948  20016240.4544   20016237.7944
      -540.7974
  -6682829.75249  -5198033.49347  22556952.6814   22556952.0014
      2433.6414
   8577937.43349   6666097.40847  22838027.2124   22838026.5244
     -2182.7974
  -9217500.44149  -7168124.76748  19928871.3684   19928869.3764
      1922.4064
 -11635325.39549  -9056306.42147  21885070.2204   21885066.8454
      2743.5784
  -5371691.29549  -4174265.27947  22705179.2824   22705178.8534
      4517.2034
 04  9  7 22 10 29.9970000  0  8G 3G 8G13G10G23G27G19G28
  -6019117.79349  -4674557.64447  22238940.6424   22238941.1534
       278.9224
 -15061493.80449 -11709550.47948  20457585.7744   20457583.7554
      3199.3284
  -1194520.32949   -927534.23148  20017792.0244   20017789.6494
      -547.2194
  -6719276.14249  -5226433.25347  22550016.6344   22550015.9424
      2425.3754
   8610688.35249   6691617.53447  22844260.1494   22844258.7434
     -2184.6874
  -9246324.61849  -7190585.15048  19923386.1734   19923384.2204
      1920.2194
 -11676431.79049  -9088337.35047  21877248.2354   21877244.8764
      2736.6884
  -5439437.71649  -4227054.63847  22692288.1424   22692287.0324
      4515.0634
 04  9  7 22 10 44.9970000  0  8G 3G 8G13G10G23G27G19G28
  -6023249.18549  -4677776.91447  22238154.2514   22238154.6424
       271.7344
 -15109474.13149 -11746937.73548  20448455.8064   20448453.9784
      3197.8444
  -1186272.85649   -921107.64348  20019361.9854   20019359.7634
      -552.5944
  -6755604.01749  -5254740.68547  22543103.8454   22543102.9464
      2418.1884
   8643462.56449   6717155.82547  22850498.1424   22850495.4544
     -2185.3284
  -9275120.77349  -7213023.71748  19917906.4934   19917904.2984
      1919.0164
 -11717440.41049  -9120292.09847  21869444.6264   21869440.7004
      2730.9064
  -5507156.87549  -4279822.76347  22679401.1184   22679401.3024
      4513.8914
 04  9  7 22 10 59.9970000  0  8G 3G 8G13G10G23G27G19G28
  -6027261.67449  -4680903.52047  22237391.0714   22237390.0754
       263.4844
 -15157421.84449 -11784299.56848  20439331.3684   20439329.7904
      3195.3284
  -1177933.44349   -914609.41148  20020948.8764   20020946.7244
      -559.0944
  -6791812.43949  -5282955.04547  22536213.9464   22536212.1064
      2409.8134
   8676260.60949   6742712.64947  22856738.2204   22856737.0714
     -2187.4374
  -9303888.10849  -7235439.81248  19912432.5174   19912430.1964
      1916.7974
 -11758350.25349  -9152169.86347  21861659.0014   21861655.7944
      2723.9694
  -5574847.77349  -4332568.85447  22666520.4854   22666519.5604
      4511.7344
 04  9  7 22 11 14.9970000  0  8G 3G 8G13G10G23G27G19G28
  -6031158.73249  -4683940.19947  22236649.4464   22236648.3134
       255.5944
 -15205340.33749 -11821638.65748  20430213.0324   20430211.2944
      3193.1884
  -1169505.60549   -908042.27348  20022552.3604   20022550.5324
      -565.1724
  -6827904.92149  -5311079.05447  22529345.7124   22529344.2204
      2401.9534
   8709078.67449   6768285.11047  22862982.6574   22862982.3494
     -2188.9064
  -9332629.83849  -7257835.96448  19906963.0634   19906960.5564
      1914.8754
 -11799164.45849  -9183973.12647  21853892.4314   21853889.4274
      2717.4224
  -5642513.82249  -4385295.55847  22653643.9934   22653643.2674
      4509.9064
 04  9  7 22 11 29.9970000  0  8G 3G 8G13G10G23G27G19G28
  -6034939.90849  -4686886.57347  22235929.1574   22235929.2784
       248.1254
 -15253229.12749 -11858954.57948  20421099.9464   20421098.0284
      3191.4534
  -1160988.97149   -901405.95448  20024173.2284   20024170.8134
      -570.9064
  -6863880.80249  -5339112.19147  22522499.4544   22522498.0674
      2394.4694
   8741917.12849   6793873.46947  22869233.5324   22869230.8964
     -2190.0784
  -9361345.68749  -7280211.95848  19901498.5244   19901496.3414
      1913.3444
 -11839882.28949  -9215701.27547  21846144.1814   21846141.3104
      2711.1724
  -5710154.18149  -4438002.25847  22640771.8214   22640771.2714
      4508.4064
 04  9  7 22 11 44.9970000  0  8G 3G 8G13G10G23G27G19G28
  -6038598.49949  -4689737.41947  22235233.2674   22235231.1494
       239.9534
 -15301081.26749 -11896241.94548  20411993.8134   20411992.2044
      3189.0944
  -1152376.82849   -894695.20448  20025812.2044   20025809.7284
      -577.2194
  -6899733.02449  -5367048.97647  22515676.7044   22515675.6884
      2386.0784
   8774782.78949   6819483.00047  22875487.2674   22875485.1614
     -2191.7974
  -9390028.56049  -7302562.24248  19896040.3374   19896038.3024
      1911.1884
 -11880496.72149  -9247348.86147  21838415.7204   21838412.8134
      2704.3134
  -5777761.91749  -4490683.54747  22627906.7674   22627905.8724
      4506.2034
 04  9  7 22 11 59.9970000  0  8G 3G 8G13G10G23G27G19G28
  -6042141.08049  -4692497.88047  22234558.5324   22234556.9544
       232.1724
 -15348903.02849 -11933505.65148  20402893.7124   20402892.0634
      3186.9534
  -1143675.73449   -887915.14148  20027467.8924   20027465.4894
      -583.2504
  -6935467.94149  -5394894.36947  22508876.8374   22508875.7554
      2378.2034
   8807668.72349   6845108.35547  22881745.1814   22881742.9034
     -2193.2664
  -9418685.04849  -7324891.96648  19890587.4464   19890584.9034
      1909.3754
 -11921013.91949  -9278920.67247  21830705.4544   21830702.6774
      2697.7034
  -5845343.29849  -4543344.31247  22615046.5244   22615045.3534
      4504.3444
 04  9  7 22 12 14.9970000  0  8G 3G 8G13G10G23G27G19G28
  -6045566.95149  -4695167.38247  22233907.2284   22233905.5484
       224.5784
 -15396693.75849 -11970745.16148  20393799.4544   20393797.8174
      3185.1724
  -1134884.93749   -881065.18948  20029140.6574   20029138.2944
      -588.9374
  -6971084.70649  -5422647.68347  22502099.1424   22502097.3724
      2370.6414
   8840575.47749   6870749.90947  22888006.7204   22888005.4934
     -2194.3444
  -9447314.18449  -7347200.37748  19885139.4624   19885137.1814
      1907.8134
 -11961432.93449  -9310415.97747  21823014.0244   21823010.7824
      2691.4224
  -5912897.42549  -4595983.84847  22602191.4544   22602190.1144
      4502.7664
 04  9  7 22 12 29.9970000  0  8G 3G 8G13G10G23G27G19G28
  -6048877.53549  -4697747.06347  22233277.3994   22233277.2314
       216.9064
 -15444454.66349 -12007961.44348  20384710.4934   20384709.3104
      3183.1254
  -1126005.74949   -874146.34948  20030830.3844   20030828.3254
      -594.7814
  -7006584.50849  -5450309.84647  22495343.3534   22495341.8644
      2362.8594
   8873501.71349   6896406.64547  22894272.9384   22894270.8414
     -2195.5944
  -9475917.23049  -7369488.45948  19879696.1884   19879694.2044
      1906.0944
 -12001754.75749  -9341835.55047  21815340.9854   21815337.9544
      2684.9844
  -5980425.28649  -4648602.89947  22589341.1264   22589340.2044
      4501.0634
 04  9  7 22 12 44.9970000  0  8G 3G 8G13G10G23G27G19G28
  -6052068.64349  -4700233.66047  22232670.5874   22232670.1654
       208.7814
 -15492181.43149 -12045151.12948  20375628.4154   20375627.1534
      3180.6564
  -1117034.02349   -867155.39748  20032537.7204   20032535.1144
      -601.1724
  -7041962.94749  -5477877.46947  22488611.7044   22488609.9504
      2354.5004
   8906451.51849   6922081.74547  22900542.5094   22900541.8604
     -2197.4694
  -9504489.83749  -7391752.83248  19874259.1734   19874257.2944
      1903.8284
 -12041974.71149  -9373175.77247  21807687.4544   21807684.3024
      2677.9224
  -6047922.32449  -4701197.94047  22576497.0794   22576496.1224
      4498.8134
 04  9  7 22 12 59.9970000  0  8G 3G 8G13G10G23G27G19G28
  -6055143.49649  -4702629.62147  22232085.1884   22232084.2004
       200.9844
 -15539876.82849 -12082316.36248  20366552.6814   20366550.8174
      3178.4534
  -1107972.92549   -860094.82548  20034261.6964   20034259.6464
      -607.2974
  -7077222.88749  -5505352.75147  22481901.5244   22481900.3214
      2346.5634
   8939421.68549   6947772.69847  22906816.2284   22906815.4114
     -2198.9064
  -9533034.91049  -7413995.75048  19868827.1574   19868825.1424
      1901.8914
 -12082095.65749  -9404438.80947  21800052.0634   21800049.5794
      2671.2344
  -6115391.37849  -4753771.15047  22563657.7044   22563657.6424
      4496.8134
 04  9  7 22 13 14.9970000  0  8G 3G 8G13G10G23G27G19G28
  -6058101.24649  -4704934.36547  22231522.7904   22231521.9664
       193.4224
 -15587539.90749 -12119456.40448  20357482.5094   20357481.1924
      3176.5944
  -1098821.66349   -852963.97948  20036003.5714   20036001.1184
      -612.9534
  -7112363.26949  -5532734.83947  22475214.8604   22475213.6064
      2338.8914
   8972412.87749   6973480.04547  22913095.9314   22913093.7204
     -2199.9534
  -9561551.58049  -7436216.51548  19863400.5094   19863398.5754
      1900.3284
 -12122116.43449  -9435623.80347  21792436.4464   21792433.5134
      2664.8284
  -6182831.43549  -4806321.76647  22550824.3764   22550823.9814
      4495.2344
 04  9  7 22 13 29.9970000  0  8G 3G 8G13G10G23G27G19G28
  -6060943.88049  -4707149.40847  22230981.2984   22230980.9624
       185.7504
 -15635172.47449 -12156572.67648  20348418.2044   20348416.8964
      3174.6254
  -1089582.22149   -845764.43148  20037761.7594   20037759.2824
      -618.8284
  -7147385.89149  -5560025.17747  22468549.7434   22468548.8924
      2331.0314
   9005422.89549   6999202.07647  22919376.8844   22919375.2744
     -2201.2974
  -9590041.60749  -7458416.52048  19857979.2284   19857976.9894
      1898.5314
 -12162038.72849  -9466732.06148  21784839.6264   21784836.7514
      2658.3134
  -6250244.27749  -4858851.17947  22537995.8994   22537995.5834
      4493.3754
 04  9  7 22 13 44.9970000  0  8G 3G 8G13G10G23G27G19G28
  -6063672.45949  -4709275.57847  22230461.8994   22230462.4624
       178.2974
 -15682775.44749 -12193665.90148  20339359.6264   20339357.9504
      3172.7034
  -1080255.64149   -838496.99148  20039536.4854   20039533.7984
      -624.4694
  -7182291.49049  -5587224.36747  22461908.4154   22461906.7164
      2323.2974
   9038450.80649   7024938.05547  22925661.5404   22925660.6854
     -2202.2664
  -9618505.85249  -7480596.46148  19852562.5874   19852560.5054
      1896.9224
 -12201863.06149  -9497763.98547  21777261.3684   21777258.4934
      2651.8754
  -6317630.56249  -4911359.92247  22525173.0244   22525171.9504
      4491.7194
 04  9  7 22 13 59.9970000  0  8G 3G 8G13G10G23G27G19G28
  -6066286.44249  -4711312.44347  22229963.9464   22229963.1264
       170.1564
 -15730347.93649 -12230735.36648  20330306.9784   20330305.6424
      3170.1414
  -1070841.40049   -831161.21948  20041327.6494   20041325.6964
      -630.8754
  -7217079.53849  -5614331.92247  22455287.7984   22455286.7784
      2315.0474
   9071496.90149   7050688.16247  22931950.0244   22931949.0094
     -2204.0004
  -9646943.75649  -7502755.86748  19847150.9624   19847148.9934
      1894.6724
 -12241588.79849  -9528719.08047  21769701.8214   21769699.0054
      2644.7664
  -6384989.55749  -4963847.40647  22512355.2124   22512353.9744
      4489.4384
 04  9  7 22 14 14.9970000  0  8G 3G 8G13G10G23G27G19G28
  -6068783.08549  -4713257.90547  22229489.3924   22229489.5214
       162.5004
 -15777887.15749 -12267778.90748  20321260.6184   20321258.9194
      3168.1414
  -1061336.77349   -823755.03248  20043136.5094   20043134.0674
      -636.7344
  -7251747.05749  -5641345.57447  22448691.0794   22448690.1614
      2307.0164
   9104563.77049   7076454.48347  22938242.8454   22938240.8724
     -2205.0784
  -9675352.40749  -7524892.47148  19841745.0244   19841743.2204
      1892.8594
 -12281212.81449  -9559594.91847  21762161.5174   21762158.4974
      2638.2194
  -6452318.18249  -5016311.22247  22499542.5874   22499541.6264
      4487.5004
 04  9  7 22 14 29.9970000  0  8G 3G 8G13G10G23G27G19G28
  -6071161.78049  -4715111.43647  22229036.0634   22229036.2394
       154.6564
 -15825392.18149 -12304795.79048  20312220.6104   20312219.0954
      3165.8594
  -1051740.90249   -816277.75148  20044962.4234   20044960.4504
      -642.7664
  -7286292.96749  -5668264.45847  22442117.2984   22442115.7284
      2299.0944
   9137652.13249   7102237.56247  22944538.6104   22944537.6464
     -2206.6094
  -9703730.75949  -7547005.46548  19836345.0714   19836342.8644
      1890.8914
 -12320733.89949  -9590390.54547  21754641.5874   21754637.8844
      2631.3284
  -6519615.34749  -5068750.50247  22486736.2744   22486735.0914
      4485.4844
 04  9  7 22 14 44.9970000  0  8G 3G 8G13G10G23G27G19G28
  -6073422.98549  -4716873.41147  22228605.7674   22228605.4854
       146.9064
 -15872863.33249 -12341786.28848  20303187.3374   20303185.5604
      3163.7194
  -1042054.40649   -808729.84948  20046805.8454   20046803.4464
      -648.6564
  -7320717.60149  -5695088.84347  22435566.2044   22435564.8804
      2291.1254
   9170761.37249   7128036.89647  22950840.1344   22950838.2744
     -2207.8284
  -9732079.19349  -7569095.15048  19830950.2744   19830947.9934
      1889.0004
 -12360152.17849  -9621106.05747  21747140.2514   21747136.5564
      2624.6254
  -6586881.21149  -5121165.39147  22473935.4624   22473935.3414
      4483.4534
 04  9  7 22 14 59.9970000  0  8G 3G 8G13G10G23G27G19G28
  -6075569.55349  -4718546.07447  22228198.0174   22228196.5284
       139.4844
 -15920303.12849 -12378752.35548  20294159.3604   20294158.2124
      3161.8134
  -1032280.16049   -801113.57448  20048666.0564   20048663.5364
      -654.3914
  -7355023.62449  -5721820.78947  22429038.1034   22429036.6064
      2283.2814
   9203888.46749   7153850.12147  22957143.5954   22957142.8454
     -2208.9224
  -9760400.45049  -7591163.66448  19825560.7984   19825558.7594
      1887.3594
 -12399470.17549  -9651743.43447  21739657.7354   21739654.6184
      2618.0164
  -6654118.35949  -5173557.89847  22461141.1734   22461141.0914
      4481.6564
 04  9  7 22 15 14.9970000  0  8G 3G 8G13G10G23G27G19G28
  -6077598.87549  -4720127.35847  22227812.1734   22227809.2204
       131.2034
 -15967708.93049 -12415691.93148  20285138.6264   20285136.6924
      3159.0474
  -1022415.50749   -793426.84748  20050543.1344   20050540.8024
      -660.8594
  -7389208.17249  -5748458.10847  22422532.9314   22422531.2084
      2274.6724
   9237035.99949   7179679.29547  22963451.0714   22963450.2164
     -2210.7664
  -9788691.76449  -7613208.83048  19820177.1814   19820175.3534
      1884.8754
 -12438684.96249  -9682300.38948  21732196.0714   21732192.3644
      2610.5944
  -6721323.93549  -5225925.84247  22448352.2904   22448351.3924
      4479.0944
 04  9  7 22 15 29.9970000  0  8G 3G 8G13G10G23G27G19G28
  -6079509.80149  -4721616.38847  22227448.9624   22227446.1814
       123.4844
 -16015079.53949 -12452604.08148  20276124.4384   20276122.6464
      3157.0004
  -1012459.23149   -785668.72848  20052437.8924   20052435.4354
      -666.6414
  -7423269.92749  -5774999.73047  22416050.7744   22416049.3534
      2266.8754
   9270205.00549   7205525.21147  22969763.7824   22969762.5874
     -2211.7974
  -9816951.79849  -7635229.64148  19814799.4624   19814797.1924
      1883.0784
 -12477795.10749  -9712775.80047  21724753.4384   21724749.9814
      2604.0164
  -6788496.45349  -5278267.99847  22435570.0244   22435568.5674
      4477.2194
 04  9  7 22 15 44.9970000  0  8G 3G 8G13G10G23G27G19G28
  -6081301.15349  -4723012.24947  22227108.0014   22227105.9354
       115.3914
 -16062413.22549 -12489487.46448  20267117.2674   20267115.3254
      3154.3134
  -1002410.06249   -777838.22548  20054350.1184   20054347.5754
      -673.0164
  -7457207.41449  -5801444.52947  22409592.8844   22409591.0994
      2258.3754
   9303396.70249   7231388.77647  22976079.3994   22976077.9854
     -2213.4694
  -9845179.06449  -7657224.90348  19809428.0794   19809425.9584
      1880.6884
 -12516798.91249  -9743168.35847  21717330.7204   21717328.2084
      2596.6724
  -6855634.42049  -5330583.25347  22422793.2594   22422792.8604
      4474.7504
 04  9  7 22 15 59.9970000  0  8G 3G 8G13G10G23G27G19G28
  -6082971.58249  -4724313.89247  22226789.8994   22226788.9354
       107.1414
 -16109708.48149 -12526340.89648  20258116.8994   20258115.4854
      3151.6254
   -992266.81649   -769934.39948  20056280.2124   20056277.7674
      -679.5474
  -7491019.06249  -5827791.25247  22403159.1034   22403157.7004
      2249.8134
   9336612.23849   7257270.95547  22982399.5014   22982398.4894
     -2215.3444
  -9873372.11049  -7679193.51548  19804063.1344   19804060.7354
      1878.2344
 -12555694.71149  -9773476.74847  21709929.2204   21709926.0754
      2589.3594
  -6922736.24249  -5382870.33247  22410023.9314   22410023.7784
      4472.0944
 04  9  7 22 16 14.9970000  0  8G 3G 8G13G10G23G27G19G28
  -6084520.53049  -4725520.86347  22226495.1814   22226494.2554
        99.1254
 -16156964.65449 -12563163.87448  20249124.1494   20249122.7284
      3149.0314
   -982028.68249   -761956.64648  20058228.6264   20058226.2244
      -685.7504
  -7524704.00549  -5854039.25947  22396748.8844   22396747.3764
      2241.3444
   9369852.08749   7283172.04747  22988726.5324   22988724.1694
     -2216.9064
  -9901530.28049  -7701134.93948  19798704.8684   19798702.6104
      1875.8914
 -12594481.58449  -9803700.26947  21702548.4934   21702545.1774
      2582.0944
  -6989800.98649  -5435128.52847  22397262.1494   22397261.4744
      4469.6564
 04  9  7 22 16 29.9970000  0  8G 3G 8G13G10G23G27G19G28
  -6085947.30449  -4726632.65347  22226223.7984   22226223.2824
        91.1254
 -16204180.80949 -12599955.67848  20240139.4234   20240138.1344
      3146.4844
   -971695.16349   -753904.57948  20060194.9154   20060192.6224
      -691.9844
  -7558261.48649  -5880187.93247  22390363.4854   22390361.6574
      2233.0004
   9403116.75749   7309092.48647  22995056.2204   22995054.9464
     -2218.2504
  -9929652.63549  -7723048.45748  19793353.2434   19793351.2284
      1873.7664
 -12633158.45849  -9833838.06347  21695188.7354   21695185.4194
      2574.9064
  -7056827.65949  -5487357.04547  22384508.1884   22384506.7594
      4467.2504
 04  9  7 22 16 44.9970000  0  8G 3G 8G13G10G23G27G19G28
  -6087255.17949  -4727651.77247  22225974.1184   22225974.1424
        83.4694
 -16251360.09749 -12636718.74248  20231161.7514   20231159.5134
      3144.2814
   -961269.48049   -745780.68748  20062178.8534   20062176.5794
      -697.8914
  -7591694.42549  -5906239.57947  22384001.1344   22383999.7514
      2224.9844
   9436403.11849   7335029.84447  23001390.3134   23001389.1144
     -2219.6094
  -9957742.15449  -7744936.38948  19788008.1424   19788005.7634
      1871.7504
 -12671728.21449  -9863892.40448  21687848.7824   21687845.7904
      2568.0004
  -7123819.17349  -5539558.17747  22371759.9704   22371759.0444
      4465.2034
 04  9  7 22 16 59.9970000  0  8G 3G 8G13G10G23G27G19G28
  -6088449.60349  -4728582.49347  22225746.8684   22225747.0834
        75.8914
 -16298507.72649 -12673457.14648  20222189.5404   20222187.8764
      3142.0944
   -950756.96249   -737589.12548  20064179.5954   20064177.2634
      -703.7034
  -7625008.15749  -5932198.32347  22377661.6034   22377660.2674
      2216.9844
   9469705.47149   7360979.66747  23007726.6654   23007726.5714
     -2220.7504
  -9985804.24549  -7766802.94248  19782667.9934   19782665.7204
      1869.9064
 -12710196.06449  -9893867.32947  21680528.7514   21680525.8104
      2561.0944
  -7190780.73349  -5591735.95047  22359017.3534   22359016.5324
      4463.1254
 04  9  7 22 17 14.9970000  0  8G 3G 8G13G10G23G27G19G28
  -6089524.16249  -4729419.83347  22225542.4234   22225542.2594
        67.2974
 -16345617.11649 -12710165.75148  20213224.6424   20213223.2474
      3138.9844
   -940151.30349   -729324.99748  20066197.3134   20066195.3104
      -710.5314
  -7658195.96549  -5958058.94847  22371346.2824   22371345.0174
      2207.9064
   9503030.21749   7386946.93047  23014070.1494   23014067.8254
     -2222.7034
 -10013832.16449  -7788642.88348  19777334.3454   19777332.4664
      1867.0314
 -12748555.12049  -9923757.48547  21673229.2354   21673225.9314
      2553.2814
  -7257705.43749  -5643885.02747  22346281.5874   22346281.4074
      4460.0314
 04  9  7 22 17 29.9970000  0  8G 3G 8G13G10G23G27G19G28
  -6090478.92349  -4730163.80747  22225361.7984   22225360.3644
        59.8754
 -16392688.15249 -12746844.47148  20204267.6654   20204266.0564
      3136.9384
   -929452.61649   -720988.39148  20068233.0874   20068230.9854
      -716.2504
  -7691257.80449  -5983821.42547  22365054.8994   22365053.3644
      2200.0634
   9536377.25749   7412931.54247  23020414.8534   23020413.5714
     -2223.7504
 -10041825.95949  -7810456.22348  19772007.2204   19772004.9424
      1865.2344
 -12786805.06949  -9953562.62348  21665950.8844   21665947.2244
      2546.4534
  -7324593.31949  -5696005.38847  22333553.0954   22333552.1734
      4458.1094
 04  9  7 22 17 44.9970000  0  8G 3G 8G13G10G23G27G19G28
  -6091319.60449  -4730818.86947  22225200.5094   22225199.3684
        52.3134
 -16439726.01649 -12783497.34448  20195316.6734   20195315.1264
      3134.7974
   -918666.53549   -712583.65348  20070285.6104   20070283.4934
      -721.9534
  -7724199.05649  -6009489.92547  22358786.0244   22358784.7514
      2192.0004
   9569740.76249   7438929.04247  23026764.3844   23026762.6614
     -2224.7194
 -10069790.94749  -7832247.11848  19766685.5484   19766683.6064
      1863.5004
 -12824951.33549  -9983286.95547  21658691.6654   21658687.9274
      2539.7194
  -7391449.63349  -5748101.17047  22320830.8534   22320829.6574
      4456.0784
 04  9  7 22 17 59.9970000  0  8G 3G 8G13G10G23G27G19G28
  -6092041.87749  -4731381.67847  22225064.2124   22225061.9664
        43.7034
 -16486726.27149 -12820120.91148  20186372.7824   20186371.5914
      3131.5944
   -907788.55449   -704107.32448  20072355.8064   20072353.4274
      -728.7664
  -7757015.12349  -6035060.87847  22352541.8454   22352540.6924
      2183.0474
   9603125.02149   7464942.67647  23033116.2204   23033114.6854
     -2226.7814
 -10097722.69549  -7854012.11448  19761370.3994   19761368.6614
      1860.5164
 -12862989.08049 -10012926.73848  21651453.0714   21651449.9664
      2531.7504
  -7458269.66649  -5800168.67547  22308115.3374   22308114.6184
      4453.0004
 04  9  7 22 18 14.9970000  0  8G 3G 8G13G10G23G27G19G28
  -6092644.08849  -4731850.93447  22224949.0244   22224949.1184
        36.0784
 -16533687.20849 -12856713.83648  20177436.3454   20177434.7634
      3129.4224
   -896817.11049   -695558.16148  20074443.7674   20074441.3764
      -734.5314
  -7789704.27149  -6060532.94447  22346320.7514   22346319.2554
      2174.9694
   9636531.43049   7490973.57647  23039473.4464   23039472.7164
     -2227.8284
 -10125619.35849  -7875749.77348  19756061.8534   19756059.8884
      1858.6254
 -12900916.48749 -10042480.55247  21644235.8924   21644232.5874
      2524.7974
  -7525051.61149  -5852206.52947  22295407.6814   22295406.4504
      4450.8914
 04  9  7 22 18 29.9970000  0  8G 3G 8G13G10G23G27G19G28
  -6093122.13349  -4732223.43247  22224858.3534   22224858.1064
        27.8134
 -16580604.35749 -12893272.63448  20168508.2284   20168506.8334
      3126.4844
   -885748.04649   -686932.93148  20076550.1034   20076547.9314
      -741.0624
  -7822262.07449  -6085902.65247  22340125.1264   22340123.9584
      2166.2194
   9669964.22949   7517025.01647  23045835.9544   23045834.4814
     -2229.6414
 -10153476.56149  -7897456.66948  19750760.7434   19750758.8294
      1855.9224
 -12938729.01749 -10071944.83548  21637039.6884   21637036.6464
      2517.0944
  -7591790.85449  -5904211.07547  22282706.8764   22282706.7864
      4447.8754
 04  9  7 22 18 44.9970000  0  8G 3G 8G13G10G23G27G19G28
  -6093481.37949  -4732503.37347  22224789.4934   22224789.8134
        20.3284
 -16627482.92549 -12929801.37448  20159587.6344   20159586.4784
      3124.3284
   -874586.68149   -678235.76648  20078673.9854   20078671.7944
      -746.8754
  -7854693.63049  -6111173.96947  22333953.4154   22333952.1464
      2158.2664
   9703418.00749   7543092.80847  23052202.6574   23052200.6224
     -2230.5624
 -10181299.49649  -7919136.87948  19745466.5954   19745464.6104
      1854.0634
 -12976431.62949 -10101323.47048  21629865.7354   21629862.1854
      2510.1884
  -7658492.47549  -5956186.28547  22270013.7284   22270013.7714
      4445.7974
 04  9  7 22 18 59.9970000  0  8G 3G 8G13G10G23G27G19G28
  -6093720.92749  -4732690.04647  22224743.9314   22224744.2244
        11.8284
 -16674321.57949 -12966299.01448  20150674.7594   20150673.0954
      3121.1724
   -863331.99549   -669465.90448  20080815.9544   20080813.6884
      -753.5004
  -7886997.77249  -6136346.04847  22327806.4154   22327805.6104
      2149.2344
   9736893.45849   7569177.53547  23058572.0954   23058570.2284
     -2232.6254
 -10209086.97849  -7940789.46348  19740178.5634   19740176.6424
      1851.1254
 -13014022.93849 -10130615.37148  21622712.4624   21622709.1774
      2502.2504
  -7725155.27149  -6008131.24947  22257328.2284   22257328.7284
      4442.8134
 04  9  7 22 19 14.9970000  0  8G 3G 8G13G10G23G27G19G28
  -6093838.27149  -4732781.48447  22224721.4154   22224720.9464
         4.2814
 -16721117.86649 -13002763.65448  20141769.2904   20141767.6534
      3118.8594
   -851981.67949   -660621.51848  20082975.6964   20082973.3534
      -759.3284
  -7919171.91049  -6161416.78147  22321684.2514   22321682.7784
      2141.1884
   9770392.95749   7595280.96847  23064945.8924   23064945.1424
     -2233.5784
 -10236836.50549  -7962412.46648  19734897.8994   19734896.0634
      1849.2034
 -13051500.18049 -10159818.40248  21615580.7124   21615577.1884
      2495.2344
  -7791776.44249  -6060043.79147  22244651.3374   22244650.0754
      4440.5164
 04  9  7 22 19 29.9970000  0  8G 3G 8G13G10G23G27G19G28
  -6093836.56149  -4732780.15047  22224722.3994   22224722.7314
        -3.7664
 -16767874.59349 -13039197.45748  20132871.9704   20132870.5604
      3116.0314
   -840538.87249   -651705.05148  20085153.4154   20085150.8964
      -765.6874
  -7951218.99249  -6186388.53347  22315585.7984   22315584.8604
      2132.4534
   9803913.44749   7621400.74547  23071325.1654   23071324.2674
     -2235.1254
 -10264550.88849  -7984008.08648  19729624.0404   19729621.8064
      1846.7194
 -13088866.19849 -10188934.76748  21608470.1104   21608466.8564
      2487.6564
  -7858358.83549  -6111926.13947  22231981.2514   22231979.3644
      4437.8284
 04  9  7 22 19 44.9970000  0  8G 3G 8G13G10G23G27G19G28
  -6093716.45749  -4732686.57547  22224744.4544   22224744.5604
       -12.0004
 -16814592.18849 -13075600.75548  20123982.0634   20123980.7634
      3113.1564
   -829004.03849   -642716.87648  20087348.0094   20087345.5874
      -772.0784
  -7983139.35149  -6211261.51647  22309511.6034   22309510.5604
      2123.7504
   9837454.25849   7647536.38747  23077708.6964   23077707.4664
     -2236.8444
 -10292230.56649  -8005576.65648  19724356.9704   19724355.3534
      1844.0944
 -13126121.14849 -10217964.56947  21601380.4154   21601377.1734
      2479.8754
  -7924902.72649  -6163778.47847  22219318.3374   22219316.8724
      4434.9384
 04  9  7 22 19 59.9970000  0  8G 3G 8G13G10G23G27G19G28
  -6093476.15749  -4732499.32547  22224791.0014   22224791.0444
       -20.1874
 -16861268.67349 -13111972.04848  20115099.6424   20115097.7674
      3110.3134
   -817375.37649   -633655.58948  20089560.9934   20089558.6264
      -778.5164
  -8014930.98249  -6236034.22447  22303461.6264   22303460.8254
      2114.9694
   9871016.99749   7673689.08747  23084095.8454   23084094.5284
     -2238.4064
 -10319873.56749  -8027116.65648  19719096.6264   19719094.4464
      1841.5314
 -13163262.93449 -10246906.20647  21594312.4314   21594309.7674
      2472.2974
  -7991405.89849  -6215599.09347  22206662.5174   22206661.6494
      4432.0784
 04  9  7 22 20 14.9970000  0  8G 3G 8G13G10G23G27G19G28
  -6093114.29349  -4732217.38147  22224859.6654   22224860.5444
       -27.9064
 -16907902.32149 -13148309.94648  20106225.1654   20106223.9544
      3107.7504
   -805651.59749   -624520.19248  20091791.9074   20091789.5604
      -784.6094
  -8046592.43749  -6260705.48047  22297437.4464   22297436.0524
      2106.5784
   9904602.95049   7699859.87947  23090486.4704   23090485.3994
     -2239.5944
 -10347478.24149  -8048626.78648  19713843.6344   19713841.4544
      1839.1724
 -13200289.87949 -10275758.36148  21587266.8374   21587263.4384
      2464.8444
  -8057866.85349  -6267386.79247  22194015.4934   22194014.8064
      4429.5164
 04  9  7 22 20 29.9970000  0  8G 3G 8G13G10G23G27G19G28
  -6092630.21449  -4731840.17147  22224951.9464   22224951.1734
       -36.4224
 -16954492.36149 -13184613.86148  20097359.6734   20097358.6854
      3104.5164
   -793831.95649   -615310.09348  20094041.2354   20094039.3104
      -791.2664
  -8078122.74949  -6285274.57047  22291436.5404   22291435.6774
      2097.6254
   9938212.78949   7726049.26247  23096881.8924   23096881.4154
     -2241.4694
 -10375043.74749  -8070106.39748  19708598.0714   19708596.0364
      1836.3914
 -13237200.93149 -10304520.20248  21580242.6964   21580239.6104
      2456.8134
  -8124284.57149  -6319140.78247  22181376.2984   22181376.2514
      4426.3914
 04  9  7 22 20 44.9970000  0  8G 3G 8G13G10G23G27G19G28
  -6092022.99649  -4731367.01847  22225067.5404   22225067.1144
       -44.6564
 -17001037.62349 -13220882.89148  20088502.5634   20088500.9704
      3101.3914
   -781915.65649   -606024.67948  20096308.9074   20096306.5524
      -797.7034
  -8109520.78049  -6309740.53747  22285461.7124   22285460.7984
      2088.7664
   9971847.16449   7752257.78447  23103281.7674   23103281.6224
     -2243.2344
 -10402568.98349  -8091554.63848  19703360.1884   19703357.9194
      1833.5474
 -13273994.75249 -10333190.68948  21573241.4234   21573238.0484
      2448.9064
  -8190657.79049  -6370860.12147  22168745.9704   22168745.2594
      4423.2974
 04  9  7 22 20 59.9970000  0  7G 3G 8G13G10G27G19G28
  -6091293.14449  -4730798.31447  22225206.1494   22225205.8064
       -52.5784
 -17047538.40549 -13257117.25548  20079653.4544   20079652.0364
      3098.7194
   -769902.96649   -596664.16348  20098595.0794   20098592.7634
      -803.8914
  -8140786.70949  -6334103.60147  22279512.2594   22279511.2434
      2080.1254
 -10430054.20749  -8112971.68448  19698130.0954   19698128.1774
      1831.1414
 -13310671.40249 -10361769.87047  21566261.8214   21566258.4784
      2441.4224
  -8256986.52749  -6422544.80247  22156125.0634   22156123.3884
      4420.5944
 04  9  7 22 21 14.9970000  0  7G 3G 8G13G10G27G19G28
  -6090446.34349  -4730138.46847  22225367.4154   22225366.0094
       -60.0474
 -17094000.31949 -13293321.33648  20070812.0954   20070810.4274
      3096.5314
   -757799.57449   -587232.95348  20100898.0014   20100895.6614
      -809.5624
  -8171926.09149  -6358368.06047  22273586.4384   22273585.4274
      2072.0944
 -10457504.87249  -8134361.81448  19692906.3924   19692904.2594
      1829.2344
 -13347236.28149 -10390261.96248  21559303.6574   21559300.4114
      2434.2504
  -8323276.31649  -6474199.14447  22143509.8064   22143508.3374
      4418.2664
 04  9  7 22 21 29.9970000  0  7G 3G 8G13G10G27G19G28
  -6089480.41749  -4729385.78947  22225551.1184   22225550.5094
       -68.4064
 -17140420.71749 -13329493.06448  20061978.9624   20061977.3294
      3093.1884
   -745603.25349   -577729.34348  20103218.7124   20103216.4814
      -816.2664
  -8202936.52849  -6382532.01447  22267685.1574   22267684.3684
      2063.0004
 -10484918.61749  -8155723.16948  19687689.7674   19687687.3414
      1826.3594
 -13383686.94049 -10418665.05948  21552367.2904   21552364.1734
      2426.1254
  -8389524.60349  -6525821.14747  22130902.3374   22130901.8174
      4415.0164
 04  9  7 22 21 44.9970000  0  7G 3G 8G13G10G27G19G28
  -6088393.26449  -4728538.65947  22225757.8534   22225756.5444
       -76.8594
 -17186797.29749 -13365630.64848  20053153.5794   20053152.0284
      3089.9384
   -733312.08649   -568151.82648  20105557.8534   20105555.4274
      -822.8914
  -8233815.75649  -6406593.76247  22261809.1884   22261808.2314
      2053.8444
 -10512293.24649  -8177054.04848  19682480.5094   19682478.1064
      1823.3134
 -13420020.95949 -10446977.27048  21545453.3064   21545449.9624
      2418.0314
  -8455729.00549  -6577408.94947  22118303.9544   22118303.7744
      4411.8284
 04  9  7 22 21 59.9970000  0  7G 3G 8G13G10G27G19G28
  -6087181.70149  -4727594.58647  22225987.8684   22225987.6464
       -85.2344
 -17233126.25549 -13401731.13348  20044337.5794   20044336.0604
      3086.6564
   -720922.59349   -558497.69248  20107915.4624   20107913.1034
      -829.5944
  -8264560.21049  -6430550.47547  22255958.6494   22255958.1424
      2044.8134
 -10539625.00849  -8198351.51448  19677279.3684   19677277.2474
      1820.2814
 -13456234.53849 -10475195.63048  21538562.3994   21538558.3254
      2409.8444
  -8521885.85749  -6628959.68747  22105714.9314   22105714.4074
      4408.5634
 04  9  7 22 22 14.9970000  0  7G 3G 8G13G10G27G19G28
  -6085845.05449  -4726553.05347  22226242.5794   22226242.8174
       -92.9064
 -17279407.00149 -13437794.02948  20035530.2824   20035528.7244
      3084.1414
   -708434.29149   -548766.56348  20110292.0794   20110289.8134
      -835.4374
  -8295169.07449  -6454401.53447  22250134.2824   22250133.3644
      2036.5634
 -10566913.31449  -8219615.12148  19672086.6424   19672084.1654
      1818.1254
 -13492326.78349 -10503319.43648  21531693.6734   21531690.8334
      2402.5164
  -8587994.30049  -6680472.70547  22093135.4784   22093134.8214
      4406.0004
 04  9  7 22 22 29.9970000  0  7G 3G 8G13G10G27G19G28
  -6084387.55649  -4725417.35447  22226520.2674   22226520.1854
      -101.3284
 -17325643.52749 -13473822.49748  20026731.9704   20026730.0404
      3080.6884
   -695851.20249   -538961.57248  20112686.2354   20112684.0524
      -842.2504
  -8325646.20549  -6478149.93347  22244334.3214   22244333.3374
      2027.2344
 -10594162.06549  -8240847.91748  19666901.2284   19666899.1654
      1815.0944
 -13528301.44749 -10531351.62548  21524848.0794   21524844.7594
      2394.1724
  -8654058.16249  -6731950.99247  22080563.6264   22080563.3644
      4402.5164
 04  9  7 22 22 44.9970000  0  7G 3G 8G13G10G27G19G28
  -6082806.56249  -4724185.41147  22226820.5634   22226822.4664
      -109.3594
 -17371832.98349 -13509814.26848  20017942.4624   20017941.1964
      3077.8594
   -683170.81249   -529080.76248  20115099.5014   20115097.3294
      -848.4064
  -8355988.89249  -6501793.59147  22238560.3294   22238559.3764
      2018.5944
 -10621368.34949  -8262047.61548  19661723.9624   19661721.9464
      1812.5004
 -13564155.60449 -10559289.91248  21518025.5174   21518021.6964
      2386.4384
  -8720074.38849  -6783392.15347  22068001.2984   22068000.3294
      4399.6724
 04  9  7 22 22 59.9970000  0  7G 3G 8G13G10G27G19G28
  -6081101.27649  -4722856.62247  22227145.5564   22227145.6424
      -117.7504
 -17417974.26449 -13545768.51048  20009162.2434   20009160.3334
      3074.6254
   -670392.23049   -519123.44348  20117531.1964   20117528.6964
      -855.1094
  -8386196.15849  -6525331.71047  22232812.0014   22232811.1694
      2009.3914
 -10648531.12649  -8283213.41148  19656555.2594   19656553.1424
      1809.4384
 -13599888.07349 -10587133.37648  21511225.8684   21511222.2714
      2378.1724
  -8786041.88049  -6834795.33847  22055448.3684   22055446.9194
      4396.2504
 04  9  7 22 23 14.9970000  0  7G 3G 8G13G10G27G19G28
  -6079271.07049  -4721430.48347  22227493.8134   22227493.5484
      -126.1564
 -17464066.57849 -13581684.58948  20000391.0324   20000389.3964
      3071.2504
   -657514.74649   -509089.06748  20119981.8764   20119979.7084
      -861.7664
  -8416267.11849  -6548763.62447  22227089.7984   22227088.7714
      2000.2344
 -10675649.61949  -8304344.70648  19651394.7744   19651392.2514
      1806.4534
 -13635497.86749 -10614881.24148  21504448.9154   21504446.1814
      2369.9224
  -8851959.77949  -6886159.90147  22042904.2824   22042903.1064
      4392.8594
 04  9  7 22 23 29.9970000  0  7G 3G 8G13G10G27G19G28
  -6077316.39549  -4719907.37947  22227865.2124   22227866.3844
      -134.3124
 -17510110.04549 -13617562.60648  19991629.4784   19991627.6814
      3068.0004
   -644538.72249   -498977.89348  20122451.2744   20122448.9274
      -868.2504
  -8446201.95749  -6572089.48647  22221393.6184   22221392.3684
      1991.1254
 -10702723.95949  -8325441.57848  19646242.5484   19646240.5214
      1803.5164
 -13670985.08849 -10642533.60848  21497696.6264   21497693.2514
      2361.7814
  -8917828.06849  -6937485.79447  22030370.3994   22030368.7124
      4389.6094
 04  9  7 22 23 44.9970000  0  7G 3G 8G13G10G27G19G28
  -6075236.35649  -4718286.58347  22228261.5564   22228261.0754
      -142.7664
 -17556103.47749 -13653401.64248  19982877.0714   19982875.5604
      3064.5944
   -631463.43549   -488789.37748  20124939.0244   20124936.6464
      -874.9534
  -8475999.70749  -6595308.50447  22215723.0714   22215722.2124
      1981.9384
 -10729753.11749  -8346503.26748  19641099.0634   19641097.5214
      1800.4694
 -13706348.47049 -10670089.48348  21490967.3214   21490963.4854
      2353.4384
  -8983645.56149  -6988772.11347  22017845.3764   22017844.4234
      4386.1564
 04  9  7 22 23 59.9970000  0  7G 3G 8G13G10G27G19G28
  -6073030.71549  -4716567.89947  22228680.9624   22228680.7554
      -151.0474
 -17602046.35549 -13689201.26948  19974134.2594   19974133.0994
      3061.2974
   -618288.33749   -478523.08148  20127446.1734   20127444.0674
      -881.5474
  -8505659.67649  -6618420.16547  22210079.1494   22210077.7674
      1972.8594
 -10756736.48649  -8367529.26848  19635964.4854   19635962.4354
      1797.4694
 -13741587.36349 -10697548.34748  21484260.9314   21484257.5754
      2345.2034
  -9049411.51049  -7040018.24847  22005330.6034   22005329.6614
      4382.7814
 04  9  7 22 24 14.9970000  0  7G 3G 8G13G10G27G19G28
  -6070703.43049  -4714754.43647  22229124.8454   22229123.4074
      -159.0004
 -17647942.50149 -13724964.49848  19965400.4934   19965398.8764
      3058.3914
   -605017.51649   -468182.19648  20129971.7904   20129969.5244
      -887.6564
  -8535185.61249  -6641427.38447  22204460.7904   22204459.3104
      1964.1724
 -10783677.74549  -8388522.45248  19630837.7744   19630835.5484
      1794.9224
 -13776705.23249 -10724912.89548  21477578.1814   21477575.3644
      2337.3754
  -9115129.71049  -7091227.18647  21992824.9154   21992823.5444
      4379.7974
 04  9  7 22 24 29.9970000  0  7G 3G 8G13G10G27G19G28
  -6068254.69749  -4712846.32647  22229589.9934   22229589.3884
      -167.2194
 -17693791.74549 -13760691.17848  19956675.6884   19956673.8024
      3055.0784
   -591651.11149   -457766.83848  20132515.2904   20132513.0674
      -894.3444
  -8564577.53149  -6664330.19047  22198867.0874   22198865.9704
      1955.0164
 -10810576.89249  -8409482.82548  19625718.9154   19625716.4354
      1791.8284
 -13811701.94349 -10752183.04748  21470918.5484   21470915.1264
      2329.0634
  -9180799.88749  -7142398.71747  21980327.8454   21980326.7084
      4376.4064
 04  9  7 22 24 44.9960000  0  7G 3G 8G13G10G27G19G28
  -6065682.29849  -4710841.87047  22230080.1454   22230079.0124
      -175.4844
 -17739588.51649 -13796376.97348  19947960.8564   19947958.9144
      3051.8754
   -578187.69849   -447275.88348  20135077.1994   20135075.0274
      -900.6724
  -8593831.01149  -6687125.10747  22193301.0354   22193299.1764
      1945.9384
 -10837429.63449  -8430407.04148  19620608.5594   19620606.8164
      1788.9844
 -13846572.64749 -10779355.00348  21464283.1214   21464279.6844
      2320.9384
  -9246415.04849  -7193527.36547  21967841.7314   21967840.8284
      4373.1564
 04  9  7 22 24 59.9960000  0  7G 3G 8G13G10G27G19G28
  -6062984.04349  -4708739.34147  22230593.3324   22230591.9384
      -184.0164
 -17785336.70349 -13832024.90048  19939255.3564   19939253.2384
      3048.1254
   -564623.46349   -436706.35248  20137658.3164   20137656.1524
      -907.6094
  -8622947.80449  -6709813.50447  22187760.2314   22187758.8444
      1936.4844
 -10864237.45549  -8451296.24948  19615507.6994   19615505.6454
      1785.6254
 -13881319.65649 -10806430.57648  21457670.5044   21457667.6254
      2312.2194
  -9311981.82049  -7244618.32547  21955364.4734   21955363.2384
      4369.3134
 04  9  7 22 25 14.9960000  0  7G 3G 8G13G10G27G19G28
  -6060162.54849  -4706540.75147  22231130.2154   22231129.5084
      -192.1254
 -17831035.43449 -13867634.29148  19930559.1294   19930557.4454
      3045.0314
   -550961.88249   -426060.99748  20140258.1914   20140255.8834
      -913.9694
  -8651928.27449  -6732395.69247  22182245.0594   22182244.3674
      1927.5474
 -10891000.83349  -8472150.82448  19610414.9574   19610412.8754
      1782.7814
 -13915942.66649 -10833409.53148  21451082.0204   21451078.7854
      2304.1094
  -9377498.04549  -7295669.87347  21942897.3244   21942896.1604
      4366.1094
 04  9  7 22 25 29.9960000  0  7G 3G 8G13G10G27G19G28
  -6057218.08849  -4704246.38747  22231690.3094   22231690.8634
      -200.5784
 -17876684.79249 -13903205.20848  19921871.9184   19921870.1724
      3041.5004
   -537203.11849   -415339.88948  20142876.3954   20142874.2584
      -920.6564
  -8680772.51249  -6754871.71947  22176756.2854   22176754.9654
      1918.2814
 -10917719.67349  -8492970.70448  19605330.4574   19605328.3364
      1779.5634
 -13950441.73249 -10860291.90548  21444517.6844   21444513.5554
      2295.5474
  -9442963.42349  -7346681.81547  21930439.7314   21930438.2034
      4362.4844
 04  9  7 22 25 44.9960000  0  7G 3G 8G13G10G27G19G28
  -6054152.39349  -4701857.55447  22232273.8634   22232272.6724
      -208.2034
 -17922286.29149 -13938738.83848  19913194.5274   19913192.9574
      3038.6724
   -523348.99249   -404544.48848  20145512.7774   20145510.7854
      -926.6414
  -8709481.95949  -6777242.70047  22171292.2774   22171291.8164
      1909.6564
 -10944395.46249  -8513757.01848  19600253.9184   19600252.0474
      1777.0634
 -13984818.24449 -10887078.77948  21437976.1064   21437972.3794
      2287.7814
  -9508379.36149  -7397655.23147  21917991.5434   21917990.1254
      4359.5634
 04  9  7 22 25 59.9960000  0  7G 3G 8G13G10G27G19G28
  -6050967.61449  -4699375.88847  22232880.1844   22232878.9614
      -217.1414
 -17967841.58649 -13974236.45748  19904525.6994   19904524.0314
      3034.6724
   -509401.48249   -393676.30848  20148166.7234   20148164.9184
      -933.7814
  -8738058.44749  -6799510.09647  22165855.3094   22165854.1724
      1899.8134
 -10971029.98349  -8534511.18348  19595185.6214   19595183.8714
      1773.4694
 -14019073.81749 -10913771.40948  21431456.8244   21431453.7074
      2278.8134
  -9573747.66149  -7448591.52547  21905552.3954   21905551.2274
      4355.4384
 04  9  7 22 26 14.9960000  0  7G 3G 8G13G10G27G19G28
  -6047656.70549  -4696795.98547  22233509.7234   22233510.0944
      -225.2344
 -18013343.53949 -14009692.52348  19895867.0354   19895865.1724
      3031.4384
   -495353.49149   -382729.84048  20150839.9104   20150837.9264
      -940.0944
  -8766494.82549  -6821668.32247  22160444.0594   22160442.4104
      1890.8134
 -10997616.20649  -8555227.73348  19590126.3714   19590123.8564
      1770.5164
 -14053201.13149 -10940364.12148  21424962.9574   21424959.1884
      2270.6414
  -9639061.02049  -7499485.01547  21893123.5274   21893122.2734
      4352.1414
 04  9  7 22 26 29.9960000  0  7G 3G 8G13G10G27G19G28
  -6044221.55249  -4694119.24247  22234162.8714   22234162.3794
      -232.7344
 -18058793.80549 -14045108.30148  19887218.0824   19887215.8484
      3028.6564
   -481206.93249   -371706.57048  20153532.1374   20153529.9064
      -945.9694
  -8794792.68549  -6843718.59447  22155059.3094   22155057.8954
      1882.3594
 -11024155.61249  -8575907.77948  19585076.1844   19585074.2464
      1768.1254
 -14087201.65849 -10966858.01148  21418492.2464   21418489.5124
      2262.8594
  -9704320.86649  -7550336.79647  21880704.6524   21880703.3754
      4349.2974
 04  9  7 22 26 44.9960000  0  7G 3G 8G13G10G27G19G28
  -6040664.77549  -4691347.75047  22234840.1914   22234840.3284
      -241.3444
 -18104194.62149 -14080485.55648  19878578.7234   19878576.4344
      3025.0164
   -466964.36749   -360608.48648  20156242.5434   20156240.4264
      -952.7344
  -8822954.42249  -6865662.79147  22149699.3564   22149699.0274
      1872.8444
 -11050650.61849  -8596553.23748  19580034.1994   19580032.4184
      1764.8284
 -14121077.69449 -10993254.90348  21412046.3714   21412042.8244
      2254.2034
  -9769529.54849  -7601148.71747  21868296.0904   21868294.9734
      4345.4694
 04  9  7 22 26 59.9960000  0  7G 3G 8G13G10G27G19G28
  -6036983.86549  -4688479.50447  22235541.2624   22235540.5744
      -249.8754
 -18149543.24149 -14115822.13648  19869948.8094   19869947.2854
      3021.1724
   -452623.19349   -349433.55048  20158971.2624   20158968.8874
      -959.6094
  -8850977.29949  -6887498.80347  22144366.9494   22144365.8874
      1863.2194
 -11077098.38849  -8617161.88848  19575001.6064   19574999.2854
      1761.2974
 -14154826.28349 -11019552.49948  21405623.9024   21405621.0084
      2245.3444
  -9834684.18649  -7651918.52847  21855897.6524   21855896.5124
      4341.5634
 04  9  7 22 27 14.9960000  0  7G 3G 8G13G10G27G19G28
  -6033179.72149  -4685515.20847  22236264.6604   22236264.0474
      -257.7034
 -18194840.22449 -14151118.47348  19861329.2704   19861327.6604
      3018.0944
   -438184.28549   -338182.48448  20161719.1214   20161717.2074
      -965.8754
  -8878862.05349  -6909227.17847  22139060.6374   22139059.9774
      1854.4384
 -11103499.53849  -8637734.21348  19569977.6524   19569975.4024
      1758.5004
 -14188447.93749 -11045751.17448  21399226.4344   21399222.8834
      2237.2814
  -9899785.24549  -7702646.58847  21843509.2074   21843508.0314
      4338.3284
 04  9  7 22 27 29.9960000  0  7G 3G 8G13G10G27G19G28
  -6029252.03449  -4682454.70047  22237011.9654   22237012.3204
      -266.3594
 -18240085.03649 -14186374.16748  19852719.4814   19852717.6644
      3014.0944
   -423647.26049   -326854.95148  20164485.5904   20164483.1804
      -972.8444
  -8906608.10849  -6930847.49247  22133781.4024   22133780.5784
      1844.6564
 -11129853.47549  -8658269.74348  19564962.9104   19564960.6214
      1754.9844
 -14221941.98049 -11071850.40848  21392852.7704   21392849.3284
      2228.2504
  -9964832.04549  -7753332.35747  21831131.2314   21831129.7344
      4334.2194
 04  9  7 22 27 44.9960000  0  7G 3G 8G13G10G27G19G28
  -6025199.36949  -4679296.80247  22237783.5594   22237783.2154
      -273.9224
 -18285275.81149 -14221587.75148  19844119.6844   19844118.1604
      3011.3134
   -409010.76049   -315449.90148  20167270.7234   20167268.6764
      -978.7034
  -8934213.87749  -6952358.47947  22128527.2544   22128526.8094
      1836.1094
 -11156158.61149  -8678767.25948  19559956.8244   19559954.6914
      1752.3914
 -14255306.64449 -11097848.83548  21386503.0354   21386499.5474
      2220.3284
 -10029822.86449  -7803974.51347  21818763.8564   21818762.3364
      4331.2194
 04  9  7 22 27 59.9960000  0  7G 3G 8G13G10G27G19G28
  -6021030.14649  -4676048.04347  22238576.8794   22238576.1134
      -282.0784
 -18330420.75249 -14256765.62148  19835528.9884   19835526.9654
      3007.8914
   -394283.09649   -303973.81548  20170073.2934   20170071.3794
      -985.1094
  -8961687.51649  -6973766.51347  22123299.4344   22123298.6024
      1826.9844
 -11182423.05149  -8699233.04648  19554958.6374   19554956.4534
      1749.3914
 -14288549.97349 -11123752.70748  21380177.6684   21380174.3244
      2212.0004
 -10094765.68449  -7854579.27447  21806405.6844   21806404.1254
      4327.7814
 04  9  7 22 28 14.9960000  0  7G 3G 8G13G10G27G19G28
  -6016741.81549  -4672706.50547  22239392.0594   22239391.6684
      -290.1564
 -18375517.03849 -14291905.57548  19826947.7704   19826946.0044
      3004.4384
   -379461.61649   -292424.62648  20172893.5744   20172891.2314
      -991.5164
  -8989026.29949  -6995069.44547  22118097.3874   22118095.7974
      1817.7034
 -11208644.02149  -8719664.98348  19549969.1764   19549966.8874
      1746.2974
 -14321669.08649 -11149559.80848  21373875.1064   21373871.5744
      2203.4384
 -10159657.71149  -7905144.45247  21794057.1844   21794055.6884
      4324.1254
 04  9  7 22 28 29.9960000  0  7G 3G 8G13G10G27G19G28
  -6012332.67249  -4669270.79047  22240232.4574   22240230.9924
      -297.9374
 -18420562.96749 -14327006.28448  19818375.6214   19818373.8874
      3001.4064
   -364544.56149   -280800.96248  20175732.3794   20175730.2274
      -997.5314
  -9016228.35049  -7016265.83947  22112921.1454   22112919.9264
      1809.0164
 -11234819.57849  -8740061.50648  19544988.2704   19544986.1954
      1743.5634
 -14354661.93749 -11175268.48848  21367596.4264   21367593.2814
      2195.3754
 -10224496.95149  -7955668.48147  21781718.7234   21781717.1094
      4320.9384
 04  9  7 22 28 44.9960000  0  7G 3G 8G13G10G27G19G28
  -6007802.58849  -4665740.89147  22241094.4884   22241093.5944
      -306.0624
 -18465557.91749 -14362067.28148  19809813.3794   19809811.7544
      2997.8914
   -349532.01949   -269102.88448  20178589.3164   20178586.6684
     -1004.0944
  -9043293.25749  -7037355.38047  22107770.8164   22107769.7544
      1799.7034
 -11260949.32049  -8760422.33948  19540016.0044   19540013.8164
      1740.3284
 -14387528.04249 -11200878.43248  21361342.0514   21361339.0044
      2186.7194
 -10289282.76749  -8006150.90347  21769390.0274   21769388.3484
      4317.1564
 04  9  7 22 28 59.9960000  0  7G 3G 8G13G10G27G19G28
  -6003152.54549  -4662117.46247  22241979.8094   22241977.6454
      -313.9064
 -18510502.79149 -14397089.25548  19801260.7464   19801258.9814
      2994.7344
   -334424.85949   -257331.09448  20181463.9884   20181461.9144
     -1010.2344
  -9070221.83249  -7058338.68647  22102646.7774   22102645.7074
      1790.7034
 -11287033.94649  -8780748.02348  19535051.9264   19535049.6724
      1737.5474
 -14420268.06449 -11226390.12648  21355112.1994   21355108.5864
      2178.5164
 -10354015.98649  -8056592.31747  21757071.6764   21757070.1724
      4313.8284
 04  9  7 22 29 14.9960000  0  7G 3G 8G13G10G27G19G28
  -5998379.68049  -4658398.35847  22242887.4414   22242887.1564
      -322.2034
 -18555394.36049 -14432069.69148  19792718.0274   19792716.5784
      2991.0164
   -319220.24549   -245483.34548  20184357.2384   20184354.6954
     -1016.8284
  -9097011.12249  -7079213.48347  22097549.4814   22097547.6724
      1781.2974
 -11313070.46549  -8801036.22348  19530097.5594   19530095.1334
      1734.1724
 -14452878.79049 -11251801.06248  21348906.1454   21348903.1294
      2169.7974
 -10418693.33949  -8106990.22347  21744764.1294   21744762.3244
      4309.9844
 04  9  7 22 29 29.9960000  0  7G 3G 8G13G10G27G19G28
  -5993487.33849  -4654586.15647  22243818.5664   22243817.9494
      -329.8914
 -18600235.47849 -14467010.80448  19784185.1764   19784183.3244
      2988.0164
   -303921.24949   -233562.07848  20187268.5904   20187266.3364
     -1022.8444
  -9123664.06349  -7099981.98347  22092476.6764   22092475.5824
      1772.5634
 -11339061.65449  -8821289.07748  19525151.2774   19525149.2424
      1731.4534
 -14485363.04249 -11277113.44048  21342724.9024   21342721.5864
      2161.6724
 -10483317.57749  -8157346.71647  21732466.2544   21732464.9104
      4306.7664
 04  9  7 22 29 44.9960000  0  7G 3G 8G13G10G27G19G28
  -5988475.78849  -4650681.04747  22244771.2074   22244770.9264
      -338.1564
 -18645026.07249 -14501912.57248  19775661.7314   19775659.6914
      2984.2344
   -288528.21749   -221567.53148  20190197.8094   20190195.3324
     -1029.3914
  -9150180.74949  -7120644.34147  22087430.6374   22087429.8204
      1763.1564
 -11365007.70849  -8841506.78648  19520214.3634   19520212.1064
      1728.0944
 -14517720.73949 -11302327.22048  21336567.5044   21336564.0904
      2152.8594
 -10547888.78549  -8207661.91047  21720179.1844   21720177.2774
      4302.8444
 04  9  7 22 29 59.9960000  0  7G 3G 8G13G10G27G19G28
  -5983343.18949  -4646681.63847  22245748.9414   22245748.7034
      -346.0004
 -18689764.09349 -14536773.34948  19767148.5044   19767146.6884
      2981.0164
   -273039.02249   -209498.03648  20193145.5124   20193143.2154
     -1035.5944
  -9176559.11149  -7141198.92847  22082411.1294   22082410.1764
      1754.1884
 -11390906.47449  -8861687.63948  19515285.6994   19515283.8444
      1725.2504
 -14549949.64649 -11327440.62748  21330434.5434   21330431.1174
      2144.5314
 -10612404.72149  -8257934.02047  21707902.1844   21707900.6954
      4299.5004
 04  9  7 22 30 14.9960000  0  7G 3G 8G13G10G27G19G28
  -5978089.45149  -4642587.82547  22246747.8874   22246748.1804
      -354.0004
 -18734449.22549 -14571592.92748  19758644.6764   19758643.1294
      2977.5474
   -257453.78949   -197353.71348  20196111.1294   20196109.0234
     -1042.0474
  -9202798.85049  -7161645.48347  22077418.3874   22077417.3054
      1744.9224
 -11416757.39549  -8881831.22148  19510366.6604   19510364.2704
      1722.0004
 -14582049.42149 -11352453.42848  21324325.9264   21324322.5704
      2135.9384
 -10676864.89649  -8308162.69347  21695635.1994   21695633.5354
      4295.6094
 04  9  7 22 30 29.9960000  0  7G 3G 8G13G10G27G19G28
  -5972715.30949  -4638400.18447  22247771.6134   22247770.3244
      -362.2504
 -18779081.75749 -14606371.52648  19750151.9654   19750150.2114
      2973.7034
   -241773.21049   -185135.09948  20199095.0744   20199093.0944
     -1048.5474
  -9228900.55949  -7181984.46947  22072450.7234   22072449.8094
      1735.5314
 -11442561.23349  -8901938.10048  19505456.4024   19505454.0394
      1718.6254
 -14614020.47549 -11377365.93048  21318242.4494   21318238.6214
      2127.1724
 -10741269.81049  -8358348.28847  21683379.7464   21683378.1024
      4291.8284
 04  9  7 22 30 44.9960000  0  7G 3G 8G13G10G27G19G28
  -5967217.11149  -4634115.88147  22248816.0744   22248816.8834
      -370.8284
 -18823658.13349 -14641106.35048  19741669.1604   19741667.6024
      2969.7814
   -225993.65849   -172839.36248  20202097.9414   20202096.1294
     -1055.3444
  -9254860.42449  -7202212.93847  22067510.6294   22067509.8594
      1725.9064
 -11468313.96449  -8922005.15248  19500555.5664   19500553.8484
      1715.0474
 -14645858.62849 -11402174.85748  21312183.6844   21312180.2704
      2117.9844
 -10805615.40649  -8408487.68447  21671135.5204   21671133.5044
      4287.6414
 04  9  7 22 30 59.9960000  0  7G 3G 8G13G10G27G19G28
  -5961596.45949  -4629736.15747  22249887.3014   22249886.0274
      -378.8594
 -18868179.33549 -14675798.18848  19733196.9814   19733195.1134
      2966.1254
   -210116.64949   -160467.68148  20205119.1764   20205117.0004
     -1061.8284
  -9280679.81449  -7222331.95747  22062597.6994   22062596.6804
      1716.4694
 -11494017.03749  -8942033.52448  19495664.5904   19495662.1334
      1711.6564
 -14677565.35349 -11426881.38048  21306149.8404   21306146.7814
      2109.2664
 -10869902.97149  -8458581.84547  21658901.4024   21658899.8444
      4283.7504
 04  9  7 22 31 14.9960000  0  7G 3G 8G13G10G27G19G28
  -5955849.32649  -4625257.86247  22250980.2934   22250979.5904
      -387.0624
 -18912641.29549 -14710443.85948  19724736.2384   19724734.3444
      2962.4384
   -194138.23249   -148016.99348  20208159.7234   20208157.3164
     -1068.2504
  -9306354.57849  -7242338.24847  22057711.8714   22057710.6484
      1707.1884
 -11519666.07749  -8962019.79248  19490783.3794   19490781.4654
      1708.4064
 -14709136.24849 -11451482.06148  21300142.3244   21300138.8484
      2100.5314
 -10934128.14349  -8508627.39547  21646679.0594   21646678.8524
      4279.8914
 04  9  7 22 31 29.9960000  0  7G 3G 8G13G10G27G19G28
  -5949980.76649  -4620684.99447  22252097.8014   22252097.2664
      -394.8754
 -18957048.77449 -14745047.09048  19716285.5824   19716283.6374
      2959.0164
   -178063.32549   -135491.10848  20211218.7154   20211216.5744
     -1074.4844
  -9331889.44149  -7262235.55747  22052852.8874   22052852.0864
      1698.0474
 -11545265.89649  -8981967.69748  19485911.9814   19485909.7314
      1705.3754
 -14740575.92949 -11475980.50748  21294159.2934   21294155.6024
      2091.9844
 -10998295.55949  -8558627.91847  21634468.7314   21634467.9414
      4276.2504
 04  9  7 22 31 44.9960000  0  7G 3G 8G13G10G27G19G28
  -5943992.05949  -4616018.45447  22253236.1294   22253235.1684
      -403.1564
 -19001402.24549 -14779608.23948  19707845.5744   19707843.8164
      2955.2194
   -161892.96849   -122890.84348  20214295.5514   20214293.2584
     -1081.1414
  -9357285.35849  -7282024.58947  22048020.0124   22048019.1644
      1688.5164
 -11570817.30349  -9001877.88948  19481049.8014   19481047.6214
      1701.9224
 -14771885.11549 -11500377.25848  21288201.6294   21288198.2194
      2083.0474
 -11062406.02249  -8608584.09247  21622269.1764   21622267.7664
      4272.2194
 04  9  7 22 31 59.9960000  0  7G 3G 8G13G10G27G19G28
  -5937883.85349  -4611258.83947  22254399.6454   22254398.1914
      -411.3444
 -19045702.39549 -14814127.81748  19699415.3404   19699413.3094
      2951.3754
   -145627.83849   -110216.72948  20217390.7774   20217388.4304
     -1087.6564
  -9382542.85749  -7301705.77047  22043213.6214   22043213.0824
      1679.0474
 -11596320.67349  -9021750.63348  19476196.7854   19476194.5394
      1698.4534
 -14803064.19949 -11524672.63548  21282268.2544   21282264.9264
      2074.0164
 -11126459.90149  -8658496.17247  21610080.2624   21610078.6414
      4268.1414
 04  9  7 22 32 14.9960000  0  7G 3G 8G13G10G27G19G28
  -5931650.36549  -4606401.55747  22255584.4734   22255585.1524
      -419.5164
 -19089943.12649 -14848601.11148  19690996.7704   19690995.0084
      2947.5944
   -129262.22449    -97464.32648  20220505.0984   20220502.7074
     -1094.1724
  -9407656.00749  -7321274.45047  22038434.9494   22038434.0394
      1669.5784
 -11621770.04149  -9041581.31048  19471353.7314   19471351.7384
      1694.9844
 -14834107.15649 -11548861.93348  21276360.6764   21276357.2624
      2065.1564
 -11190451.05549  -8708359.36547  21597902.8164   21597901.1484
      4264.1724
 04  9  7 22 32 29.9960000  0  7G 3G 8G13G10G27G19G28
  -5925298.08749  -4601451.75047  22256794.5664   22256793.7384
      -427.5474
 -19134130.70349 -14883032.99748  19682587.9654   19682587.0354
      2943.8914
   -112802.57649    -84638.63948  20223637.5664   20223635.3404
     -1100.5784
  -9432631.13949  -7340735.60247  22033681.9884   22033681.4184
      1660.2344
 -11647171.63949  -9061374.76648  19466520.0354   19466518.1604
      1691.6884
 -14865020.11349 -11572949.93348  21270478.3094   21270474.9924
      2056.3594
 -11254385.56849  -8758178.41847  21585736.5824   21585735.0084
      4260.2344
 04  9  7 22 32 44.9960000  0  7G 3G 8G13G10G27G19G28
  -5918821.31449  -4596404.90247  22258026.8324   22258026.5164
      -435.8594
 -19178258.97149 -14917418.64248  19674190.7774   19674189.2114
      2939.9694
    -96243.07049    -71735.14948  20226788.6454   20226786.9614
     -1107.2194
  -9457462.18749  -7360084.47447  22028957.4104   22028955.9844
      1650.7034
 -11672519.43749  -9081126.29048  19461696.7624   19461694.6684
      1688.1724
 -14895796.75249 -11596931.71848  21264621.7464   21264618.3674
      2047.3134
 -11318257.32149  -8807948.57447  21573582.2544   21573581.1334
      4256.0784
 04  9  7 22 32 59.9960000  0  7G 3G 8G13G10G27G19G28
  -5912224.02849  -4591264.20147  22259282.7624   22259282.5354
      -443.9224
 -19222331.93649 -14951761.21048  19665804.0664   19665802.3284
      2936.2814
    -79587.69049    -58756.96248  20229958.0744   20229956.2854
     -1113.5944
  -9482152.99849  -7379324.09247  22024258.4654   22024257.5704
      1641.2974
 -11697817.11149  -9100838.76348  19456882.5044   19456880.5904
      1684.8134
 -14926441.00649 -11620810.34048  21258790.5274   21258787.3484
      2038.5004
 -11382070.03249  -8857672.71547  21561439.4104   21561437.6994
      4252.1724
 04  9  7 22 33 14.9960000  0  7G 3G 8G13G10G27G19G28
  -5905504.32649  -4586028.04547  22260560.7544   22260560.0474
      -452.1094
 -19266346.92949 -14986058.60248  19657428.1764   19657426.5904
      2932.2974
    -62834.49349    -45702.53548  20233146.2854   20233144.1374
     -1120.2034
  -9506701.40249  -7398452.70347  22019587.0984   22019585.9774
      1631.7504
 -11723062.48249  -9120510.48448  19452078.4344   19452076.5004
      1681.2034
 -14956950.50649 -11644583.95748  21252984.9964   21252981.4144
      2029.4384
 -11445821.38049  -8907349.04647  21549307.7464   21549306.6914
      4247.9534
 04  9  7 22 33 29.9960000  0  7G 3G 8G13G10G27G19G28
  -5898661.95849  -4580696.34747  22261863.3564   22261862.4384
      -460.5164
 -19310303.58749 -15020310.53448  19649063.4734   19649061.6484
      2928.2034
    -45983.12949    -32571.62648  20236352.9414   20236350.9224
     -1127.0164
  -9531106.96449  -7417470.05347  22014943.2314   22014942.1844
      1621.9694
 -11748255.00249  -9140141.00648  19447284.4574   19447282.3834
      1677.4064
 -14987324.66949 -11668252.12048  21247204.0204   21247200.8404
      2020.1564
 -11509510.80049  -8956977.11647  21537187.9884   21537186.1454
      4243.6094
 04  9  7 22 33 44.9960000  0  7G 3G 8G13G10G27G19G28
  -5891695.26649  -4575267.76247  22263188.8794   22263188.4884
      -468.2344
 -19354199.97949 -15054515.50848  19640710.3794   19640708.5434
      2924.7664
    -29031.97249    -19362.94748  20239578.5744   20239576.2314
     -1133.0004
  -9555367.94049  -7436374.69447  22010326.0824   22010325.5824
      1612.9534
 -11773392.80249  -9159728.90148  19442500.9734   19442499.0354
      1674.4224
 -15017561.37649 -11691813.16848  21241450.3794   21241447.0824
      2011.5314
 -11573136.33149  -9006555.42247  21525080.3164   21525078.6064
      4239.9534
 04  9  7 22 33 59.9960000  0  7G 3G 8G13G10G27G19G28
  -5884607.83549  -4569745.11547  22264537.3874   22264535.6174
      -476.7194
 -19398039.39049 -15088676.08348  19632368.0124   19632366.3594
      2920.5474
    -11984.59349     -6079.30348  20242822.4344   20242820.7274
     -1139.8594
  -9579487.67249  -7455169.28847  22005735.8094   22005735.0944
      1603.0634
 -11798479.16649  -9179276.72248  19437727.2704   19437725.1484
      1670.5634
 -15047664.00649 -11715269.75448  21235722.4414   21235719.0204
      2002.1884
 -11636701.16649  -9056086.41047  21512983.9814   21512982.5594
      4235.4694
 04  9  7 22 34 14.9960000  0  7G 3G 8G13G10G27G19G28
  -5877399.14749  -4564127.91747  22265909.6994   22265908.8634
      -484.5004
 -19441821.07749 -15122791.68048  19624036.3714   19624034.6764
      2916.8594
      5159.82149      7279.96648  20246084.8324   20246083.1374
     -1146.1564
  -9603465.31349  -7473853.18147  22001173.2234   22001172.6914
      1593.7974
 -11823513.15349  -9198783.72648  19432963.4264   19432961.4774
      1667.2194
 -15077631.45749 -11738620.99548  21230019.5124   21230016.1134
      1993.3754
 -11700204.23749  -9105569.29447  21500900.0984   21500898.6884
      4231.4844
 04  9  7 22 34 29.9960000  0  7G 3G 8G13G10G27G19G28
  -5870069.99649  -4558416.93947  22267303.4184   22267304.2544
      -492.5944
 -19485545.40549 -15156862.58148  19615716.2074   19615714.3524
      2913.0634
     22400.23149     20714.03048  20249365.9654   20249363.8594
     -1152.5164
  -9627301.61949  -7492426.92447  21996637.9734   21996637.1024
      1584.4064
 -11848495.26349  -9218250.29848  19428209.4574   19428207.2464
      1663.7814
 -15107464.42549 -11761867.45248  21224342.9494   21224339.0164
      1984.4534
 -11763646.08449  -9155004.44347  21488826.8714   21488825.9574
      4227.4064
 04  9  7 22 34 44.9960000  0  7G 3G 8G13G10G27G19G28
  -5862616.49249  -4552608.96847  22268722.1374   22268720.3984
      -500.7974
 -19529208.04349 -15190885.41048  19607407.3794   19607405.8164
      2909.0004
     39740.81249     34226.15148  20252665.6524   20252663.5164
     -1159.1724
  -9650992.36149  -7510887.25347  21992129.8164   21992128.3834
      1574.6724
 -11873421.42949  -9237673.28848  19423466.2074   19423464.2384
      1660.0314
 -15137158.41749 -11785005.60148  21218691.6454   21218688.6064
      1975.0784
 -11827022.33849  -9204388.50047  21476766.8244   21476765.7344
      4223.0634
 04  9  7 22 34 59.9960000  0  7G 3G 8G13G10G27G19G28
  -5855042.81149  -4546707.44147  22270162.9814   22270163.1374
      -508.6254
 -19572813.20349 -15224863.44848  19599109.5124   19599108.1994
      2905.3754
     57177.23849     47812.95648  20255983.7314   20255981.5164
     -1165.3754
  -9674541.63249  -7529237.33447  21987648.5984   21987647.3364
      1565.4844
 -11898295.41249  -9257055.59948  19418732.8164   19418730.6214
      1656.7194
 -15166717.40649 -11808038.56948  21213067.1684   21213063.7934
      1966.3914
 -11890336.89349  -9253724.46747  21464718.9264   21464717.3834
      4219.1094
 04  9  7 22 35 14.9960000  0  7G 3G 8G13G10G27G19G28
  -5847349.23349  -4540712.46247  22271627.1064   22271627.2384
      -516.6094
 -19616360.49849 -15258796.39448  19590822.9574   19590821.0394
      2901.4064
     74709.39249     61474.35048  20259320.1524   20259318.0314
     -1171.7344
  -9697949.47449  -7547477.22047  21983193.5984   21983192.8954
      1556.0314
 -11923117.35249  -9276397.37548  19414009.5744   19414007.5514
      1653.3134
 -15196141.23349 -11830966.21648  21207467.9734   21207464.8094
      1957.2974
 -11953589.70949  -9303012.34247  21452681.9344   21452680.3594
      4214.9694
 04  9  7 22 35 29.9960000  0  7G 3G 8G13G10G27G19G28
  -5839536.90249  -4534624.94247  22273113.7154   22273112.4144
      -524.2814
 -19659850.84649 -15292684.97248  19582546.7314   19582544.9574
      2897.8284
     92335.92749     75209.29048  20262674.3634   20262672.3134
     -1177.9064
  -9721216.86049  -7565607.65647  21978766.3404   21978765.6254
      1546.8284
 -11947887.93149  -9295699.12748  19409295.8244   19409293.1804
      1650.0164
 -15225430.68949 -11853789.14348  21201894.4024   21201891.2274
      1948.4844
 -12016781.49649  -9352252.66147  21440656.8954   21440655.7854
      4211.1094
 04  9  7 22 35 44.9960000  0  7G 3G 8G13G10G27G19G28
  -5831605.16149  -4528444.36947  22274622.8564   22274623.6414
      -532.7344
 -19703283.38849 -15326528.50148  19574282.0044   19574280.1914
      2893.6254
    110057.70949     89018.46148  20266046.6764   20266044.8484
     -1184.5314
  -9744342.85949  -7583627.92347  21974365.2934   21974364.3284
      1537.1094
 -11972606.41349  -9314960.27048  19404591.9814   19404589.7974
      1646.2194
 -15254584.90449 -11876506.70848  21196346.5904   21196343.3564
      1939.1884
 -12079911.32449  -9401444.67647  21428643.7544   21428642.3244
      4206.6254
 04  9  7 22 35 59.9960000  0  7G 3G 8G13G10G27G19G28
  -5823551.27949  -4522168.65047  22276156.0594   22276155.8984
      -540.9534
 -19746655.07149 -15360324.61548  19566028.6064   19566026.5434
      2889.4534
    127877.51849    102904.00648  20269437.6214   20269435.8284
     -1191.2034
  -9767324.67249  -7601535.82147  21969991.6844   21969991.1844
      1527.3444
 -11997269.66349  -9334178.38548  19399898.7854   19399896.4384
      1642.3914
 -15283600.79649 -11899116.47448  21190825.4344   21190821.7424
      1929.7974
 -12142976.06649  -9450585.99047  21416642.7624   21416641.8324
      4202.2344
 04  9  7 22 36 14.9960000  0  7G 3G 8G13G10G27G19G28
  -5815374.07049  -4515796.76847  22277712.9414   22277710.3284
      -549.2194
 -19789964.38949 -15394072.12848  19557787.0204   19557785.3164
      2885.2504
    145796.62449    116866.92448  20272847.5274   20272845.7934
     -1197.8754
  -9790160.89449  -7619330.28547  21965646.2704   21965645.3754
      1517.6564
 -12021876.19049  -9353352.30048  19395216.1604   19395213.9184
      1638.6254
 -15312476.84849 -11921617.27348  21185330.3324   21185326.5124
      1920.4064
 -12205974.20249  -9499675.40847  21404654.8094   21404653.1414
      4197.6564
 04  9  7 22 36 29.9960000  0  7G 3G 8G13G10G27G19G28
  -5807075.79749  -4509330.62347  22279291.0744   22279292.5554
      -557.2974
 -19833213.25949 -15427772.54848  19549557.3634   19549555.6174
      2881.2034
    163812.79849    130905.49348  20276275.9104   20276274.0274
     -1204.4064
  -9812853.50849  -7637012.84447  21961328.6684   21961327.8794
      1508.0164
 -12046427.91949  -9372483.52348  19390544.0204   19390541.9224
      1634.8754
 -15341214.79449 -11944010.47148  21179861.7384   21179857.5514
      1911.2344
 -12268907.52049  -9548714.32247  21392678.6684   21392677.5354
      4193.3914
 04  9  7 22 36 44.9960000  0  7G 3G 8G13G10G27G19G28
  -5798655.34449  -4502769.24347  22280894.4104   22280892.8324
      -565.5004
 -19876400.20349 -15461424.70448  19541339.0664   19541337.0824
      2877.0784
    181927.20749    145020.60448  20279722.8164   20279720.9694
     -1210.9374
  -9835401.25749  -7654582.53047  21957037.4494   21957036.9844
      1498.3284
 -12070923.46049  -9391570.94948  19385882.7934   19385880.4304
      1631.1884
 -15369813.14849 -11966294.90148  21174419.4414   21174415.9574
      1901.9064
 -12331774.50149  -9597701.54447  21380715.3484   21380713.8404
      4188.9224
 04  9  7 22 36 59.9960000  0  7G 3G 8G13G10G27G19G28
  -5790110.26449  -4496110.71147  22282518.7314   22282518.2344
      -573.5944
 -19919522.28749 -15495026.32248  19533133.1844   19533131.5044
      2872.9064
    200142.35449    159214.21048  20283189.1294   20283187.2344
     -1217.4844
  -9857801.45149  -7672037.22747  21952774.8634   21952773.9104
      1488.6724
 -12095359.97349  -9410612.38648  19381232.7234   19381230.5004
      1627.3754
 -15398269.18149 -11988468.41248  21169003.5984   21169000.9534
      1892.5634
 -12394572.41249  -9646634.94047  21368765.7234   21368763.9574
      4184.4534
 04  9  7 22 37 14.9960000  0  7G 3G 8G13G10G27G19G28
  -5781443.85349  -4489357.68047  22284169.2154   22284169.2974
      -581.5474
 -19962582.57749 -15528579.79148  19524939.0664   19524937.1684
      2868.8594
    218454.94349    173483.73448  20286673.7074   20286672.0554
     -1223.8124
  -9880057.14149  -7689379.33147  21948539.4654   21948538.9814
      1479.1254
 -12119740.47549  -9429610.18048  19376593.5274   19376591.2344
      1623.7814
 -15426585.81449 -12010533.30848  21163615.5514   21163612.5394
      1883.4694
 -12457304.08249  -9695516.73247  21356828.2544   21356826.6724
      4180.2034
 04  9  7 22 37 29.9960000  0  7G 3G 8G13G10G27G19G28
  -5772657.66649  -4482511.31947  22285840.4024   22285840.2544
      -589.9374
 -20005582.31049 -15562086.06948  19516756.4024   19516754.7504
      2864.4844
    236863.44049    187827.99948  20290177.0514   20290174.7274
     -1230.5784
  -9902169.70249  -7706609.89547  21944332.1064   21944331.1564
      1469.2504
 -12144066.31149  -9448565.37948  19371964.3634   19371962.1094
      1619.8284
 -15454764.28049 -12032490.54448  21158253.9264   21158250.1524
      1873.8134
 -12519970.79949  -9744347.89747  21344902.8484   21344901.3874
      4175.4534
 04  9  7 22 37 44.9960000  0  7G 3G 8G13G10G27G19G28
  -5763744.00449  -4475565.59847  22287537.0124   22287535.3524
      -598.0944
 -20048513.70249 -15595539.09048  19508586.7154   19508584.8054
      2860.2814
    255375.61749    202253.05548  20293699.7384   20293697.4414
     -1237.1254
  -9924131.30149  -7723722.83847  21940153.0984   21940152.2114
      1459.5474
 -12168329.28749  -9467471.59348  19367347.2544   19367344.8054
      1615.9064
 -15482796.58849 -12054333.89048  21152918.9024   21152916.0004
      1864.3284
 -12582564.44049  -9793122.12147  21332991.8714   21332990.2314
      4170.8914
 04  9  7 22 37 59.9960000  0  7G 3G 8G13G10G27G19G28
  -5754709.70149  -4468525.87847  22289255.7234   22289257.0904
      -606.0624
 -20091383.10249 -15628943.82348  19500429.0904   19500426.9694
      2856.0784
    273984.75949    216753.66348  20297240.8564   20297239.1994
     -1243.6414
  -9945948.54049  -7740723.29847  21936001.4184   21936000.3984
      1449.8444
 -12192536.10149  -9486334.05448  19362740.8164   19362738.2974
      1612.1564
 -15510689.12949 -12076068.33848  21147611.3404   21147608.2464
      1855.0634
 -12645091.43349  -9841844.42647  21321093.0354   21321091.6094
      4166.4384
 04  9  7 22 38 14.9960000  0  7G 3G 8G13G10G27G19G28
  -5745556.91949  -4461393.89947  22290998.1214   22290997.6684
      -613.9694
 -20134192.43849 -15662301.74148  19492282.6454   19492280.8284
      2852.1564
    292688.60249    231328.06448  20300799.8794   20300798.4344
     -1249.8914
  -9967623.51249  -7757612.89547  21931876.8954   21931875.3834
      1440.4694
 -12216688.65449  -9505154.22448  19358144.6604   19358142.5084
      1608.5314
 -15538443.80149 -12097695.33948  21142329.7074   21142326.4814
      1845.8754
 -12707553.63749  -9890516.23747  21309207.2074   21309205.8444
      4162.1094
 04  9  7 22 38 29.9960000  0  7G 3G 8G13G10G27G19G28
  -5736281.93449  -4454166.61247  22292762.6764   22292761.4104
      -622.5004
 -20176937.39849 -15695609.50148  19484148.7704   19484146.9924
      2847.3284
    311491.12349    245979.36348  20304378.3634   20304376.2274
     -1256.9694
  -9989152.05649  -7774388.38647  21927779.8324   21927779.0744
      1430.2034
 -12240782.60049  -9523928.73248  19353559.7774   19353557.7854
      1604.1254
 -15566056.41749 -12119211.65448  21137075.2934   21137072.1024
      1835.9534
 -12769946.72749  -9939134.20247  21297334.4344   21297332.4344
      4157.0944
 04  9  7 22 38 44.9960000  0  7G 3G 8G13G10G27G19G28
  -5726885.32149  -4446844.62247  22294551.2234   22294552.4534
      -630.6254
 -20219618.06749 -15728867.16148  19476026.6064   19476025.0274
      2843.1094
    330391.68049    260707.04048  20307974.8324   20307973.1644
     -1263.4224
 -10010534.71949  -7791050.21247  21923711.3014   21923710.3444
      1420.5164
 -12264818.38549  -9542657.90148  19348985.9104   19348984.1804
      1600.3134
 -15593527.24149 -12140617.47648  21131847.3874   21131844.4344
      1826.5474
 -12832271.04549  -9987698.55447  21285474.3484   21285472.3794
      4152.5314
 04  9  7 22 38 59.9960000  0  7G 3G 8G13G10G27G19G28
  -5717367.02649  -4439427.78247  22296362.2934   22296361.3284
      -638.9224
 -20262234.29249 -15762074.59348  19467917.0204   19467915.4104
      2838.7664
    349390.49649    275511.28048  20311590.2624   20311588.7344
     -1270.0784
 -10031771.15249  -7807598.09147  21919669.9964   21919668.9184
      1410.6414
 -12288795.54449  -9561341.41048  19344423.0124   19344421.3244
      1596.3134
 -15620855.72149 -12161912.38148  21126647.6684   21126644.3244
      1816.9224
 -12894526.12149 -10036208.97347  21273627.3954   21273625.6684
      4147.7814
 04  9  7 22 39 14.9960000  0  7G 3G 8G13G10G27G19G28
  -5707725.34749  -4431914.78447  22298196.4494   22298195.8634
      -646.2974
 -20304784.42649 -15795230.55148  19459820.0514   19459818.9494
      2835.0634
    368489.14949    290393.32648  20315224.4184   20315222.9384
     -1275.9694
 -10052859.72249  -7824030.73947  21915656.4494   21915655.8444
      1401.5944
 -12312712.40449  -9579977.92048  19339872.1374   19339869.8794
      1593.0634
 -15648040.21849 -12183095.09448  21121474.4884   21121470.9184
      1808.1254
 -12956710.10549 -10084663.98447  21261794.4734   21261792.6094
      4143.7814
 04  9  7 22 39 29.9960000  0  7G 3G 8G13G10G27G19G28
  -5697969.28349  -4424312.67547  22300053.6994   22300054.0004
      -654.6874
 -20347276.77949 -15828341.45748  19451733.9104   19451732.3164
      2830.4384
    387678.67649    305346.18248  20318876.2384   20318874.3164
     -1282.7974
 -10073809.15549  -7840354.97447  21911670.5664   21911669.0394
      1391.4694
 -12336577.37649  -9598574.00448  19335330.4654   19335328.7974
      1588.8134
 -15675089.12449 -12204172.16048  21116326.6134   21116323.4844
      1798.2974
 -13018831.48149 -10133070.21047  21249973.2934   21249971.4224
      4138.8594
 04  9  7 22 39 44.9960000  0  7G 3G 8G13G10G27G19G28
  -5688096.97949  -4416619.99347  22301931.6844   22301931.4814
      -662.6724
 -20389709.19849 -15861405.68148  19443659.1994   19443657.5204
      2826.2504
    406961.03749    320371.38648  20322545.7314   20322543.8674
     -1289.2034
 -10094617.39149  -7856569.20547  21907710.0044   21907709.2664
      1381.8754
 -12360388.45849  -9617128.09048  19330799.1524   19330797.3444
      1585.0314
 -15702000.30649 -12225141.90648  21111206.0594   21111202.5164
      1788.8594
 -13080887.96749 -10181425.88647  21238163.1524   21238162.0354
      4134.3914
 04  9  7 22 39 59.9960000  0  7G 3G 8G13G10G27G19G28
  -5678102.49649  -4408832.10547  22303835.0664   22303833.2074
      -670.1724
 -20432075.26949 -15894418.19548  19435597.4654   19435595.6724
      2822.4534
    426342.23249    335473.58948  20326233.6294   20326232.0594
     -1295.1874
 -10115278.17349  -7872668.51547  21903779.2234   21903777.9304
      1372.7344
 -12384139.23649  -9635635.19648  19326280.0044   19326277.6804
      1581.5784
 -15728767.42149 -12245999.38448  21106112.9184   21106109.0204
      1779.9224
 -13142873.16549 -10229726.00947  21226368.3564   21226366.7114
      4130.2034
 04  9  7 22 40 14.9960000  0  7G 3G 8G13G10G27G19G28
  -5667990.95849  -4400952.99047  22305758.0204   22305759.1174
      -678.1564
 -20474379.74649 -15927382.71748  19427547.0434   19427544.9184
      2818.1094
    445817.31549    350648.94848  20329939.7934   20329937.8874
     -1301.6414
 -10135796.35449  -7888656.70047  21899874.3244   21899873.4264
      1362.9694
 -12407834.30749  -9654098.88448  19321770.8634   19321768.5944
      1577.5944
 -15755395.20349 -12266748.31048  21101045.5744   21101042.0784
      1770.3594
 -13204791.89349 -10277974.33947  21214585.8634   21214583.7624
      4125.5634
 04  9  7 22 40 29.9960000  0  7G 3G 8G13G10G27G19G28
  -5657759.90849  -4392980.76047  22307705.0434   22307704.8914
      -686.0474
 -20516620.12149 -15960297.28048  19419508.9884   19419507.6724
      2813.8594
    465388.51249    365899.21148  20333664.0044   20333661.9494
     -1307.9064
 -10156169.47849  -7904531.86047  21895997.4964   21895996.5274
      1353.3284
 -12431471.23749  -9672517.26948  19317272.8794   19317270.8094
      1573.8134
 -15781880.97349 -12287386.55548  21096005.0354   21096001.8954
      1760.9694
 -13266641.42049 -10326168.72847  21202816.2234   21202814.3714
      4120.9844
 04  9  7 22 40 44.9960000  0  7G 3G 8G13G10G27G19G28
  -5647412.73649  -4384918.01847  22309674.3094   22309673.2934
      -693.8124
 -20558799.35149 -15993164.21648  19411482.6914   19411480.6134
      2809.7504
    485052.63549    381221.88148  20337406.2154   20337404.3164
     -1314.1564
 -10176400.69249  -7920296.45247  21892147.5904   21892146.4614
      1343.8754
 -12455052.93049  -9690892.62248  19312785.3094   19312783.3754
      1570.1564
 -15808227.74449 -12307916.49448  21090991.4494   21090988.0664
      1751.6884
 -13328424.58049 -10374311.43447  21191058.8244   21191057.4384
      4116.5004
 04  9  7 22 40 59.9960000  0  7G 3G 8G13G10G27G19G28
  -5636945.51449  -4376761.76947  22311666.8484   22311666.3754
      -701.7814
 -20600913.05649 -16025980.08048  19403468.6064   19403466.6254
      2805.4384
    504813.57549    396619.98448  20341166.3404   20341164.5784
     -1320.6254
 -10196485.88449  -7935947.25647  21888325.6134   21888324.5354
      1334.1254
 -12478575.16049  -9709221.62948  19308309.2464   19308307.3714
      1566.1254
 -15834431.22249 -12328334.78448  21086005.3164   21086001.6954
      1742.1564
 -13390137.19049 -10422399.14047  21179315.6294   21179314.0274
      4111.7814
 04  9  7 22 41 14.9960000  0  7G 3G 8G13G10G27G19G28
  -5626362.49749  -4368515.26147  22313680.1294   22313679.0004
      -709.5474
 -20642965.25749 -16058748.02748  19395466.1604   19395464.5234
      2801.3284
    524667.18349    412090.30948  20344944.3164   20344942.3874
     -1326.7974
 -10216429.20749  -7951487.51847  21884530.6764   21884529.9414
      1324.7194
 -12502041.96749  -9727507.44948  19303843.7854   19303841.5744
      1562.5164
 -15860495.27649 -12348644.42948  21081045.5354   21081042.3324
      1732.9064
 -13451783.14249 -10470434.90747  21167584.6994   21167583.0474
      4107.4224
 04  9  7 22 41 29.9960000  0  7G 3G 8G13G10G27G19G28
  -5615658.41149  -4360174.41647  22315716.7854   22315715.9964
      -717.3124
 -20684950.20549 -16091463.56748  19387477.0124   19387475.2384
      2797.1094
    544618.93449    427637.09748  20348740.9344   20348739.6844
     -1333.0314
 -10236225.00649  -7966912.82047  21880763.5124   21880762.7504
      1315.1564
 -12525447.59549  -9745745.59648  19299389.8874   19299387.7344
      1558.6884
 -15886414.26849 -12368841.02248  21076112.9734   21076109.8134
      1723.4064
 -13513356.58149 -10518414.17747  21155867.6134   21155865.7704
      4102.8134
 04  9  7 22 41 44.9960000  0  7G 3G 8G13G10G27G19G28
  -5604837.06749  -4351742.24047  22317776.3404   22317776.0984
      -725.6564
 -20726871.58049 -16124129.57048  19379499.2774   19379497.8564
      2792.4384
    564664.90749    443257.31048  20352555.6764   20352553.7584
     -1339.6724
 -10255877.09249  -7982226.14647  21877023.6604   21877023.1134
      1305.1414
 -12548795.64849  -9763938.88748  19294947.1524   19294944.7934
      1554.4224
 -15912191.80249 -12388927.41748  21071207.7234   21071204.4414
      1713.6094
 -13574861.12049 -10566339.77647  21144163.5044   21144161.6914
      4097.7504
 04  9  7 22 41 59.9960000  0  7G 3G 8G13G10G27G19G28
  -5593898.94149  -4343219.02447  22319858.1294   22319856.4264
      -733.0624
 -20768729.34749 -16156746.00348  19371534.5204   19371532.7464
      2788.4064
    584804.90749    458950.79248  20356388.1914   20356386.3054
     -1345.7664
 -10275385.57849  -7997427.56147  21873311.4024   21873310.2814
      1295.7974
 -12572086.13049  -9782087.32548  19290514.7934   19290512.6134
      1550.7664
 -15937827.84549 -12408903.54048  21066329.5274   21066326.2464
      1704.2974
 -13636296.70449 -10614211.62247  21132472.9024   21132471.0394
      4093.4064
 04  9  7 22 42 14.9960000  0  7G 3G 8G13G10G27G19G28
  -5582849.71149  -4334609.22847  22321959.9574   22321959.1844
      -740.2504
 -20810529.00549 -16189317.16248  19363580.0904   19363578.0664
      2784.7194
    605033.07149    474712.97648  20360237.8714   20360235.9414
     -1351.5164
 -10294756.11349  -8012521.48447  21869625.5824   21869624.8014
      1286.7814
 -12595324.47849  -9800195.12548  19286092.8164   19286090.2074
      1547.5004
 -15963327.85749 -12428773.66548  21061476.5904   21061473.4024
      1695.4844
 -13697668.77049 -10662033.97347  21120794.0824   21120792.5084
      4089.3284
 04  9  7 22 42 29.9960000  0  7G 3G 8G13G10G27G19G28
  -5571680.99849  -4325906.37547  22324085.7314   22324085.4924
      -748.2814
 -20852261.73549 -16221836.17148  19355638.5664   19355636.8834
      2780.2344
    625357.79349    490550.39348  20364105.3794   20364104.1174
     -1357.9534
 -10313980.18849  -8027501.29447  21865967.2934   21865965.8484
      1276.9694
 -12618502.00149  -9818255.53348  19281682.1064   19281679.6524
      1543.3444
 -15988683.11349 -12448531.00848  21056651.9814   21056648.7734
      1685.7664
 -13758968.54349 -10709800.00747  21109128.9964   21109127.3094
      4084.4534
 04  9  7 22 42 44.9960000  0  7G 3G 8G13G10G27G19G28
  -5560399.95849  -4317115.98547  22326231.4574   22326232.1174
      -755.8594
 -20893934.39049 -16254308.36048  19347708.6524   19347706.8834
      2776.1414
    645771.91349    506457.47848  20367990.0274   20367987.7854
     -1363.9694
 -10333064.67049  -8042372.32147  21862335.6134   21862334.6764
      1267.6724
 -12641625.58749  -9836273.91948  19277282.1374   19277279.5004
      1539.7814
 -16013900.49049 -12468180.89948  21051852.6214   21051849.8244
      1676.5634
 -13820202.88349 -10757515.04048  21097476.9344   21097474.6374
      4080.0474
 04  9  7 22 42 59.9960000  0  7G 3G 8G13G10G27G19G28
  -5549005.06449  -4308236.84447  22328400.4494   22328399.4924
      -763.5624
 -20935544.93749 -16286732.15548  19339790.3874   19339788.6024
      2771.9224
    666277.09349    522435.51548  20371892.2854   20371890.5004
     -1370.0784
 -10352007.86149  -8057133.25247  21858730.8484   21858729.7504
      1258.0634
 -12664693.25649  -9854248.71448  19272892.1994   19272890.0004
      1535.9064
 -16038978.10649 -12487721.88148  21047081.4414   21047077.6524
      1667.1564
 -13881369.75049 -10805177.49547  21085836.7624   21085834.8984
      4075.4694
 04  9  7 22 43 14.9960000  0  7G 3G 8G13G10G27G19G28
  -5537488.96249  -4299263.28347  22330591.8404   22330591.6214
      -771.5314
 -20977085.68049 -16319101.56248  19331885.3404   19331883.6134
      2767.1884
    686880.78349    538490.31348  20375812.9184   20375810.7424
     -1376.7504
 -10370802.30949  -8071778.28347  21855154.3714   21855153.6094
      1248.1884
 -12687697.42549  -9872174.05348  19268514.6914   19268512.5434
      1531.6254
 -16063908.15849 -12507147.89048  21042337.2774   21042333.5354
      1657.2344
 -13942461.38349 -10852781.32147  21074211.3164   21074209.3404
      4070.4224
 04  9  7 22 43 29.9950000  0  7G 3G 8G13G10G27G19G28
  -5525861.58849  -4290202.98747  22332805.1554   22332804.1124
      -779.1094
 -21018562.49849 -16351421.15848  19323992.2494   19323990.8554
      2763.2034
    707572.56749    554613.76748  20379750.8274   20379748.7574
     -1382.6254
 -10389455.65949  -8086313.36347  21851604.8044   21851603.9724
      1238.8444
 -12710645.26049  -9890055.47648  19264147.7884   19264145.4294
      1528.0474
 -16088697.82649 -12526464.50148  21037619.6634   21037616.5344
      1648.0164
 -14003482.50549 -10900330.22547  21062599.4764   21062597.7144
      4066.0004
 04  9  7 22 43 44.9950000  0  7G 3G 8G13G10G27G19G28
  -5514124.32949  -4281057.07047  22335037.9374   22335037.1944
      -786.3284
 -21059983.79949 -16383697.48648  19316110.3824   19316108.6284
      2759.3134
    728352.42349    570805.84148  20383704.6944   20383702.7574
     -1388.3594
 -10407973.14549  -8100742.58547  21848081.4914   21848080.4174
      1229.7504
 -12733542.38849  -9907897.39248  19259790.7414   19259788.6084
      1524.5634
 -16113352.94249 -12545676.26848  21032928.3274   21032924.9014
      1638.9844
 -14064443.67549 -10947832.40048  21050999.2334   21050997.0194
      4061.7974
 04  9  7 22 43 59.9950000  0  7G 3G 8G13G10G27G19G28
  -5502274.98149  -4271823.82147  22337292.8744   22337292.7064
      -793.7034
 -21101343.39549 -16415925.73748  19308240.1404   19308238.0974
      2755.1884
    749221.74449    587067.63848  20387675.8904   20387674.2844
     -1394.2664
 -10426350.36249  -8115062.49447  21844584.1714   21844583.0034
      1220.4534
 -12756384.01949  -9925696.07348  19255444.0624   19255442.1324
      1520.8444
 -16137868.65849 -12564779.40448  21028262.7024   21028259.3354
      1629.7344
 -14125337.68749 -10995282.23547  21039411.2334   21039409.6204
      4057.3284
 04  9  7 22 44 14.9950000  0  7G 3G 8G13G10G27G19G28
  -5490313.76749  -4262503.39747  22339569.2414   22339568.6984
      -800.8754
 -21142641.01549 -16448105.68748  19300381.3124   19300379.3354
      2751.3134
    770180.43849    603399.06848  20391664.0154   20391662.6754
     -1399.9844
 -10444587.30949  -8129273.10847  21841113.7334   21841112.8314
      1211.3594
 -12779170.04949  -9943451.41048  19251107.8904   19251106.2574
      1517.4534
 -16162244.85949 -12583773.83848  21023624.4374   21023620.9724
      1620.6724
 -14186164.28349 -11042679.54647  21027836.2024   21027834.5344
      4053.0784
 04  9  7 22 44 29.9950000  0  7G 3G 8G13G10G27G19G28
  -5478237.92449  -4253093.65147  22341866.7574   22341866.8124
      -808.8124
 -21183873.77349 -16480235.10648  19292534.9294   19292533.0424
      2746.7194
    791231.41449    619802.39948  20395670.3824   20395668.4374
     -1406.5004
 -10462681.09049  -8143372.17847  21837670.3354   21837669.5624
      1201.5004
 -12801897.41649  -9961161.05348  19246783.1084   19246780.9834
      1513.1724
 -16186478.35549 -12602657.07548  21019012.6404   21019009.3394
      1610.7974
 -14246920.26249 -11090021.84948  21016274.4294   21016272.8194
      4048.0474
 04  9  7 22 44 44.9950000  0  7G 3G 8G13G10G27G19G28
  -5466048.71949  -4243595.61047  22344186.8274   22344186.7264
      -816.4534
 -21225042.46749 -16512314.59948  19284700.6944   19284698.7804
      2742.4534
    812373.34849    636276.62148  20399693.4444   20399691.6204
     -1412.4534
 -10480632.87349  -8157360.57647  21834254.4054   21834253.8664
      1191.9844
 -12824567.06649  -9978825.70848  19242469.1714   19242467.1124
      1509.3914
 -16210570.22849 -12621429.95248  21014427.8664   21014425.0154
      1601.3914
 -14307606.58149 -11137309.84547  21004726.5074   21004724.6404
      4043.3594
 04  9  7 22 44 59.9950000  0  7G 3G 8G13G10G27G19G28
  -5453745.02249  -4234008.33147  22346528.1714   22346527.0544
      -824.1724
 -21266145.77049 -16544343.14748  19276879.0624   19276877.0424
      2737.9694
    833607.40149    652822.61148  20403734.0464   20403732.3354
     -1418.7974
 -10498441.35449  -8171237.33747  21830865.6634   21830864.3124
      1182.4384
 -12847177.54549  -9996444.27348  19238166.5304   19238164.3434
      1505.3134
 -16234519.04049 -12640091.36448  21009871.0154   21009867.5264
      1591.7194
 -14368221.83949 -11184542.48947  20993191.6084   20993189.8154
      4038.5634
 04  9  7 22 45 14.9950000  0  7G 3G 8G13G10G27G19G28
  -5441329.46249  -4224333.86547  22348890.4604   22348890.7454
      -831.6724
 -21307185.80749 -16576322.39548  19269069.2734   19269067.3314
      2733.6724
    854931.10249    669438.46648  20407792.0074   20407789.9484
     -1424.7194
 -10516108.86249  -8185004.22347  21827503.3744   21827502.6284
      1173.0004
 -12869730.96949 -10014018.36248  19233874.7414   19233872.5034
      1501.4534
 -16258326.84649 -12658642.88948  21005340.3984   21005336.9214
      1582.3284
 -14428767.96649 -11231721.25147  20981670.1164   20981668.7064
      4033.9064
 04  9  7 22 45 29.9950000  0  7G 3G 8G13G10G27G19G28
  -5428802.03549  -4214572.27247  22351273.8984   22351274.7804
      -838.7974
 -21348162.25149 -16608252.08248  19261271.9374   19261269.9724
      2729.7194
    876344.41649    686124.14648  20411866.4764   20411865.6554
     -1430.3444
 -10533635.37849  -8198661.26547  21824168.5464   21824167.4054
      1163.8284
 -12892227.15049 -10031547.85448  19229593.9374   19229591.7654
      1497.9224
 -16281993.46149 -12677084.38748  21000837.4134   21000833.0894
      1573.0944
 -14489244.83149 -11278846.04347  20970161.9604   20970159.7844
      4029.5314
 04  9  7 22 45 44.9950000  0  7G 3G 8G13G10G27G19G28
  -5416165.14449  -4204725.35747  22353679.3824   22353678.7224
      -846.1414
 -21389077.19149 -16640133.84948  19253485.7184   19253484.2414
      2725.5474
    897845.03849    702877.84648  20415958.0234   20415956.1084
     -1436.4064
 -10551023.15049  -8212210.18447  21820858.9604   21820858.2534
      1154.5634
 -12914668.21249 -10049034.39448  19225323.4134   19225321.3434
      1494.2194
 -16305521.12249 -12695417.62848  20996359.4764   20996355.9644
      1563.8134
 -14549654.48449 -11325918.46847  20958666.3434   20958664.5344
      4024.9844
 04  9  7 22 45 59.9950000  0  7G 3G 8G13G10G27G19G28
  -5403418.98149  -4194793.28147  22356104.4294   22356104.6794
      -853.7504
 -21429930.46949 -16671967.56448  19245711.6164   19245709.2454
      2721.0474
    919432.74249    719699.42348  20420066.3514   20420063.8394
     -1442.3754
 -10568272.07549  -8225650.90847  21817577.3194   21817575.7494
      1144.9384
 -12937053.86949 -10066477.76148  19221064.1014   19221061.5814
      1490.1564
 -16328909.58449 -12713642.39348  20991909.0304   20991905.6444
      1554.1094
 -14609996.59649 -11372938.26448  20947183.5934   20947181.8554
      4020.1724
 04  9  7 22 46 14.9950000  0  7G 3G 8G13G10G27G19G28
  -5390561.68849  -4184774.60147  22358551.8354   22358550.9604
      -860.7194
 -21470719.69249 -16703751.36248  19237949.7414   19237947.9524
      2717.3284
    941109.52049    736590.37848  20424190.8984   20424189.2264
     -1447.9064
 -10585380.26649  -8238981.97547  21814321.6014   21814320.4644
      1136.0784
 -12959382.05749 -10083876.35248  19216814.6794   19216812.5934
      1486.8284
 -16352156.58749 -12731756.93448  20987485.5384   20987481.5694
      1545.2344
 -14670268.82649 -11419903.58747  20935713.9374   20935712.5854
      4016.0004
 04  9  7 22 46 29.9950000  0  7G 3G 8G13G10G27G19G28
  -5377593.97849  -4174669.90347  22361018.7334   22361018.4804
      -868.3594
 -21511445.34349 -16735485.64148  19230199.8434   19230197.9604
      2712.7344
    962874.54649    753550.12448  20428333.2414   20428331.2224
     -1454.1254
 -10602348.27549  -8252203.81547  21811093.1484   21811091.3154
      1126.3134
 -12981653.03649 -10101230.36748  19212576.8584   19212574.7734
      1482.6414
 -16375262.61549 -12749761.62448  20983088.8044   20983085.2064
      1535.5474
 -14730471.76549 -11466814.93848  20924257.3354   20924255.5934
      4011.0314
 04  9  7 22 46 44.9950000  0  7G 3G 8G13G10G27G19G28
  -5364514.49949  -4164478.11247  22363508.3274   22363507.8704
      -875.1724
 -21552105.70649 -16767169.02948  19222462.4994   19222460.5234
      2709.0314
    984729.37349    770579.83648  20432491.6404   20432490.1634
     -1459.4374
 -10619174.56449  -8265315.19647  21807890.6554   21807889.3664
      1117.5634
 -13003865.20449 -10118538.54448  19208349.5934   19208347.6484
      1479.3444
 -16398225.95449 -12767655.12248  20978718.8194   20978715.0854
      1526.6254
 -14790603.58449 -11513670.86648  20912814.7884   20912813.0154
      4006.8444
 04  9  7 22 46 59.9950000  0  7G 3G 8G13G10G27G19G28
  -5351332.35549  -4154206.31647  22366016.5934   22366016.4174
      -882.1254
 -21592709.50649 -16798808.34048  19214735.9764   19214734.1904
      2705.1254
   1006665.03549    787672.53848  20436665.9604   20436664.0654
     -1465.0164
 -10635867.88449  -8278322.97647  21804713.6554   21804712.8274
      1108.5164
 -13026027.20849 -10135807.63548  19204132.4994   19204130.7844
      1475.8754
 -16421055.23449 -12785444.16348  20974374.0234   20974370.6324
      1517.5634
 -14850672.91249 -11560478.09247  20901383.8044   20901381.7964
      4002.5164
 04  9  7 22 47 14.9950000  0  7G 3G 8G13G10G27G19G28
  -5338040.35549  -4143848.91647  22368545.5154   22368545.9174
      -889.8754
 -21633248.95149 -16830397.52248  19207021.3744   19207020.1164
      2700.4844
   1028688.69949    804833.81548  20440857.0854   20440854.8944
     -1471.1414
 -10652420.94349  -8291221.48547  21801564.2734   21801563.5074
      1098.8754
 -13048131.34949 -10153031.64348  19199926.6874   19199923.7884
      1471.7194
 -16443742.96549 -12803122.90148  20970056.8904   20970053.4294
      1507.8284
 -14910672.07849 -11607230.65647  20889966.7184   20889964.6634
      3997.6254
 04  9  7 22 47 29.9950000  0  7G 3G 8G13G10G27G19G28
  -5324639.18749  -4133406.46147  22371096.1404   22371095.7574
      -896.9844
 -21673724.54449 -16861936.94148  19199319.3514   19199317.6484
      2696.2814
   1050799.73549    822063.16248  20445064.4914   20445062.9804
     -1476.9534
 -10668834.28349  -8304011.13147  21798440.4914   21798439.2104
      1089.6414
 -13070178.15949 -10170210.97548  19195731.3044   19195728.9484
      1467.9224
 -16466289.52949 -12820691.65948  20965766.5384   20965763.0734
      1498.4064
 -14970601.43749 -11653928.83447  20878562.3984   20878560.9914
      3992.9534
 04  9  7 22 47 44.9950000  0  7G 3G 8G13G10G27G19G28
  -5311128.40849  -4122878.62547  22373666.9444   22373667.7374
      -904.8284
 -21714135.60949 -16893426.09048  19191629.0934   19191627.3124
      2691.4844
   1072998.56649    839360.95148  20449288.9134   20449286.9764
     -1483.3124
 -10685107.33149  -8316691.43247  21795344.4994   21795343.0814
      1079.7034
 -13092166.84649 -10187345.02348  19191546.6874   19191544.7884
      1463.5314
 -16488694.25649 -12838149.88448  20961502.8124   20961499.7064
      1488.4844
 -15030460.31749 -11700572.07747  20867172.0074   20867170.0384
      3987.7814
 04  9  7 22 47 59.9950000  0  7G 3G 8G13G10G27G19G28
  -5297505.76249  -4112263.57347  22376259.9444   22376258.9954
      -911.9694
 -21754479.29149 -16924862.71148  19183951.8664   19183950.1944
      2687.2974
   1095287.58249    856728.97948  20453530.1484   20453528.5544
     -1489.0314
 -10701237.66449  -8329260.51547  21792275.4134   21792273.8004
      1070.5164
 -13114094.79649 -10204431.73948  19187374.0384   19187372.1324
      1459.8444
 -16510954.55949 -12855495.55648  20957267.1794   20957263.3824
      1479.0634
 -15090245.93649 -11747158.23547  20855794.6014   20855792.8004
      3983.2504
 04  9  7 22 48 14.9950000  0  7G 3G 8G13G10G27G19G28
  -5283774.72849  -4101564.08347  22378871.6244   22378872.1754
      -918.8914
 -21794758.79949 -16956249.33448  19176287.2264   19176285.3624
      2683.2504
   1117663.26549    874164.56948  20457788.2184   20457786.6404
     -1494.5624
 -10717228.60049  -8341721.00247  21789231.5384   21789230.6204
      1061.4694
 -13135965.10749 -10221473.54348  19183212.2574   19183210.3584
      1456.1254
 -16533073.59749 -12872731.15848  20953057.5934   20953054.5544
      1470.0004
 -15149961.44049 -11793689.75848  20844431.1164   20844429.7264
      3978.7664
 04  9  7 22 48 29.9950000  0  7G 3G 8G13G10G27G19G28
  -5269935.09049  -4090779.98847  22381506.3194   22381506.5544
      -925.8914
 -21834973.71449 -16987585.62848  19168634.4764   19168632.1834
      2679.2344
   1140125.85449    891667.85348  20462062.9994   20462061.1754
     -1499.9694
 -10733079.82349  -8354072.61147  21786215.1324   21786213.8784
      1052.4064
 -13157777.35149 -10238470.09448  19179061.3044   19179059.4724
      1452.6094
 -16555050.87149 -12889856.30848  20948876.0234   20948872.0034
      1460.7504
 -15209606.38049 -11840166.30347  20833081.4294   20833078.8514
      3974.3594
 04  9  7 22 48 44.9950000  0  7G 3G 8G13G10G27G19G28
  -5255986.44349  -4079910.90847  22384160.6794   22384160.2224
      -933.3754
 -21875122.93049 -17018870.72048  19160994.4764   19160992.7064
      2674.5944
   1162676.03649    909239.40948  20466353.9834   20466352.2144
     -1506.0624
 -10748790.73349  -8366314.89047  21783225.9134   21783224.8394
      1042.9224
 -13179530.53749 -10255420.62048  19174921.6484   19174919.8234
      1448.3284
 -16576885.52649 -12906870.31448  20944720.7024   20944717.1714
      1451.1254
 -15269179.71049 -11886587.04448  20821744.5624   20821742.3474
      3969.2974
 04  9  7 22 48 59.9950000  0  7G 3G 8G13G10G27G19G28
  -5241928.29349  -4068956.52247  22386835.4374   22386835.3984
      -940.8444
 -21915205.98349 -17050104.27348  19153366.9054   19153364.9724
      2670.0944
   1185314.28949    926879.57848  20470661.9834   20470660.1754
     -1512.0164
 -10764360.55149  -8378447.21847  21780262.6714   21780261.6244
      1033.3284
 -13201223.91249 -10272324.56548  19170793.7334   19170791.9444
      1444.1414
 -16598576.79349 -12923772.60248  20940592.8274   20940589.2734
      1441.2974
 -15328680.51949 -11932951.28447  20810421.8984   20810420.4724
      3964.3444
 04  9  7 22 49 14.9950000  0  7G 3G 8G13G10G27G19G28
  -5227761.51449  -4057917.45347  22389531.1554   22389531.2334
      -948.1564
 -21955222.89449 -17081286.27048  19145751.8194   19145749.7654
      2665.5634
   1208039.71149    944587.68148  20474986.3584   20474984.6554
     -1518.0004
 -10779789.97749  -8390470.15147  21777326.5234   21777325.3474
      1023.9844
 -13222857.95249 -10289182.25748  19166676.8434   19166674.9644
      1440.2034
 -16620125.15649 -12940563.51148  20936492.0074   20936488.7334
      1431.6884
 -15388109.33349 -11979259.40248  20799113.3664   20799111.0814
      3959.4534
 04  9  7 22 49 29.9950000  0  7G 3G 8G13G10G27G19G28
  -5213486.87449  -4046794.39347  22392246.5774   22392247.2574
      -954.9694
 -21995174.38749 -17112417.28648  19138149.2494   19138147.4954
      2661.4694
   1230851.65049    962363.17948  20479327.4684   20479326.0424
     -1523.4224
 -10795079.65949  -8402384.18147  21774416.8664   21774416.4404
      1014.8594
 -13244433.00449 -10305993.98448  19162571.5304   19162568.9254
      1436.5784
 -16641531.15849 -12957243.50848  20932418.9134   20932415.2614
      1422.5784
 -15447466.57349 -12025511.76248  20787817.9834   20787815.6164
      3955.0164
 04  9  7 22 49 44.9950000  0  7G 3G 8G13G10G27G19G28
  -5199108.22749  -4035590.26447  22394983.4054   22394983.3474
      -962.0784
 -22035064.04749 -17143500.14948  19130558.6634   19130556.8274
      2657.2194
   1253746.20449    980203.06848  20483684.2104   20483682.3554
     -1529.0314
 -10810233.50149  -8414192.41747  21771533.8274   21771532.6124
      1005.7664
 -13265952.90949 -10322762.74648  19158476.3984   19158473.9804
      1432.7814
 -16662798.46549 -12973815.42948  20928371.5304   20928368.0264
      1413.1254
 -15506755.76849 -12071711.11648  20776534.9684   20776533.3744
      3950.3754
 04  9  7 22 49 59.9950000  0  7G 3G 8G13G10G27G19G28
  -5184620.71549  -4024301.29747  22397741.1484   22397740.3904
      -969.4694
 -22074886.26149 -17174530.43848  19122980.7414   19122978.7574
      2652.5784
   1276728.42749    998111.26848  20488057.7184   20488055.9914
     -1535.0624
 -10825246.23549  -8425890.64947  21768676.6014   21768675.9764
       996.1414
 -13287412.13349 -10339484.22148  19154392.4834   19154389.8514
      1428.5944
 -16683921.63749 -12990275.04848  20924352.4374   20924348.8474
      1403.4844
 -15565971.47549 -12117853.19048  20765266.7264   20765265.1014
      3945.2664
 04  9  7 22 50 14.9950000  0  7G 3G 8G13G10G27G19G28
  -5170025.86649  -4012928.64547  22400518.1484   22400517.3584
      -976.0004
 -22114642.33249 -17205509.19448  19115415.2334   19115413.6084
      2648.7034
   1299796.79949   1016086.60748  20492447.5544   20492445.5814
     -1540.2974
 -10840119.23849  -8437479.99747  21765846.8744   21765845.8154
       987.2664
 -13308811.89849 -10356159.36748  19150320.4294   19150318.0464
      1425.1414
 -16704901.90049 -13006623.29648  20920359.5384   20920355.9764
      1394.3754
 -15625114.93049 -12163938.96348  20754012.2654   20754010.2614
      3941.0314
 04  9  7 22 50 29.9950000  0  7G 3G 8G13G10G27G19G28
  -5155325.82149  -4001474.13647  22403316.2734   22403315.0894
      -983.5944
 -22154334.17949 -17236437.89348  19107862.2024   19107860.2964
      2643.9064
   1322949.13849   1034127.36048  20496853.2574   20496851.5114
     -1546.2974
 -10854854.65449  -8448962.15247  21763042.6244   21763041.7574
       977.6724
 -13330153.94749 -10372789.53548  19146259.4444   19146257.3044
      1420.7814
 -16725741.25249 -13022861.73448  20916394.7334   20916391.2414
      1384.5004
 -15684188.05949 -12209969.93248  20742771.0694   20742769.4214
      3935.8284
 04  9  7 22 50 44.9950000  0  7G 3G 8G13G10G27G19G28
  -5140518.30049  -3989935.82447  22406133.0544   22406133.2144
      -990.3444
 -22193958.98449 -17267314.36148  19100321.8584   19100320.2924
      2639.8444
   1346187.83149   1052235.40248  20501275.4134   20501273.2884
     -1551.7344
 -10869449.97649  -8460335.14847  21760265.1794   21760264.2654
       968.7504
 -13351435.84349 -10389372.83248  19142209.0934   19142207.2924
      1417.1724
 -16746437.09149 -13038988.36348  20912456.2264   20912452.4334
      1375.2974
 -15743188.19349 -12255944.03548  20731543.7024   20731541.7104
      3931.3754
 04  9  7 22 50 59.9950000  0  7G 3G 8G13G10G27G19G28
  -5125603.65949  -3978314.03347  22408970.9604   22408971.1084
      -998.0624
 -22233516.88549 -17298138.69248  19092794.0934   19092792.8624
      2634.7344
   1369512.55949   1070410.49848  20505713.8124   20505712.2454
     -1558.0624
 -10883905.40849  -8471599.12547  21757514.4134   21757513.8744
       958.8284
 -13372657.43249 -10405909.12948  19138171.1554   19138168.9524
      1412.5004
 -16766989.41949 -13055003.15148  20908545.1944   20908541.9804
      1365.1414
 -15802115.12049 -12301861.08748  20720330.3744   20720328.4134
      3925.8134
 04  9  7 22 51 14.9950000  0  7G 3G 8G13G10G27G19G28
  -5110579.48449  -3966606.89647  22411830.5154   22411829.8514
     -1005.4844
 -22273005.06149 -17328908.69648  19085279.9914   19085278.2304
      2630.0474
   1392925.83049   1088654.56748  20510169.1084   20510167.6244
     -1564.0164
 -10898218.43149  -8482752.14147  21754790.4604   21754789.5774
       949.2344
 -13393815.97049 -10422396.29848  19134144.6484   19134142.5034
      1408.2814
 -16787395.56649 -13070904.04348  20904661.8274   20904658.6674
      1355.3444
 -15860966.04549 -12347718.91748  20709131.1634   20709129.1244
      3920.6724
 04  9  7 22 51 29.9950000  0  7G 3G 8G13G10G27G19G28
  -5095449.35849  -3954817.20947  22414709.6014   22414709.1484
     -1012.1254
 -22312426.28649 -17359626.53448  19077778.4764   19077776.3904
      2625.8914
   1416424.16949   1106964.93748  20514641.0234   20514638.9564
     -1569.3284
 -10912392.37049  -8493796.76847  21752093.1324   21752092.4684
       940.4224
 -13414914.64049 -10438836.83148  19130129.4134   19130127.4444
      1404.6254
 -16807658.68449 -13086693.47948  20900805.7184   20900802.4954
      1346.1564
 -15919744.08749 -12393519.96848  20697946.4444   20697944.1634
      3916.1564
 04  9  7 22 51 44.9950000  0  7G 3G 8G13G10G27G19G28
  -5080211.91449  -3942943.89747  22417609.3584   22417609.6204
     -1019.5624
 -22351779.14749 -17390291.09948  19070289.6554   19070287.6284
      2621.0944
   1440008.99649   1125342.69348  20519128.9764   20519127.2614
     -1575.3444
 -10926425.69849  -8504731.83747  21749422.8194   21749422.0504
       930.7034
 -13435951.70549 -10455229.34748  19126126.5154   19126124.4914
      1400.2034
 -16827777.06949 -13102370.14348  20896977.5154   20896973.9874
      1336.2034
 -15978447.42149 -12439262.79248  20686775.0934   20686772.6364
      3910.8754
 04  9  7 22 51 59.9950000  0  7G 3G 8G13G10G27G19G28
  -5064872.29649  -3930990.97547  22420527.5854   22420527.7844
     -1026.3444
 -22391068.49949 -17420906.17448  19062813.0384   19062811.4014
      2616.9694
   1463675.18749   1143783.84948  20523632.3514   20523630.5504
     -1580.7034
 -10940323.49149  -8515561.29647  21746778.4524   21746777.4054
       921.7974
 -13456932.00649 -10471577.63748  19122134.0074   19122132.0504
      1396.5784
 -16847755.74549 -13117937.92948  20893175.6944   20893172.2764
      1327.0784
 -16037081.13349 -12484951.36248  20675617.3434   20675615.5234
      3906.3444
 04  9  7 22 52 14.9950000  0  7G 3G 8G13G10G27G19G28
  -5049426.23649  -3918955.10247  22423467.3044   22423466.8124
     -1033.6094
 -22430289.82449 -17451468.22948  19055349.5854   19055347.6204
      2612.2344
   1487426.97749   1162291.70148  20528152.1944   20528150.7454
     -1586.5474
 -10954081.28749  -8526281.67347  21744160.9374   21744159.7734
       912.1884
 -13477850.82749 -10487878.01648  19118153.6014   19118151.4334
      1392.2974
 -16867589.97849 -13133393.16848  20889401.4214   20889397.8664
      1317.2344
 -16095640.38049 -12530581.90948  20664474.1484   20664471.8434
      3901.2664
 04  9  7 22 52 29.9950000  0  7G 3G 8G13G10G27G19G28
  -5033875.26449  -3906837.48047  22426427.2104   22426426.7064
     -1040.3124
 -22469444.09649 -17481978.04648  19047898.8664   19047896.9014
      2607.9694
   1511262.91949   1180865.13648  20532688.2734   20532686.6514
     -1591.9224
 -10967700.46449  -8536894.03347  21741568.8904   21741568.0934
       903.2664
 -13498709.44749 -10504131.47748  19114184.1484   19114182.0854
      1388.4844
 -16887281.04749 -13148736.85048  20885653.9214   20885650.4834
      1307.9224
 -16154126.31449 -12576155.33148  20653344.6714   20653342.3274
      3896.5164
 04  9  7 22 52 44.9950000  0  7G 3G 8G13G10G27G19G28
  -5018222.22049  -3894640.31047  22429404.9914   22429404.8824
     -1047.4374
 -22508533.43749 -17512437.27848  19040460.2494   19040458.1484
      2603.2974
   1535180.28749   1199502.03048  20537239.7334   20537238.3864
     -1597.7034
 -10981183.66649  -8547400.42747  21739003.1244   21739002.2224
       893.8594
 -13519510.22149 -10520339.88448  19110225.8514   19110223.5264
      1384.2664
 -16906831.43149 -13163970.91348  20881934.2804   20881930.4014
      1298.1884
 -16212541.40349 -12621673.56448  20642228.3354   20642226.3824
      3891.4694
 04  9  7 22 52 59.9950000  0  7G 3G 8G13G10G27G19G28
  -5002465.32949  -3882362.23147  22432403.5694   22432403.5384
     -1054.0944
 -22547555.86149 -17542844.34748  19033034.4444   19033032.7334
      2599.0634
   1559180.85249   1218203.73948  20541806.7884   20541805.4374
     -1602.9844
 -10994528.98049  -8557799.38147  21736463.1404   21736462.0264
       884.9534
 -13540251.00549 -10536501.53348  19106278.9764   19106276.6554
      1380.5164
 -16926239.10149 -13179093.76448  20878240.9524   20878237.2764
      1288.8444
 -16270883.38849 -12667134.80548  20631126.7104   20631124.5264
      3886.8444
 04  9  7 22 53 14.9950000  0  7G 3G 8G13G10G27G19G28
  -4986603.74249  -3870002.55447  22435422.2024   22435422.1014
     -1060.6414
 -22586510.28449 -17573198.44548  19025621.6164   19025619.7924
      2595.0004
   1583265.46449   1236970.93748  20546389.5304   20546388.3044
     -1608.1094
 -11007735.44449  -8568090.15047  21733950.0544   21733949.8084
       876.0944
 -13560930.61149 -10552615.50748  19102343.8984   19102341.9404
      1376.9224
 -16945502.89949 -13194104.49148  20874575.0234   20874571.4094
      1279.7974
 -16329151.15149 -12712538.22048  20620038.6794   20620036.3044
      3882.3594
 04  9  7 22 53 29.9950000  0  7G 3G 8G13G10G27G19G28
  -4970638.15649  -3857561.85847  22438460.9994   22438459.7144
     -1068.1874
 -22625397.05049 -17603499.81848  19018221.6324   19018219.8194
      2589.8914
   1607433.58449   1255803.20148  20550988.8744   20550987.4334
     -1614.3594
 -11020803.55049  -8578273.10047  21731463.5774   21731462.4094
       866.2974
 -13581549.41149 -10568682.11548  19098420.2104   19098418.1164
      1372.2194
 -16964623.10949 -13209003.36248  20870936.7884   20870932.9994
      1269.6094
 -16387344.92049 -12757883.98848  20608964.9054   20608962.6284
      3876.8134
 04  9  7 22 53 44.9950000  0  7G 3G 8G13G10G27G19G28
  -4954568.93249  -3845040.40847  22441518.3514   22441518.0344
     -1074.9694
 -22664215.97649 -17633748.32548  19010834.7654   19010833.1284
      2585.5004
   1631684.93149   1274700.33748  20555603.6794   20555601.8434
     -1619.7664
 -11033733.65849  -8588348.54447  21729002.8904   21729001.7494
       857.1564
 -13602107.37749 -10584701.31248  19094508.2334   19094505.9014
      1368.3444
 -16983599.92049 -13223790.48948  20867325.6554   20867322.0034
      1260.1254
 -16445464.70049 -12803172.10648  20597904.7574   20597902.8234
      3872.0004
 04  9  7 22 53 59.9950000  0  7G 3G 8G13G10G27G19G28
  -4938394.91549  -3832437.26247  22444596.6014   22444596.1324
     -1081.7034
 -22702965.53749 -17663942.78348  19003461.2574   19003459.1204
      2581.0474
   1656020.78349   1293663.31648  20560235.0154   20560233.5424
     -1625.1254
 -11046524.42949  -8598315.37247  21726568.9764   21726567.9804
       848.1094
 -13622602.94449 -10600671.88148  19090608.1554   19090606.1124
      1364.3914
 -17002431.82549 -13238464.69548  20863741.8194   20863738.0624
      1250.7664
 -16503508.80849 -12848401.23648  20586859.1634   20586857.0384
      3867.1724
 04  9  7 22 54 14.9950000  0  7G 3G 8G13G10G27G19G28
  -4922118.10949  -3819754.06747  22447693.3984   22447694.2574
     -1088.2194
 -22741647.47149 -17694084.54048  18996100.2494   18996098.6124
      2576.7974
   1680438.94049   1312690.42148  20564881.6084   20564880.2064
     -1630.3124
 -11059177.78349  -8608175.13947  21724161.0544   21724160.3744
       839.2814
 -13643037.77149 -10616595.11548  19086719.3124   19086716.9524
      1360.6414
 -17021120.57749 -13253027.34348  20860185.3044   20860181.7334
      1241.4224
 -16561478.98449 -12893572.77748  20575827.5934   20575825.6594
      3862.5634
 04  9  7 22 54 29.9950000  0  7G 3G 8G13G10G27G19G28
  -4905738.05249  -3806990.40047  22450810.2734   22450811.0774
     -1095.2974
 -22780260.80949 -17724172.85448  18988752.2184   18988750.4994
      2572.0004
   1704940.04949   1331782.15548  20569544.1084   20569541.9054
     -1636.1414
 -11071692.97349  -8617927.25147  21721780.0624   21721779.1444
       829.8134
 -13663411.01749 -10632470.38048  19082842.7334   19082840.4294
      1356.2974
 -17039665.32449 -13267477.78948  20856656.5694   20856652.8984
      1231.6094
 -16619374.45049 -12938686.10448  20564810.5544   20564808.6054
      3857.3594
 04  9  7 22 54 44.9950000  0  7G 3G 8G13G10G27G19G28
  -4889256.77149  -3794147.84547  22453946.6714   22453946.7494
     -1102.0784
 -22818807.03949 -17754208.87248  18981417.3274   18981415.4374
      2567.6094
   1729522.25649   1350937.10248  20574221.5774   20574220.1284
     -1641.4694
 -11084071.88049  -8627573.16447  21719424.2884   21719423.4524
       820.7504
 -13683724.31949 -10648298.92448  19078977.2414   19078974.5384
      1352.2664
 -17058067.84249 -13281817.41648  20853154.9834   20853151.1944
      1222.1724
 -16677196.66749 -12983742.33848  20553807.1484   20553805.2574
      3852.4694
 04  9  7 22 54 59.9950000  0  7G 3G 8G13G10G27G19G28
  -4872671.24749  -3781224.10547  22457102.9994   22457103.9524
     -1109.3284
 -22857282.87049 -17784190.02948  18974095.3664   18974093.5694
      2562.6094
   1754188.54649   1370157.55848  20578915.8904   20578914.1484
     -1647.2504
 -11096311.39349  -8637110.45447  21717094.7024   21717093.8704
       811.2034
 -13703974.27449 -10664078.10648  19075123.6634   19075121.4764
      1347.8134
 -17076324.77849 -13296043.59048  20849680.7654   20849677.1204
      1212.1254
 -16734942.25349 -13028738.87048  20542818.7574   20542816.9524
      3847.0314
 04  9  7 22 55 14.9950000  0  7G 3G 8G13G10G27G19G28
  -4855980.46749  -3768218.31947  22460279.6404   22460279.3784
     -1116.1094
 -22895686.97349 -17814115.30648  18966787.3904   18966785.4444
      2558.0474
   1778940.00149   1389444.37148  20583625.5624   20583624.0974
     -1652.7974
 -11108410.39449  -8646538.25947  21714792.5304   21714791.8864
       802.1414
 -13724159.61249 -10679806.94948  19071282.3904   19071280.3314
      1343.7814
 -17094434.89349 -13310155.36548  20846234.1554   20846230.7184
      1202.6254
 -16792609.89049 -13073674.65448  20531845.1944   20531842.8514
      3842.1254
 04  9  7 22 55 29.9950000  0  7G 3G 8G13G10G27G19G28
  -4839191.04649  -3755135.64447  22463474.5384   22463474.1904
     -1122.6254
 -22934025.68049 -17843989.62148  18959491.5074   18959489.5974
      2553.6094
   1803769.98049   1408792.38847  20588350.6404   20588348.7764
     -1658.0314
 -11120375.43249  -8655861.68247  21712515.6944   21712515.0074
       793.1724
 -13744286.47849 -10695490.22148  19067452.4214   19067450.2534
      1339.7194
 -17112404.45249 -13324157.60948  20842814.7334   20842811.1244
      1193.2034
 -16850205.75249 -13118554.52048  20520884.9684   20520882.5624
      3837.3134
 04  9  7 22 55 44.9950000  0  7G 3G 8G13G10G27G19G28
  -4822296.03849  -3741970.70847  22466689.3124   22466688.7924
     -1129.7974
 -22972291.51849 -17873807.15148  18952210.0074   18952208.1634
      2548.6094
   1828685.52249   1428207.06347  20593092.0934   20593090.3664
     -1663.8754
 -11132199.30149  -8665075.08947  21710265.2804   21710264.7534
       783.5004
 -13764347.60749 -10711122.26448  19063634.9834   19063632.8784
      1335.2034
 -17130226.26049 -13338044.73048  20839423.1634   20839420.0194
      1183.1724
 -16907722.47949 -13163372.72648  20509939.5464   20509937.3514
      3831.7974
 04  9  7 22 55 59.9950000  0  7G 3G 8G13G10G27G19G28
  -4805298.04549  -3728725.56347  22469924.1014   22469924.0264
     -1136.4534
 -23010486.68249 -17903569.61248  18944941.4524   18944939.4604
      2544.1564
   1853684.15549   1447686.48847  20597848.8434   20597847.5304
     -1669.1874
 -11143884.46449  -8674180.44047  21708042.6404   21708041.4684
       774.5784
 -13784345.09749 -10726704.72348  19059829.5694   19059827.3584
      1331.2194
 -17147902.53249 -13351818.45048  20836059.8514   20836056.1204
      1173.7504
 -16965162.26349 -13208130.96348  20499009.3274   20499006.8124
      3826.9384
 04  9  7 22 56 14.9950000  0  7G 3G 8G13G10G27G19G28
  -4788197.87349  -3715400.77147  22473178.2104   22473177.7844
     -1143.3754
 -23048611.59449 -17933277.32748  18937686.6014   18937684.9254
      2539.2814
   1878765.03249   1467229.99947  20602621.2264   20602619.7614
     -1674.8444
 -11155431.66849  -8683178.24947  21705844.7884   21705843.8314
       765.1564
 -13804279.53049 -10742238.03948  19056036.1164   19056033.9724
      1326.7974
 -17165433.84949 -13365479.20548  20832723.4764   20832720.4094
      1163.8754
 -17022525.62149 -13252829.64948  20488093.3744   20488090.9684
      3821.6414
 04  9  7 22 56 29.9950000  0  7G 3G 8G13G10G27G19G28
  -4770993.76249  -3701994.96047  22476451.8124   22476451.4404
     -1150.6724
 -23086664.14849 -17962928.66548  18930445.4994   18930443.7764
      2534.2034
   1903930.01749   1486839.04947  20607410.6324   20607409.2064
     -1680.7664
 -11166838.96149  -8692067.05847  21703674.3984   21703673.0114
       755.6094
 -13824148.69249 -10757720.51348  19052255.1244   19052253.3394
      1322.2664
 -17182818.02949 -13379025.31148  20829415.4294   20829411.9604
      1153.7974
 -17079810.26249 -13297467.00248  20477192.8744   20477190.3584
      3816.0784
 04  9  7 22 56 44.9950000  0  7G 3G 8G13G10G27G19G28
  -4753687.83149  -3688509.82147  22479744.6554   22479744.8434
     -1156.7034
 -23124645.79949 -17992524.75248  18923217.9684   18923216.0194
      2530.1414
   1929177.16449   1506512.12747  20612214.8194   20612213.2654
     -1685.4224
 -11178108.03849  -8700848.15747  21701529.1164   21701528.2374
       747.0314
 -13843954.28349 -10773153.45048  19048486.2734   19048484.5544
      1318.6724
 -17200056.88749 -13392458.18648  20826135.1014   20826131.7374
      1144.8284
 -17137017.86949 -13342044.33148  20466306.0464   20466303.9404
      3811.6724
